<?xml version="1.0" encoding="UTF-8" standalone="no" ?>
<gpx xmlns="http://www.topografix.com/GPX/1/1" xmlns:xsi="http://www.w3.org/2001/XMLSchema-instance" xsi:schemaLocation="http://www.topografix.com/GPX/1/1 http://www.topografix.com/GPX/1/1/gpx.xsd" version="1.1" creator="VisuGPX - https://www.visugpx.com">
  <metadata>
    <name>Arca Pianelli Muratello Borivoli</name>
  </metadata>
  <trk>
    <name><![CDATA[Arca Pianelli Muratello Borivoli_1]]></name>
    <trkseg>
      <trkpt lat="41.59019" lon="9.20387">
        <ele>60.1</ele>
        <time>2018-05-21T10:34:20Z</time>
      </trkpt>
      <trkpt lat="41.59019" lon="9.20387">
        <ele>60.1</ele>
        <time>2018-05-21T10:34:20Z</time>
      </trkpt>
      <trkpt lat="41.59012" lon="9.20386">
        <ele>64</ele>
        <time>2018-05-21T10:39:03Z</time>
      </trkpt>
      <trkpt lat="41.58999" lon="9.20371">
        <ele>64.6</ele>
        <time>2018-05-21T10:39:10Z</time>
      </trkpt>
      <trkpt lat="41.58984" lon="9.20351">
        <ele>65.6</ele>
        <time>2018-05-21T10:39:17Z</time>
      </trkpt>
      <trkpt lat="41.58982" lon="9.20348">
        <ele>65.6</ele>
        <time>2018-05-21T10:39:18Z</time>
      </trkpt>
      <trkpt lat="41.58963" lon="9.20323">
        <ele>66.4</ele>
        <time>2018-05-21T10:39:26Z</time>
      </trkpt>
      <trkpt lat="41.5896" lon="9.20316">
        <ele>66.6</ele>
        <time>2018-05-21T10:39:28Z</time>
      </trkpt>
      <trkpt lat="41.58957" lon="9.20305">
        <ele>66.8</ele>
        <time>2018-05-21T10:39:31Z</time>
      </trkpt>
      <trkpt lat="41.58955" lon="9.20302">
        <ele>66.8</ele>
        <time>2018-05-21T10:39:32Z</time>
      </trkpt>
      <trkpt lat="41.58949" lon="9.20302">
        <ele>67</ele>
        <time>2018-05-21T10:39:34Z</time>
      </trkpt>
      <trkpt lat="41.58942" lon="9.20302">
        <ele>67</ele>
        <time>2018-05-21T10:39:36Z</time>
      </trkpt>
      <trkpt lat="41.58935" lon="9.20297">
        <ele>67</ele>
        <time>2018-05-21T10:39:38Z</time>
      </trkpt>
      <trkpt lat="41.58915" lon="9.20273">
        <ele>67.2</ele>
        <time>2018-05-21T10:39:45Z</time>
      </trkpt>
      <trkpt lat="41.58893" lon="9.2025">
        <ele>67.4</ele>
        <time>2018-05-21T10:39:52Z</time>
      </trkpt>
      <trkpt lat="41.58886" lon="9.20245">
        <ele>67.6</ele>
        <time>2018-05-21T10:39:54Z</time>
      </trkpt>
      <trkpt lat="41.58875" lon="9.20242">
        <ele>68.2</ele>
        <time>2018-05-21T10:39:57Z</time>
      </trkpt>
      <trkpt lat="41.58864" lon="9.20242">
        <ele>68.8</ele>
        <time>2018-05-21T10:40:00Z</time>
      </trkpt>
      <trkpt lat="41.58851" lon="9.20244">
        <ele>69.8</ele>
        <time>2018-05-21T10:40:04Z</time>
      </trkpt>
      <trkpt lat="41.58847" lon="9.20245">
        <ele>70</ele>
        <time>2018-05-21T10:40:05Z</time>
      </trkpt>
      <trkpt lat="41.58826" lon="9.20245">
        <ele>71</ele>
        <time>2018-05-21T10:40:11Z</time>
      </trkpt>
      <trkpt lat="41.58812" lon="9.20233">
        <ele>71.2</ele>
        <time>2018-05-21T10:40:16Z</time>
      </trkpt>
      <trkpt lat="41.58801" lon="9.20214">
        <ele>70.6</ele>
        <time>2018-05-21T10:40:20Z</time>
      </trkpt>
      <trkpt lat="41.58798" lon="9.20208">
        <ele>70.4</ele>
        <time>2018-05-21T10:40:21Z</time>
      </trkpt>
      <trkpt lat="41.58791" lon="9.20196">
        <ele>69.8</ele>
        <time>2018-05-21T10:40:23Z</time>
      </trkpt>
      <trkpt lat="41.58778" lon="9.20174">
        <ele>68.4</ele>
        <time>2018-05-21T10:40:26Z</time>
      </trkpt>
      <trkpt lat="41.58765" lon="9.20161">
        <ele>67.4</ele>
        <time>2018-05-21T10:40:28Z</time>
      </trkpt>
      <trkpt lat="41.58751" lon="9.20149">
        <ele>66.4</ele>
        <time>2018-05-21T10:40:30Z</time>
      </trkpt>
      <trkpt lat="41.58744" lon="9.20143">
        <ele>66</ele>
        <time>2018-05-21T10:40:31Z</time>
      </trkpt>
      <trkpt lat="41.58729" lon="9.20132">
        <ele>64.6</ele>
        <time>2018-05-21T10:40:33Z</time>
      </trkpt>
      <trkpt lat="41.58712" lon="9.20119">
        <ele>63</ele>
        <time>2018-05-21T10:40:35Z</time>
      </trkpt>
      <trkpt lat="41.58704" lon="9.20113">
        <ele>62.4</ele>
        <time>2018-05-21T10:40:36Z</time>
      </trkpt>
      <trkpt lat="41.58696" lon="9.20107">
        <ele>62</ele>
        <time>2018-05-21T10:40:37Z</time>
      </trkpt>
      <trkpt lat="41.58666" lon="9.20083">
        <ele>61</ele>
        <time>2018-05-21T10:40:41Z</time>
      </trkpt>
      <trkpt lat="41.58659" lon="9.20077">
        <ele>60.6</ele>
        <time>2018-05-21T10:40:42Z</time>
      </trkpt>
      <trkpt lat="41.58653" lon="9.20071">
        <ele>60.4</ele>
        <time>2018-05-21T10:40:43Z</time>
      </trkpt>
      <trkpt lat="41.58641" lon="9.2005">
        <ele>60.6</ele>
        <time>2018-05-21T10:40:46Z</time>
      </trkpt>
      <trkpt lat="41.58626" lon="9.20021">
        <ele>61.8</ele>
        <time>2018-05-21T10:40:51Z</time>
      </trkpt>
      <trkpt lat="41.58623" lon="9.20016">
        <ele>62</ele>
        <time>2018-05-21T10:40:52Z</time>
      </trkpt>
      <trkpt lat="41.58605" lon="9.19989">
        <ele>63</ele>
        <time>2018-05-21T10:40:58Z</time>
      </trkpt>
      <trkpt lat="41.58598" lon="9.19982">
        <ele>63.6</ele>
        <time>2018-05-21T10:41:00Z</time>
      </trkpt>
      <trkpt lat="41.58586" lon="9.19973">
        <ele>63.8</ele>
        <time>2018-05-21T10:41:03Z</time>
      </trkpt>
      <trkpt lat="41.58572" lon="9.19965">
        <ele>64.2</ele>
        <time>2018-05-21T10:41:06Z</time>
      </trkpt>
      <trkpt lat="41.58555" lon="9.19957">
        <ele>65.4</ele>
        <time>2018-05-21T10:41:10Z</time>
      </trkpt>
      <trkpt lat="41.58551" lon="9.19955">
        <ele>65.4</ele>
        <time>2018-05-21T10:41:11Z</time>
      </trkpt>
      <trkpt lat="41.58531" lon="9.19944">
        <ele>66</ele>
        <time>2018-05-21T10:41:16Z</time>
      </trkpt>
      <trkpt lat="41.58527" lon="9.19941">
        <ele>66</ele>
        <time>2018-05-21T10:41:17Z</time>
      </trkpt>
      <trkpt lat="41.58516" lon="9.19929">
        <ele>66.2</ele>
        <time>2018-05-21T10:41:20Z</time>
      </trkpt>
      <trkpt lat="41.58507" lon="9.19915">
        <ele>66</ele>
        <time>2018-05-21T10:41:23Z</time>
      </trkpt>
      <trkpt lat="41.58504" lon="9.19909">
        <ele>66</ele>
        <time>2018-05-21T10:41:24Z</time>
      </trkpt>
      <trkpt lat="41.58493" lon="9.19885">
        <ele>65.6</ele>
        <time>2018-05-21T10:41:28Z</time>
      </trkpt>
      <trkpt lat="41.58477" lon="9.19851">
        <ele>64.6</ele>
        <time>2018-05-21T10:41:33Z</time>
      </trkpt>
      <trkpt lat="41.58475" lon="9.19843">
        <ele>64.6</ele>
        <time>2018-05-21T10:41:34Z</time>
      </trkpt>
      <trkpt lat="41.58474" lon="9.19835">
        <ele>64.4</ele>
        <time>2018-05-21T10:41:35Z</time>
      </trkpt>
      <trkpt lat="41.58475" lon="9.19817">
        <ele>64.4</ele>
        <time>2018-05-21T10:41:38Z</time>
      </trkpt>
      <trkpt lat="41.58479" lon="9.19808">
        <ele>65</ele>
        <time>2018-05-21T10:41:40Z</time>
      </trkpt>
      <trkpt lat="41.58482" lon="9.198">
        <ele>65.6</ele>
        <time>2018-05-21T10:41:42Z</time>
      </trkpt>
      <trkpt lat="41.58484" lon="9.19791">
        <ele>66</ele>
        <time>2018-05-21T10:41:44Z</time>
      </trkpt>
      <trkpt lat="41.58485" lon="9.19778">
        <ele>66.8</ele>
        <time>2018-05-21T10:41:47Z</time>
      </trkpt>
      <trkpt lat="41.58484" lon="9.19769">
        <ele>67.2</ele>
        <time>2018-05-21T10:41:49Z</time>
      </trkpt>
      <trkpt lat="41.58485" lon="9.19752">
        <ele>67.8</ele>
        <time>2018-05-21T10:41:53Z</time>
      </trkpt>
      <trkpt lat="41.58485" lon="9.19742">
        <ele>68</ele>
        <time>2018-05-21T10:41:55Z</time>
      </trkpt>
      <trkpt lat="41.58483" lon="9.1972">
        <ele>68.8</ele>
        <time>2018-05-21T10:42:00Z</time>
      </trkpt>
      <trkpt lat="41.58483" lon="9.19716">
        <ele>69</ele>
        <time>2018-05-21T10:42:01Z</time>
      </trkpt>
      <trkpt lat="41.58479" lon="9.19689">
        <ele>69.8</ele>
        <time>2018-05-21T10:42:08Z</time>
      </trkpt>
      <trkpt lat="41.58478" lon="9.19662">
        <ele>69.2</ele>
        <time>2018-05-21T10:42:12Z</time>
      </trkpt>
      <trkpt lat="41.58477" lon="9.19631">
        <ele>68.2</ele>
        <time>2018-05-21T10:42:17Z</time>
      </trkpt>
      <trkpt lat="41.58477" lon="9.19602">
        <ele>68.8</ele>
        <time>2018-05-21T10:42:23Z</time>
      </trkpt>
      <trkpt lat="41.58477" lon="9.19591">
        <ele>70</ele>
        <time>2018-05-21T10:42:26Z</time>
      </trkpt>
      <trkpt lat="41.58479" lon="9.19579">
        <ele>70.6</ele>
        <time>2018-05-21T10:42:29Z</time>
      </trkpt>
      <trkpt lat="41.58483" lon="9.1957">
        <ele>71.2</ele>
        <time>2018-05-21T10:42:32Z</time>
      </trkpt>
      <trkpt lat="41.58486" lon="9.19565">
        <ele>71.2</ele>
        <time>2018-05-21T10:42:34Z</time>
      </trkpt>
      <trkpt lat="41.58492" lon="9.19553">
        <ele>72.4</ele>
        <time>2018-05-21T10:42:38Z</time>
      </trkpt>
      <trkpt lat="41.58493" lon="9.1955">
        <ele>72.4</ele>
        <time>2018-05-21T10:42:39Z</time>
      </trkpt>
      <trkpt lat="41.58495" lon="9.19544">
        <ele>72.6</ele>
        <time>2018-05-21T10:42:41Z</time>
      </trkpt>
      <trkpt lat="41.58499" lon="9.19524">
        <ele>73.6</ele>
        <time>2018-05-21T10:42:46Z</time>
      </trkpt>
      <trkpt lat="41.58501" lon="9.19505">
        <ele>74.6</ele>
        <time>2018-05-21T10:42:52Z</time>
      </trkpt>
      <trkpt lat="41.58501" lon="9.19498">
        <ele>75</ele>
        <time>2018-05-21T10:42:54Z</time>
      </trkpt>
      <trkpt lat="41.58501" lon="9.19482">
        <ele>75.8</ele>
        <time>2018-05-21T10:42:59Z</time>
      </trkpt>
      <trkpt lat="41.58501" lon="9.19461">
        <ele>76</ele>
        <time>2018-05-21T10:43:05Z</time>
      </trkpt>
      <trkpt lat="41.58501" lon="9.19447">
        <ele>75.8</ele>
        <time>2018-05-21T10:43:09Z</time>
      </trkpt>
      <trkpt lat="41.58504" lon="9.1943">
        <ele>76</ele>
        <time>2018-05-21T10:43:14Z</time>
      </trkpt>
      <trkpt lat="41.58507" lon="9.19419">
        <ele>76.4</ele>
        <time>2018-05-21T10:43:18Z</time>
      </trkpt>
      <trkpt lat="41.58507" lon="9.19416">
        <ele>76.4</ele>
        <time>2018-05-21T10:43:19Z</time>
      </trkpt>
      <trkpt lat="41.58509" lon="9.19394">
        <ele>77</ele>
        <time>2018-05-21T10:43:25Z</time>
      </trkpt>
      <trkpt lat="41.58508" lon="9.19387">
        <ele>77.6</ele>
        <time>2018-05-21T10:43:27Z</time>
      </trkpt>
      <trkpt lat="41.58508" lon="9.19376">
        <ele>78.2</ele>
        <time>2018-05-21T10:43:31Z</time>
      </trkpt>
      <trkpt lat="41.58507" lon="9.19369">
        <ele>78.8</ele>
        <time>2018-05-21T10:43:33Z</time>
      </trkpt>
      <trkpt lat="41.58506" lon="9.19361">
        <ele>79.6</ele>
        <time>2018-05-21T10:43:36Z</time>
      </trkpt>
      <trkpt lat="41.58505" lon="9.19355">
        <ele>80</ele>
        <time>2018-05-21T10:43:38Z</time>
      </trkpt>
      <trkpt lat="41.58503" lon="9.19344">
        <ele>80.8</ele>
        <time>2018-05-21T10:43:42Z</time>
      </trkpt>
      <trkpt lat="41.58503" lon="9.19331">
        <ele>81</ele>
        <time>2018-05-21T10:43:46Z</time>
      </trkpt>
      <trkpt lat="41.58503" lon="9.19325">
        <ele>81.2</ele>
        <time>2018-05-21T10:43:48Z</time>
      </trkpt>
      <trkpt lat="41.58501" lon="9.19312">
        <ele>82.4</ele>
        <time>2018-05-21T10:43:53Z</time>
      </trkpt>
      <trkpt lat="41.585" lon="9.19309">
        <ele>82.4</ele>
        <time>2018-05-21T10:43:54Z</time>
      </trkpt>
      <trkpt lat="41.58499" lon="9.19304">
        <ele>82.4</ele>
        <time>2018-05-21T10:43:56Z</time>
      </trkpt>
      <trkpt lat="41.58494" lon="9.19297">
        <ele>82.4</ele>
        <time>2018-05-21T10:43:59Z</time>
      </trkpt>
      <trkpt lat="41.58489" lon="9.19286">
        <ele>82.2</ele>
        <time>2018-05-21T10:44:04Z</time>
      </trkpt>
      <trkpt lat="41.58488" lon="9.19282">
        <ele>82.2</ele>
        <time>2018-05-21T10:44:06Z</time>
      </trkpt>
      <trkpt lat="41.58484" lon="9.19263">
        <ele>82.2</ele>
        <time>2018-05-21T10:44:12Z</time>
      </trkpt>
      <trkpt lat="41.58475" lon="9.19245">
        <ele>81.4</ele>
        <time>2018-05-21T10:44:17Z</time>
      </trkpt>
      <trkpt lat="41.58467" lon="9.19235">
        <ele>81.6</ele>
        <time>2018-05-21T10:44:22Z</time>
      </trkpt>
      <trkpt lat="41.58459" lon="9.19229">
        <ele>82.2</ele>
        <time>2018-05-21T10:44:26Z</time>
      </trkpt>
      <trkpt lat="41.58457" lon="9.19227">
        <ele>82.4</ele>
        <time>2018-05-21T10:44:27Z</time>
      </trkpt>
      <trkpt lat="41.58454" lon="9.19226">
        <ele>82.6</ele>
        <time>2018-05-21T10:44:28Z</time>
      </trkpt>
      <trkpt lat="41.5845" lon="9.19222">
        <ele>83.2</ele>
        <time>2018-05-21T10:44:31Z</time>
      </trkpt>
      <trkpt lat="41.5845" lon="9.19219">
        <ele>83.4</ele>
        <time>2018-05-21T10:44:32Z</time>
      </trkpt>
      <trkpt lat="41.5845" lon="9.19216">
        <ele>83.6</ele>
        <time>2018-05-21T10:44:33Z</time>
      </trkpt>
      <trkpt lat="41.5845" lon="9.19208">
        <ele>84.4</ele>
        <time>2018-05-21T10:44:36Z</time>
      </trkpt>
      <trkpt lat="41.58449" lon="9.19203">
        <ele>84.8</ele>
        <time>2018-05-21T10:44:38Z</time>
      </trkpt>
      <trkpt lat="41.58449" lon="9.19196">
        <ele>85.2</ele>
        <time>2018-05-21T10:44:41Z</time>
      </trkpt>
      <trkpt lat="41.5845" lon="9.19189">
        <ele>85.6</ele>
        <time>2018-05-21T10:44:43Z</time>
      </trkpt>
      <trkpt lat="41.5845" lon="9.19183">
        <ele>85.8</ele>
        <time>2018-05-21T10:44:45Z</time>
      </trkpt>
      <trkpt lat="41.58447" lon="9.19175">
        <ele>86</ele>
        <time>2018-05-21T10:44:48Z</time>
      </trkpt>
      <trkpt lat="41.58447" lon="9.19167">
        <ele>87</ele>
        <time>2018-05-21T10:44:51Z</time>
      </trkpt>
      <trkpt lat="41.58447" lon="9.19164">
        <ele>87.2</ele>
        <time>2018-05-21T10:44:52Z</time>
      </trkpt>
      <trkpt lat="41.58448" lon="9.19162">
        <ele>87.4</ele>
        <time>2018-05-21T10:44:53Z</time>
      </trkpt>
      <trkpt lat="41.58448" lon="9.19155">
        <ele>87.6</ele>
        <time>2018-05-21T10:44:55Z</time>
      </trkpt>
      <trkpt lat="41.5845" lon="9.1915">
        <ele>88.2</ele>
        <time>2018-05-21T10:44:57Z</time>
      </trkpt>
      <trkpt lat="41.5845" lon="9.19147">
        <ele>88.6</ele>
        <time>2018-05-21T10:44:58Z</time>
      </trkpt>
      <trkpt lat="41.58449" lon="9.19144">
        <ele>89</ele>
        <time>2018-05-21T10:44:59Z</time>
      </trkpt>
      <trkpt lat="41.58449" lon="9.19139">
        <ele>89.2</ele>
        <time>2018-05-21T10:45:01Z</time>
      </trkpt>
      <trkpt lat="41.58448" lon="9.19133">
        <ele>89.2</ele>
        <time>2018-05-21T10:45:03Z</time>
      </trkpt>
      <trkpt lat="41.5844" lon="9.19115">
        <ele>89.4</ele>
        <time>2018-05-21T10:45:09Z</time>
      </trkpt>
      <trkpt lat="41.58433" lon="9.1911">
        <ele>89.4</ele>
        <time>2018-05-21T10:45:12Z</time>
      </trkpt>
      <trkpt lat="41.58427" lon="9.19108">
        <ele>89.4</ele>
        <time>2018-05-21T10:45:14Z</time>
      </trkpt>
      <trkpt lat="41.58412" lon="9.19102">
        <ele>89.2</ele>
        <time>2018-05-21T10:45:19Z</time>
      </trkpt>
      <trkpt lat="41.58409" lon="9.19089">
        <ele>89.4</ele>
        <time>2018-05-21T10:45:23Z</time>
      </trkpt>
      <trkpt lat="41.58402" lon="9.19077">
        <ele>89.8</ele>
        <time>2018-05-21T10:45:27Z</time>
      </trkpt>
      <trkpt lat="41.58399" lon="9.19074">
        <ele>89.8</ele>
        <time>2018-05-21T10:45:28Z</time>
      </trkpt>
      <trkpt lat="41.58387" lon="9.19069">
        <ele>90.4</ele>
        <time>2018-05-21T10:45:33Z</time>
      </trkpt>
      <trkpt lat="41.58384" lon="9.19068">
        <ele>90.6</ele>
        <time>2018-05-21T10:45:34Z</time>
      </trkpt>
      <trkpt lat="41.5837" lon="9.19063">
        <ele>91.2</ele>
        <time>2018-05-21T10:45:40Z</time>
      </trkpt>
      <trkpt lat="41.58362" lon="9.19061">
        <ele>91.8</ele>
        <time>2018-05-21T10:45:43Z</time>
      </trkpt>
      <trkpt lat="41.58357" lon="9.1906">
        <ele>92.8</ele>
        <time>2018-05-21T10:45:45Z</time>
      </trkpt>
      <trkpt lat="41.58354" lon="9.19059">
        <ele>93.4</ele>
        <time>2018-05-21T10:45:46Z</time>
      </trkpt>
      <trkpt lat="41.58346" lon="9.19057">
        <ele>94.6</ele>
        <time>2018-05-21T10:45:49Z</time>
      </trkpt>
      <trkpt lat="41.58341" lon="9.19058">
        <ele>95</ele>
        <time>2018-05-21T10:45:51Z</time>
      </trkpt>
      <trkpt lat="41.58336" lon="9.19058">
        <ele>95.8</ele>
        <time>2018-05-21T10:45:53Z</time>
      </trkpt>
      <trkpt lat="41.58326" lon="9.19058">
        <ele>96.6</ele>
        <time>2018-05-21T10:45:57Z</time>
      </trkpt>
      <trkpt lat="41.58324" lon="9.19057">
        <ele>96.8</ele>
        <time>2018-05-21T10:45:58Z</time>
      </trkpt>
      <trkpt lat="41.58316" lon="9.19049">
        <ele>97.2</ele>
        <time>2018-05-21T10:46:02Z</time>
      </trkpt>
      <trkpt lat="41.58302" lon="9.19034">
        <ele>96.8</ele>
        <time>2018-05-21T10:46:09Z</time>
      </trkpt>
      <trkpt lat="41.58292" lon="9.19021">
        <ele>96.2</ele>
        <time>2018-05-21T10:46:13Z</time>
      </trkpt>
      <trkpt lat="41.5829" lon="9.19015">
        <ele>96</ele>
        <time>2018-05-21T10:46:14Z</time>
      </trkpt>
      <trkpt lat="41.58287" lon="9.19009">
        <ele>95.8</ele>
        <time>2018-05-21T10:46:15Z</time>
      </trkpt>
      <trkpt lat="41.58277" lon="9.18991">
        <ele>94.6</ele>
        <time>2018-05-21T10:46:18Z</time>
      </trkpt>
      <trkpt lat="41.58274" lon="9.18985">
        <ele>94.4</ele>
        <time>2018-05-21T10:46:19Z</time>
      </trkpt>
      <trkpt lat="41.58266" lon="9.1897">
        <ele>93.8</ele>
        <time>2018-05-21T10:46:22Z</time>
      </trkpt>
      <trkpt lat="41.58262" lon="9.18966">
        <ele>93.6</ele>
        <time>2018-05-21T10:46:23Z</time>
      </trkpt>
      <trkpt lat="41.58259" lon="9.18963">
        <ele>93.4</ele>
        <time>2018-05-21T10:46:24Z</time>
      </trkpt>
      <trkpt lat="41.58249" lon="9.18953">
        <ele>93</ele>
        <time>2018-05-21T10:46:27Z</time>
      </trkpt>
      <trkpt lat="41.58244" lon="9.18946">
        <ele>93</ele>
        <time>2018-05-21T10:46:29Z</time>
      </trkpt>
      <trkpt lat="41.58234" lon="9.18928">
        <ele>94.4</ele>
        <time>2018-05-21T10:46:35Z</time>
      </trkpt>
      <trkpt lat="41.58233" lon="9.18925">
        <ele>94.6</ele>
        <time>2018-05-21T10:46:36Z</time>
      </trkpt>
      <trkpt lat="41.58234" lon="9.18915">
        <ele>95.2</ele>
        <time>2018-05-21T10:46:39Z</time>
      </trkpt>
      <trkpt lat="41.58235" lon="9.18912">
        <ele>95.4</ele>
        <time>2018-05-21T10:46:40Z</time>
      </trkpt>
      <trkpt lat="41.58238" lon="9.18899">
        <ele>96.8</ele>
        <time>2018-05-21T10:46:44Z</time>
      </trkpt>
      <trkpt lat="41.5824" lon="9.18893">
        <ele>97.2</ele>
        <time>2018-05-21T10:46:46Z</time>
      </trkpt>
      <trkpt lat="41.5824" lon="9.1888">
        <ele>97.8</ele>
        <time>2018-05-21T10:46:50Z</time>
      </trkpt>
      <trkpt lat="41.5824" lon="9.18874">
        <ele>98.2</ele>
        <time>2018-05-21T10:46:52Z</time>
      </trkpt>
      <trkpt lat="41.58238" lon="9.18857">
        <ele>99</ele>
        <time>2018-05-21T10:46:57Z</time>
      </trkpt>
      <trkpt lat="41.58238" lon="9.1885">
        <ele>99.6</ele>
        <time>2018-05-21T10:46:59Z</time>
      </trkpt>
      <trkpt lat="41.58239" lon="9.18844">
        <ele>100.2</ele>
        <time>2018-05-21T10:47:01Z</time>
      </trkpt>
      <trkpt lat="41.58237" lon="9.18834">
        <ele>100.8</ele>
        <time>2018-05-21T10:47:05Z</time>
      </trkpt>
      <trkpt lat="41.58236" lon="9.18826">
        <ele>101.2</ele>
        <time>2018-05-21T10:47:08Z</time>
      </trkpt>
      <trkpt lat="41.58236" lon="9.18817">
        <ele>102.2</ele>
        <time>2018-05-21T10:47:11Z</time>
      </trkpt>
      <trkpt lat="41.58235" lon="9.18811">
        <ele>102.4</ele>
        <time>2018-05-21T10:47:13Z</time>
      </trkpt>
      <trkpt lat="41.58235" lon="9.18799">
        <ele>103</ele>
        <time>2018-05-21T10:47:17Z</time>
      </trkpt>
      <trkpt lat="41.58234" lon="9.18793">
        <ele>103.6</ele>
        <time>2018-05-21T10:47:19Z</time>
      </trkpt>
      <trkpt lat="41.58232" lon="9.18781">
        <ele>104.6</ele>
        <time>2018-05-21T10:47:23Z</time>
      </trkpt>
      <trkpt lat="41.58231" lon="9.18771">
        <ele>105.2</ele>
        <time>2018-05-21T10:47:26Z</time>
      </trkpt>
      <trkpt lat="41.5823" lon="9.18765">
        <ele>105.8</ele>
        <time>2018-05-21T10:47:28Z</time>
      </trkpt>
      <trkpt lat="41.58229" lon="9.18746">
        <ele>106.8</ele>
        <time>2018-05-21T10:47:34Z</time>
      </trkpt>
      <trkpt lat="41.58229" lon="9.18743">
        <ele>107</ele>
        <time>2018-05-21T10:47:35Z</time>
      </trkpt>
      <trkpt lat="41.58234" lon="9.18723">
        <ele>107.4</ele>
        <time>2018-05-21T10:47:41Z</time>
      </trkpt>
      <trkpt lat="41.58237" lon="9.18718">
        <ele>108</ele>
        <time>2018-05-21T10:47:43Z</time>
      </trkpt>
      <trkpt lat="41.58242" lon="9.18707">
        <ele>109.2</ele>
        <time>2018-05-21T10:47:47Z</time>
      </trkpt>
      <trkpt lat="41.58243" lon="9.18704">
        <ele>109.6</ele>
        <time>2018-05-21T10:47:48Z</time>
      </trkpt>
      <trkpt lat="41.58246" lon="9.18696">
        <ele>110.2</ele>
        <time>2018-05-21T10:47:51Z</time>
      </trkpt>
      <trkpt lat="41.58252" lon="9.18688">
        <ele>111.2</ele>
        <time>2018-05-21T10:47:55Z</time>
      </trkpt>
      <trkpt lat="41.58254" lon="9.18686">
        <ele>111.6</ele>
        <time>2018-05-21T10:47:56Z</time>
      </trkpt>
      <trkpt lat="41.58259" lon="9.18681">
        <ele>113</ele>
        <time>2018-05-21T10:48:00Z</time>
      </trkpt>
      <trkpt lat="41.58261" lon="9.18678">
        <ele>113.6</ele>
        <time>2018-05-21T10:48:02Z</time>
      </trkpt>
      <trkpt lat="41.58264" lon="9.18676">
        <ele>114.4</ele>
        <time>2018-05-21T10:48:04Z</time>
      </trkpt>
      <trkpt lat="41.58268" lon="9.18671">
        <ele>115.6</ele>
        <time>2018-05-21T10:48:07Z</time>
      </trkpt>
      <trkpt lat="41.58272" lon="9.18666">
        <ele>116.2</ele>
        <time>2018-05-21T10:48:10Z</time>
      </trkpt>
      <trkpt lat="41.58276" lon="9.18665">
        <ele>116.8</ele>
        <time>2018-05-21T10:48:12Z</time>
      </trkpt>
      <trkpt lat="41.58284" lon="9.18662">
        <ele>118</ele>
        <time>2018-05-21T10:48:17Z</time>
      </trkpt>
      <trkpt lat="41.58286" lon="9.18662">
        <ele>118.2</ele>
        <time>2018-05-21T10:48:18Z</time>
      </trkpt>
      <trkpt lat="41.58296" lon="9.18656">
        <ele>119.2</ele>
        <time>2018-05-21T10:48:24Z</time>
      </trkpt>
      <trkpt lat="41.58298" lon="9.18655">
        <ele>119.4</ele>
        <time>2018-05-21T10:48:25Z</time>
      </trkpt>
      <trkpt lat="41.58308" lon="9.18646">
        <ele>120.2</ele>
        <time>2018-05-21T10:48:31Z</time>
      </trkpt>
      <trkpt lat="41.58311" lon="9.18642">
        <ele>120.4</ele>
        <time>2018-05-21T10:48:33Z</time>
      </trkpt>
      <trkpt lat="41.58317" lon="9.18635">
        <ele>121.4</ele>
        <time>2018-05-21T10:48:38Z</time>
      </trkpt>
      <trkpt lat="41.58329" lon="9.1863">
        <ele>122.4</ele>
        <time>2018-05-21T10:48:45Z</time>
      </trkpt>
      <trkpt lat="41.58332" lon="9.1863">
        <ele>122.8</ele>
        <time>2018-05-21T10:48:47Z</time>
      </trkpt>
      <trkpt lat="41.58339" lon="9.18629">
        <ele>123.4</ele>
        <time>2018-05-21T10:48:51Z</time>
      </trkpt>
      <trkpt lat="41.58347" lon="9.18628">
        <ele>124.2</ele>
        <time>2018-05-21T10:48:55Z</time>
      </trkpt>
      <trkpt lat="41.5835" lon="9.18626">
        <ele>124.6</ele>
        <time>2018-05-21T10:48:57Z</time>
      </trkpt>
      <trkpt lat="41.58356" lon="9.18624">
        <ele>125.2</ele>
        <time>2018-05-21T10:49:00Z</time>
      </trkpt>
      <trkpt lat="41.5836" lon="9.18623">
        <ele>125.6</ele>
        <time>2018-05-21T10:49:02Z</time>
      </trkpt>
      <trkpt lat="41.58369" lon="9.18617">
        <ele>126.4</ele>
        <time>2018-05-21T10:49:07Z</time>
      </trkpt>
      <trkpt lat="41.58373" lon="9.18614">
        <ele>126.8</ele>
        <time>2018-05-21T10:49:09Z</time>
      </trkpt>
      <trkpt lat="41.58382" lon="9.18606">
        <ele>127.2</ele>
        <time>2018-05-21T10:49:14Z</time>
      </trkpt>
      <trkpt lat="41.58394" lon="9.18602">
        <ele>127.8</ele>
        <time>2018-05-21T10:49:20Z</time>
      </trkpt>
      <trkpt lat="41.58397" lon="9.18602">
        <ele>128</ele>
        <time>2018-05-21T10:49:21Z</time>
      </trkpt>
      <trkpt lat="41.58402" lon="9.18603">
        <ele>128.2</ele>
        <time>2018-05-21T10:49:24Z</time>
      </trkpt>
      <trkpt lat="41.58406" lon="9.18604">
        <ele>128.4</ele>
        <time>2018-05-21T10:49:26Z</time>
      </trkpt>
      <trkpt lat="41.58409" lon="9.18606">
        <ele>128.8</ele>
        <time>2018-05-21T10:49:28Z</time>
      </trkpt>
      <trkpt lat="41.58422" lon="9.18611">
        <ele>129.8</ele>
        <time>2018-05-21T10:49:34Z</time>
      </trkpt>
      <trkpt lat="41.58435" lon="9.18614">
        <ele>130.6</ele>
        <time>2018-05-21T10:49:40Z</time>
      </trkpt>
      <trkpt lat="41.58439" lon="9.18614">
        <ele>130.8</ele>
        <time>2018-05-21T10:49:42Z</time>
      </trkpt>
      <trkpt lat="41.58449" lon="9.18609">
        <ele>131.4</ele>
        <time>2018-05-21T10:49:47Z</time>
      </trkpt>
      <trkpt lat="41.5846" lon="9.18603">
        <ele>131.8</ele>
        <time>2018-05-21T10:49:52Z</time>
      </trkpt>
      <trkpt lat="41.58464" lon="9.186">
        <ele>132</ele>
        <time>2018-05-21T10:49:54Z</time>
      </trkpt>
      <trkpt lat="41.58473" lon="9.18589">
        <ele>132.8</ele>
        <time>2018-05-21T10:49:59Z</time>
      </trkpt>
      <trkpt lat="41.58475" lon="9.18584">
        <ele>132.8</ele>
        <time>2018-05-21T10:50:01Z</time>
      </trkpt>
      <trkpt lat="41.58484" lon="9.18565">
        <ele>133.4</ele>
        <time>2018-05-21T10:50:08Z</time>
      </trkpt>
      <trkpt lat="41.58482" lon="9.18542">
        <ele>133.2</ele>
        <time>2018-05-21T10:50:14Z</time>
      </trkpt>
      <trkpt lat="41.58476" lon="9.18516">
        <ele>133.4</ele>
        <time>2018-05-21T10:50:22Z</time>
      </trkpt>
      <trkpt lat="41.58471" lon="9.185">
        <ele>133.8</ele>
        <time>2018-05-21T10:50:28Z</time>
      </trkpt>
      <trkpt lat="41.58468" lon="9.18495">
        <ele>134.4</ele>
        <time>2018-05-21T10:50:30Z</time>
      </trkpt>
      <trkpt lat="41.58465" lon="9.18489">
        <ele>135.2</ele>
        <time>2018-05-21T10:50:33Z</time>
      </trkpt>
      <trkpt lat="41.58462" lon="9.18483">
        <ele>136.4</ele>
        <time>2018-05-21T10:50:36Z</time>
      </trkpt>
      <trkpt lat="41.58461" lon="9.18481">
        <ele>136.6</ele>
        <time>2018-05-21T10:50:37Z</time>
      </trkpt>
      <trkpt lat="41.58458" lon="9.18478">
        <ele>137.6</ele>
        <time>2018-05-21T10:50:39Z</time>
      </trkpt>
      <trkpt lat="41.58451" lon="9.1847">
        <ele>139</ele>
        <time>2018-05-21T10:50:44Z</time>
      </trkpt>
      <trkpt lat="41.58441" lon="9.18457">
        <ele>140.2</ele>
        <time>2018-05-21T10:50:51Z</time>
      </trkpt>
      <trkpt lat="41.58437" lon="9.18454">
        <ele>140.8</ele>
        <time>2018-05-21T10:50:53Z</time>
      </trkpt>
      <trkpt lat="41.58433" lon="9.18448">
        <ele>141.2</ele>
        <time>2018-05-21T10:50:56Z</time>
      </trkpt>
      <trkpt lat="41.58427" lon="9.18441">
        <ele>142.2</ele>
        <time>2018-05-21T10:51:00Z</time>
      </trkpt>
      <trkpt lat="41.58423" lon="9.18437">
        <ele>142.6</ele>
        <time>2018-05-21T10:51:02Z</time>
      </trkpt>
      <trkpt lat="41.58417" lon="9.18429">
        <ele>143.4</ele>
        <time>2018-05-21T10:51:06Z</time>
      </trkpt>
      <trkpt lat="41.58413" lon="9.18423">
        <ele>143.6</ele>
        <time>2018-05-21T10:51:09Z</time>
      </trkpt>
      <trkpt lat="41.58409" lon="9.18417">
        <ele>144.4</ele>
        <time>2018-05-21T10:51:12Z</time>
      </trkpt>
      <trkpt lat="41.58403" lon="9.18409">
        <ele>145.4</ele>
        <time>2018-05-21T10:51:16Z</time>
      </trkpt>
      <trkpt lat="41.58401" lon="9.18407">
        <ele>145.8</ele>
        <time>2018-05-21T10:51:17Z</time>
      </trkpt>
      <trkpt lat="41.58393" lon="9.18399">
        <ele>146.6</ele>
        <time>2018-05-21T10:51:22Z</time>
      </trkpt>
      <trkpt lat="41.58389" lon="9.18395">
        <ele>147</ele>
        <time>2018-05-21T10:51:24Z</time>
      </trkpt>
      <trkpt lat="41.58379" lon="9.18387">
        <ele>147.8</ele>
        <time>2018-05-21T10:51:30Z</time>
      </trkpt>
      <trkpt lat="41.58377" lon="9.18386">
        <ele>148</ele>
        <time>2018-05-21T10:51:31Z</time>
      </trkpt>
      <trkpt lat="41.58371" lon="9.1838">
        <ele>149.4</ele>
        <time>2018-05-21T10:51:35Z</time>
      </trkpt>
      <trkpt lat="41.58366" lon="9.18375">
        <ele>150.4</ele>
        <time>2018-05-21T10:51:38Z</time>
      </trkpt>
      <trkpt lat="41.58363" lon="9.18372">
        <ele>150.8</ele>
        <time>2018-05-21T10:51:40Z</time>
      </trkpt>
      <trkpt lat="41.58358" lon="9.18367">
        <ele>151.6</ele>
        <time>2018-05-21T10:51:43Z</time>
      </trkpt>
      <trkpt lat="41.58351" lon="9.18362">
        <ele>153</ele>
        <time>2018-05-21T10:51:47Z</time>
      </trkpt>
      <trkpt lat="41.5835" lon="9.18361">
        <ele>153.2</ele>
        <time>2018-05-21T10:51:48Z</time>
      </trkpt>
      <trkpt lat="41.58342" lon="9.18358">
        <ele>154</ele>
        <time>2018-05-21T10:51:52Z</time>
      </trkpt>
      <trkpt lat="41.58337" lon="9.18354">
        <ele>155</ele>
        <time>2018-05-21T10:51:55Z</time>
      </trkpt>
      <trkpt lat="41.58336" lon="9.18352">
        <ele>155.4</ele>
        <time>2018-05-21T10:51:56Z</time>
      </trkpt>
      <trkpt lat="41.58329" lon="9.18342">
        <ele>156.8</ele>
        <time>2018-05-21T10:52:01Z</time>
      </trkpt>
      <trkpt lat="41.58327" lon="9.18337">
        <ele>157.4</ele>
        <time>2018-05-21T10:52:03Z</time>
      </trkpt>
      <trkpt lat="41.58323" lon="9.18327">
        <ele>157.8</ele>
        <time>2018-05-21T10:52:07Z</time>
      </trkpt>
      <trkpt lat="41.58322" lon="9.18316">
        <ele>158.8</ele>
        <time>2018-05-21T10:52:11Z</time>
      </trkpt>
      <trkpt lat="41.58322" lon="9.18314">
        <ele>159</ele>
        <time>2018-05-21T10:52:12Z</time>
      </trkpt>
      <trkpt lat="41.58324" lon="9.18298">
        <ele>160</ele>
        <time>2018-05-21T10:52:18Z</time>
      </trkpt>
      <trkpt lat="41.58325" lon="9.18295">
        <ele>160.4</ele>
        <time>2018-05-21T10:52:19Z</time>
      </trkpt>
      <trkpt lat="41.58326" lon="9.18287">
        <ele>161.4</ele>
        <time>2018-05-21T10:52:22Z</time>
      </trkpt>
      <trkpt lat="41.58329" lon="9.18274">
        <ele>162.6</ele>
        <time>2018-05-21T10:52:27Z</time>
      </trkpt>
      <trkpt lat="41.5833" lon="9.18266">
        <ele>163.6</ele>
        <time>2018-05-21T10:52:30Z</time>
      </trkpt>
      <trkpt lat="41.58329" lon="9.18252">
        <ele>164.6</ele>
        <time>2018-05-21T10:52:35Z</time>
      </trkpt>
      <trkpt lat="41.58329" lon="9.18238">
        <ele>164.8</ele>
        <time>2018-05-21T10:52:40Z</time>
      </trkpt>
      <trkpt lat="41.58329" lon="9.18233">
        <ele>164.8</ele>
        <time>2018-05-21T10:52:42Z</time>
      </trkpt>
      <trkpt lat="41.58325" lon="9.18219">
        <ele>165.8</ele>
        <time>2018-05-21T10:52:47Z</time>
      </trkpt>
      <trkpt lat="41.58322" lon="9.18215">
        <ele>166.2</ele>
        <time>2018-05-21T10:52:49Z</time>
      </trkpt>
      <trkpt lat="41.58317" lon="9.18212">
        <ele>167</ele>
        <time>2018-05-21T10:52:52Z</time>
      </trkpt>
      <trkpt lat="41.58311" lon="9.18208">
        <ele>167.8</ele>
        <time>2018-05-21T10:52:55Z</time>
      </trkpt>
      <trkpt lat="41.58307" lon="9.18206">
        <ele>168.2</ele>
        <time>2018-05-21T10:52:57Z</time>
      </trkpt>
      <trkpt lat="41.58299" lon="9.18203">
        <ele>169.4</ele>
        <time>2018-05-21T10:53:01Z</time>
      </trkpt>
      <trkpt lat="41.58296" lon="9.18203">
        <ele>169.6</ele>
        <time>2018-05-21T10:53:02Z</time>
      </trkpt>
      <trkpt lat="41.58292" lon="9.18201">
        <ele>170.4</ele>
        <time>2018-05-21T10:53:04Z</time>
      </trkpt>
      <trkpt lat="41.58287" lon="9.18198">
        <ele>171.6</ele>
        <time>2018-05-21T10:53:07Z</time>
      </trkpt>
      <trkpt lat="41.58283" lon="9.18196">
        <ele>172.2</ele>
        <time>2018-05-21T10:53:09Z</time>
      </trkpt>
      <trkpt lat="41.58281" lon="9.18195">
        <ele>172.6</ele>
        <time>2018-05-21T10:53:11Z</time>
      </trkpt>
      <trkpt lat="41.58274" lon="9.1819">
        <ele>173.2</ele>
        <time>2018-05-21T10:53:17Z</time>
      </trkpt>
      <trkpt lat="41.5827" lon="9.18187">
        <ele>173.6</ele>
        <time>2018-05-21T10:53:20Z</time>
      </trkpt>
      <trkpt lat="41.58264" lon="9.18183">
        <ele>174.2</ele>
        <time>2018-05-21T10:53:24Z</time>
      </trkpt>
      <trkpt lat="41.58257" lon="9.18179">
        <ele>174.8</ele>
        <time>2018-05-21T10:53:29Z</time>
      </trkpt>
      <trkpt lat="41.58256" lon="9.18179">
        <ele>174.8</ele>
        <time>2018-05-21T10:53:30Z</time>
      </trkpt>
      <trkpt lat="41.58248" lon="9.18176">
        <ele>175.8</ele>
        <time>2018-05-21T10:53:35Z</time>
      </trkpt>
      <trkpt lat="41.58244" lon="9.18174">
        <ele>176.4</ele>
        <time>2018-05-21T10:53:37Z</time>
      </trkpt>
      <trkpt lat="41.58241" lon="9.18173">
        <ele>177</ele>
        <time>2018-05-21T10:53:39Z</time>
      </trkpt>
      <trkpt lat="41.58234" lon="9.18169">
        <ele>178</ele>
        <time>2018-05-21T10:53:43Z</time>
      </trkpt>
      <trkpt lat="41.58231" lon="9.18167">
        <ele>178.4</ele>
        <time>2018-05-21T10:53:45Z</time>
      </trkpt>
      <trkpt lat="41.58226" lon="9.18161">
        <ele>179.2</ele>
        <time>2018-05-21T10:53:49Z</time>
      </trkpt>
      <trkpt lat="41.58222" lon="9.18157">
        <ele>180</ele>
        <time>2018-05-21T10:53:52Z</time>
      </trkpt>
      <trkpt lat="41.58219" lon="9.18154">
        <ele>180.4</ele>
        <time>2018-05-21T10:53:54Z</time>
      </trkpt>
      <trkpt lat="41.58213" lon="9.18149">
        <ele>181.6</ele>
        <time>2018-05-21T10:53:58Z</time>
      </trkpt>
      <trkpt lat="41.58212" lon="9.18148">
        <ele>182</ele>
        <time>2018-05-21T10:53:59Z</time>
      </trkpt>
      <trkpt lat="41.58206" lon="9.18144">
        <ele>182.6</ele>
        <time>2018-05-21T10:54:03Z</time>
      </trkpt>
      <trkpt lat="41.58201" lon="9.18141">
        <ele>182.8</ele>
        <time>2018-05-21T10:54:06Z</time>
      </trkpt>
      <trkpt lat="41.58185" lon="9.18132">
        <ele>182.8</ele>
        <time>2018-05-21T10:54:13Z</time>
      </trkpt>
      <trkpt lat="41.58172" lon="9.18117">
        <ele>182.6</ele>
        <time>2018-05-21T10:54:20Z</time>
      </trkpt>
      <trkpt lat="41.58161" lon="9.18098">
        <ele>183.4</ele>
        <time>2018-05-21T10:54:28Z</time>
      </trkpt>
      <trkpt lat="41.58158" lon="9.18093">
        <ele>183.8</ele>
        <time>2018-05-21T10:54:30Z</time>
      </trkpt>
      <trkpt lat="41.58149" lon="9.18079">
        <ele>184.4</ele>
        <time>2018-05-21T10:54:36Z</time>
      </trkpt>
      <trkpt lat="41.58144" lon="9.18071">
        <ele>184.8</ele>
        <time>2018-05-21T10:54:40Z</time>
      </trkpt>
      <trkpt lat="41.58144" lon="9.18069">
        <ele>185</ele>
        <time>2018-05-21T10:54:41Z</time>
      </trkpt>
      <trkpt lat="41.58145" lon="9.18068">
        <ele>185</ele>
        <time>2018-05-21T10:54:42Z</time>
      </trkpt>
      <trkpt lat="41.5815" lon="9.18068">
        <ele>185.8</ele>
        <time>2018-05-21T10:54:46Z</time>
      </trkpt>
      <trkpt lat="41.5815" lon="9.18069">
        <ele>185.8</ele>
        <time>2018-05-21T10:54:47Z</time>
      </trkpt>
      <trkpt lat="41.58154" lon="9.18073">
        <ele>186</ele>
        <time>2018-05-21T10:54:50Z</time>
      </trkpt>
      <trkpt lat="41.58156" lon="9.18076">
        <ele>186.6</ele>
        <time>2018-05-21T10:54:52Z</time>
      </trkpt>
      <trkpt lat="41.58159" lon="9.18079">
        <ele>187</ele>
        <time>2018-05-21T10:54:54Z</time>
      </trkpt>
      <trkpt lat="41.58169" lon="9.18089">
        <ele>187.8</ele>
        <time>2018-05-21T10:55:00Z</time>
      </trkpt>
      <trkpt lat="41.58172" lon="9.18091">
        <ele>188</ele>
        <time>2018-05-21T10:55:02Z</time>
      </trkpt>
      <trkpt lat="41.58181" lon="9.18098">
        <ele>189.2</ele>
        <time>2018-05-21T10:55:07Z</time>
      </trkpt>
      <trkpt lat="41.58188" lon="9.18103">
        <ele>190.2</ele>
        <time>2018-05-21T10:55:11Z</time>
      </trkpt>
      <trkpt lat="41.58195" lon="9.18108">
        <ele>190.4</ele>
        <time>2018-05-21T10:55:15Z</time>
      </trkpt>
      <trkpt lat="41.58201" lon="9.1811">
        <ele>191</ele>
        <time>2018-05-21T10:55:18Z</time>
      </trkpt>
      <trkpt lat="41.58206" lon="9.18112">
        <ele>191.6</ele>
        <time>2018-05-21T10:55:21Z</time>
      </trkpt>
      <trkpt lat="41.58215" lon="9.18114">
        <ele>192.4</ele>
        <time>2018-05-21T10:55:26Z</time>
      </trkpt>
      <trkpt lat="41.58217" lon="9.18115">
        <ele>192.8</ele>
        <time>2018-05-21T10:55:27Z</time>
      </trkpt>
      <trkpt lat="41.58227" lon="9.18114">
        <ele>194</ele>
        <time>2018-05-21T10:55:32Z</time>
      </trkpt>
      <trkpt lat="41.58239" lon="9.1811">
        <ele>194.8</ele>
        <time>2018-05-21T10:55:38Z</time>
      </trkpt>
      <trkpt lat="41.5824" lon="9.18109">
        <ele>194.8</ele>
        <time>2018-05-21T10:55:39Z</time>
      </trkpt>
      <trkpt lat="41.58249" lon="9.18103">
        <ele>196</ele>
        <time>2018-05-21T10:55:44Z</time>
      </trkpt>
      <trkpt lat="41.58257" lon="9.18096">
        <ele>197.2</ele>
        <time>2018-05-21T10:55:48Z</time>
      </trkpt>
      <trkpt lat="41.58262" lon="9.18091">
        <ele>198.2</ele>
        <time>2018-05-21T10:55:51Z</time>
      </trkpt>
      <trkpt lat="41.58264" lon="9.18089">
        <ele>198.4</ele>
        <time>2018-05-21T10:55:52Z</time>
      </trkpt>
      <trkpt lat="41.58275" lon="9.1808">
        <ele>199.4</ele>
        <time>2018-05-21T10:55:58Z</time>
      </trkpt>
      <trkpt lat="41.58285" lon="9.18072">
        <ele>200.6</ele>
        <time>2018-05-21T10:56:04Z</time>
      </trkpt>
      <trkpt lat="41.5829" lon="9.18069">
        <ele>201.4</ele>
        <time>2018-05-21T10:56:07Z</time>
      </trkpt>
      <trkpt lat="41.58292" lon="9.18068">
        <ele>201.6</ele>
        <time>2018-05-21T10:56:08Z</time>
      </trkpt>
      <trkpt lat="41.58299" lon="9.18064">
        <ele>202.8</ele>
        <time>2018-05-21T10:56:12Z</time>
      </trkpt>
      <trkpt lat="41.58303" lon="9.18063">
        <ele>203.2</ele>
        <time>2018-05-21T10:56:14Z</time>
      </trkpt>
      <trkpt lat="41.58312" lon="9.18058">
        <ele>203.8</ele>
        <time>2018-05-21T10:56:19Z</time>
      </trkpt>
      <trkpt lat="41.58317" lon="9.18056">
        <ele>204.4</ele>
        <time>2018-05-21T10:56:22Z</time>
      </trkpt>
      <trkpt lat="41.5832" lon="9.18054">
        <ele>204.8</ele>
        <time>2018-05-21T10:56:24Z</time>
      </trkpt>
      <trkpt lat="41.58327" lon="9.1805">
        <ele>205.8</ele>
        <time>2018-05-21T10:56:28Z</time>
      </trkpt>
      <trkpt lat="41.58337" lon="9.18045">
        <ele>207.2</ele>
        <time>2018-05-21T10:56:33Z</time>
      </trkpt>
      <trkpt lat="41.58345" lon="9.18041">
        <ele>208.2</ele>
        <time>2018-05-21T10:56:37Z</time>
      </trkpt>
      <trkpt lat="41.5835" lon="9.18038">
        <ele>209</ele>
        <time>2018-05-21T10:56:40Z</time>
      </trkpt>
      <trkpt lat="41.58352" lon="9.18037">
        <ele>209.4</ele>
        <time>2018-05-21T10:56:41Z</time>
      </trkpt>
      <trkpt lat="41.58358" lon="9.18035">
        <ele>210.4</ele>
        <time>2018-05-21T10:56:44Z</time>
      </trkpt>
      <trkpt lat="41.58366" lon="9.18032">
        <ele>210.6</ele>
        <time>2018-05-21T10:56:48Z</time>
      </trkpt>
      <trkpt lat="41.58378" lon="9.18026">
        <ele>211.4</ele>
        <time>2018-05-21T10:56:55Z</time>
      </trkpt>
      <trkpt lat="41.58381" lon="9.18024">
        <ele>211.4</ele>
        <time>2018-05-21T10:56:57Z</time>
      </trkpt>
      <trkpt lat="41.58387" lon="9.18019">
        <ele>212</ele>
        <time>2018-05-21T10:57:02Z</time>
      </trkpt>
      <trkpt lat="41.58388" lon="9.18017">
        <ele>212.2</ele>
        <time>2018-05-21T10:57:05Z</time>
      </trkpt>
      <trkpt lat="41.58391" lon="9.18015">
        <ele>213.2</ele>
        <time>2018-05-21T11:01:25Z</time>
      </trkpt>
      <trkpt lat="41.58406" lon="9.18002">
        <ele>213</ele>
        <time>2018-05-21T11:01:33Z</time>
      </trkpt>
      <trkpt lat="41.58414" lon="9.17992">
        <ele>212.8</ele>
        <time>2018-05-21T11:01:36Z</time>
      </trkpt>
      <trkpt lat="41.58418" lon="9.17982">
        <ele>212.2</ele>
        <time>2018-05-21T11:01:38Z</time>
      </trkpt>
      <trkpt lat="41.58419" lon="9.17977">
        <ele>212</ele>
        <time>2018-05-21T11:01:39Z</time>
      </trkpt>
      <trkpt lat="41.58422" lon="9.17958">
        <ele>211.8</ele>
        <time>2018-05-21T11:01:43Z</time>
      </trkpt>
      <trkpt lat="41.58425" lon="9.17938">
        <ele>213</ele>
        <time>2018-05-21T11:01:48Z</time>
      </trkpt>
      <trkpt lat="41.58426" lon="9.17929">
        <ele>212.8</ele>
        <time>2018-05-21T11:01:50Z</time>
      </trkpt>
      <trkpt lat="41.58428" lon="9.17904">
        <ele>213.2</ele>
        <time>2018-05-21T11:01:55Z</time>
      </trkpt>
      <trkpt lat="41.58432" lon="9.17878">
        <ele>213.8</ele>
        <time>2018-05-21T11:02:01Z</time>
      </trkpt>
      <trkpt lat="41.58431" lon="9.17869">
        <ele>214.2</ele>
        <time>2018-05-21T11:02:03Z</time>
      </trkpt>
      <trkpt lat="41.58431" lon="9.17851">
        <ele>214.4</ele>
        <time>2018-05-21T11:02:07Z</time>
      </trkpt>
      <trkpt lat="41.58429" lon="9.1783">
        <ele>215.8</ele>
        <time>2018-05-21T11:02:12Z</time>
      </trkpt>
      <trkpt lat="41.58428" lon="9.1782">
        <ele>217</ele>
        <time>2018-05-21T11:02:15Z</time>
      </trkpt>
      <trkpt lat="41.58429" lon="9.17814">
        <ele>217.8</ele>
        <time>2018-05-21T11:02:17Z</time>
      </trkpt>
      <trkpt lat="41.58431" lon="9.17811">
        <ele>218.4</ele>
        <time>2018-05-21T11:02:18Z</time>
      </trkpt>
      <trkpt lat="41.58436" lon="9.17806">
        <ele>219.4</ele>
        <time>2018-05-21T11:02:21Z</time>
      </trkpt>
      <trkpt lat="41.5844" lon="9.17804">
        <ele>220.6</ele>
        <time>2018-05-21T11:02:23Z</time>
      </trkpt>
      <trkpt lat="41.58447" lon="9.17803">
        <ele>221.8</ele>
        <time>2018-05-21T11:02:26Z</time>
      </trkpt>
      <trkpt lat="41.58453" lon="9.178">
        <ele>222.8</ele>
        <time>2018-05-21T11:02:29Z</time>
      </trkpt>
      <trkpt lat="41.58458" lon="9.17794">
        <ele>224</ele>
        <time>2018-05-21T11:02:32Z</time>
      </trkpt>
      <trkpt lat="41.58462" lon="9.17787">
        <ele>225.8</ele>
        <time>2018-05-21T11:02:35Z</time>
      </trkpt>
      <trkpt lat="41.58464" lon="9.17783">
        <ele>227</ele>
        <time>2018-05-21T11:02:37Z</time>
      </trkpt>
      <trkpt lat="41.58468" lon="9.17776">
        <ele>228.2</ele>
        <time>2018-05-21T11:02:40Z</time>
      </trkpt>
      <trkpt lat="41.58471" lon="9.17768">
        <ele>229.4</ele>
        <time>2018-05-21T11:02:43Z</time>
      </trkpt>
      <trkpt lat="41.58475" lon="9.17758">
        <ele>230.6</ele>
        <time>2018-05-21T11:02:47Z</time>
      </trkpt>
      <trkpt lat="41.58476" lon="9.17752">
        <ele>231.6</ele>
        <time>2018-05-21T11:02:49Z</time>
      </trkpt>
      <trkpt lat="41.58476" lon="9.1775">
        <ele>232</ele>
        <time>2018-05-21T11:02:50Z</time>
      </trkpt>
      <trkpt lat="41.58476" lon="9.17746">
        <ele>233.2</ele>
        <time>2018-05-21T11:02:53Z</time>
      </trkpt>
      <trkpt lat="41.58476" lon="9.17746">
        <ele>233.4</ele>
        <time>2018-05-21T11:02:54Z</time>
      </trkpt>
      <trkpt lat="41.58475" lon="9.17725">
        <ele>235.4</ele>
        <time>2018-05-21T11:03:15Z</time>
      </trkpt>
      <trkpt lat="41.58475" lon="9.17707">
        <ele>236</ele>
        <time>2018-05-21T11:03:23Z</time>
      </trkpt>
      <trkpt lat="41.58478" lon="9.17687">
        <ele>235.8</ele>
        <time>2018-05-21T11:03:31Z</time>
      </trkpt>
      <trkpt lat="41.58479" lon="9.1767">
        <ele>236.6</ele>
        <time>2018-05-21T11:03:38Z</time>
      </trkpt>
      <trkpt lat="41.58479" lon="9.17667">
        <ele>236.6</ele>
        <time>2018-05-21T11:03:39Z</time>
      </trkpt>
      <trkpt lat="41.58477" lon="9.17643">
        <ele>236.2</ele>
        <time>2018-05-21T11:03:45Z</time>
      </trkpt>
      <trkpt lat="41.58475" lon="9.17626">
        <ele>235.4</ele>
        <time>2018-05-21T11:03:48Z</time>
      </trkpt>
      <trkpt lat="41.58474" lon="9.17607">
        <ele>235.4</ele>
        <time>2018-05-21T11:03:52Z</time>
      </trkpt>
      <trkpt lat="41.58478" lon="9.17584">
        <ele>235.8</ele>
        <time>2018-05-21T11:03:58Z</time>
      </trkpt>
      <trkpt lat="41.58479" lon="9.17574">
        <ele>237</ele>
        <time>2018-05-21T11:04:01Z</time>
      </trkpt>
      <trkpt lat="41.5848" lon="9.17569">
        <ele>238.2</ele>
        <time>2018-05-21T11:04:03Z</time>
      </trkpt>
      <trkpt lat="41.5848" lon="9.17566">
        <ele>238.6</ele>
        <time>2018-05-21T11:04:04Z</time>
      </trkpt>
      <trkpt lat="41.58486" lon="9.17548">
        <ele>239.2</ele>
        <time>2018-05-21T11:04:11Z</time>
      </trkpt>
      <trkpt lat="41.58488" lon="9.17545">
        <ele>239.2</ele>
        <time>2018-05-21T11:04:12Z</time>
      </trkpt>
      <trkpt lat="41.58494" lon="9.17531">
        <ele>238.8</ele>
        <time>2018-05-21T11:04:18Z</time>
      </trkpt>
      <trkpt lat="41.58494" lon="9.17519">
        <ele>239</ele>
        <time>2018-05-21T11:04:24Z</time>
      </trkpt>
      <trkpt lat="41.58499" lon="9.17511">
        <ele>239</ele>
        <time>2018-05-21T11:04:30Z</time>
      </trkpt>
      <trkpt lat="41.5851" lon="9.17509">
        <ele>240</ele>
        <time>2018-05-21T11:04:36Z</time>
      </trkpt>
      <trkpt lat="41.58514" lon="9.17508">
        <ele>240.4</ele>
        <time>2018-05-21T11:04:38Z</time>
      </trkpt>
      <trkpt lat="41.5852" lon="9.17507">
        <ele>241.4</ele>
        <time>2018-05-21T11:04:41Z</time>
      </trkpt>
      <trkpt lat="41.58524" lon="9.17507">
        <ele>242.2</ele>
        <time>2018-05-21T11:04:43Z</time>
      </trkpt>
      <trkpt lat="41.58531" lon="9.17505">
        <ele>242.6</ele>
        <time>2018-05-21T11:04:46Z</time>
      </trkpt>
      <trkpt lat="41.58538" lon="9.17504">
        <ele>243.6</ele>
        <time>2018-05-21T11:04:49Z</time>
      </trkpt>
      <trkpt lat="41.5854" lon="9.17504">
        <ele>243.8</ele>
        <time>2018-05-21T11:04:50Z</time>
      </trkpt>
      <trkpt lat="41.5855" lon="9.17497">
        <ele>244.6</ele>
        <time>2018-05-21T11:04:55Z</time>
      </trkpt>
      <trkpt lat="41.58557" lon="9.17493">
        <ele>245</ele>
        <time>2018-05-21T11:04:58Z</time>
      </trkpt>
      <trkpt lat="41.58565" lon="9.17488">
        <ele>246</ele>
        <time>2018-05-21T11:05:02Z</time>
      </trkpt>
      <trkpt lat="41.58567" lon="9.17487">
        <ele>246</ele>
        <time>2018-05-21T11:05:03Z</time>
      </trkpt>
      <trkpt lat="41.58574" lon="9.17484">
        <ele>246.4</ele>
        <time>2018-05-21T11:05:06Z</time>
      </trkpt>
      <trkpt lat="41.58586" lon="9.17475">
        <ele>246.8</ele>
        <time>2018-05-21T11:05:11Z</time>
      </trkpt>
      <trkpt lat="41.58603" lon="9.17464">
        <ele>247</ele>
        <time>2018-05-21T11:05:17Z</time>
      </trkpt>
      <trkpt lat="41.58614" lon="9.17459">
        <ele>247.2</ele>
        <time>2018-05-21T11:05:22Z</time>
      </trkpt>
      <trkpt lat="41.58614" lon="9.17459">
        <ele>247.4</ele>
        <time>2018-05-21T11:05:24Z</time>
      </trkpt>
      <trkpt lat="41.58634" lon="9.17423">
        <ele>256</ele>
        <time>2018-05-21T11:06:15Z</time>
      </trkpt>
      <trkpt lat="41.58634" lon="9.17421">
        <ele>256</ele>
        <time>2018-05-21T11:06:16Z</time>
      </trkpt>
      <trkpt lat="41.58636" lon="9.17414">
        <ele>256.4</ele>
        <time>2018-05-21T11:06:19Z</time>
      </trkpt>
      <trkpt lat="41.58638" lon="9.17404">
        <ele>257</ele>
        <time>2018-05-21T11:06:23Z</time>
      </trkpt>
      <trkpt lat="41.58639" lon="9.17401">
        <ele>257.2</ele>
        <time>2018-05-21T11:06:24Z</time>
      </trkpt>
      <trkpt lat="41.58644" lon="9.17386">
        <ele>257.8</ele>
        <time>2018-05-21T11:06:30Z</time>
      </trkpt>
      <trkpt lat="41.58646" lon="9.17384">
        <ele>258</ele>
        <time>2018-05-21T11:06:31Z</time>
      </trkpt>
      <trkpt lat="41.5865" lon="9.17377">
        <ele>259.2</ele>
        <time>2018-05-21T11:06:34Z</time>
      </trkpt>
      <trkpt lat="41.58652" lon="9.17368">
        <ele>260.4</ele>
        <time>2018-05-21T11:06:37Z</time>
      </trkpt>
      <trkpt lat="41.58652" lon="9.17365">
        <ele>260.8</ele>
        <time>2018-05-21T11:06:38Z</time>
      </trkpt>
      <trkpt lat="41.5865" lon="9.17359">
        <ele>261.6</ele>
        <time>2018-05-21T11:06:40Z</time>
      </trkpt>
      <trkpt lat="41.58649" lon="9.17353">
        <ele>262.8</ele>
        <time>2018-05-21T11:06:42Z</time>
      </trkpt>
      <trkpt lat="41.58646" lon="9.17345">
        <ele>264.2</ele>
        <time>2018-05-21T11:06:45Z</time>
      </trkpt>
      <trkpt lat="41.58643" lon="9.17335">
        <ele>265.2</ele>
        <time>2018-05-21T11:06:50Z</time>
      </trkpt>
      <trkpt lat="41.58643" lon="9.17334">
        <ele>265.4</ele>
        <time>2018-05-21T11:06:51Z</time>
      </trkpt>
      <trkpt lat="41.58641" lon="9.17331">
        <ele>265.8</ele>
        <time>2018-05-21T11:06:56Z</time>
      </trkpt>
      <trkpt lat="41.58641" lon="9.17326">
        <ele>265.4</ele>
        <time>2018-05-21T11:08:57Z</time>
      </trkpt>
      <trkpt lat="41.58638" lon="9.17321">
        <ele>265.4</ele>
        <time>2018-05-21T11:08:59Z</time>
      </trkpt>
      <trkpt lat="41.58627" lon="9.17307">
        <ele>264.6</ele>
        <time>2018-05-21T11:09:03Z</time>
      </trkpt>
      <trkpt lat="41.58617" lon="9.17287">
        <ele>264</ele>
        <time>2018-05-21T11:09:06Z</time>
      </trkpt>
      <trkpt lat="41.58615" lon="9.17279">
        <ele>263.6</ele>
        <time>2018-05-21T11:09:07Z</time>
      </trkpt>
      <trkpt lat="41.58612" lon="9.1726">
        <ele>262.4</ele>
        <time>2018-05-21T11:09:09Z</time>
      </trkpt>
      <trkpt lat="41.58611" lon="9.17239">
        <ele>261.2</ele>
        <time>2018-05-21T11:09:11Z</time>
      </trkpt>
      <trkpt lat="41.5861" lon="9.17229">
        <ele>260.6</ele>
        <time>2018-05-21T11:09:12Z</time>
      </trkpt>
      <trkpt lat="41.58607" lon="9.17219">
        <ele>260</ele>
        <time>2018-05-21T11:09:13Z</time>
      </trkpt>
      <trkpt lat="41.58603" lon="9.17209">
        <ele>259.8</ele>
        <time>2018-05-21T11:09:14Z</time>
      </trkpt>
      <trkpt lat="41.58591" lon="9.17193">
        <ele>258.8</ele>
        <time>2018-05-21T11:09:16Z</time>
      </trkpt>
      <trkpt lat="41.58578" lon="9.17176">
        <ele>257.6</ele>
        <time>2018-05-21T11:09:18Z</time>
      </trkpt>
      <trkpt lat="41.58564" lon="9.17158">
        <ele>256.2</ele>
        <time>2018-05-21T11:09:20Z</time>
      </trkpt>
      <trkpt lat="41.58552" lon="9.17138">
        <ele>255</ele>
        <time>2018-05-21T11:09:22Z</time>
      </trkpt>
      <trkpt lat="41.58546" lon="9.17128">
        <ele>254</ele>
        <time>2018-05-21T11:09:23Z</time>
      </trkpt>
      <trkpt lat="41.58539" lon="9.17117">
        <ele>253.2</ele>
        <time>2018-05-21T11:09:24Z</time>
      </trkpt>
      <trkpt lat="41.58525" lon="9.17098">
        <ele>251.6</ele>
        <time>2018-05-21T11:09:26Z</time>
      </trkpt>
      <trkpt lat="41.5851" lon="9.17082">
        <ele>250.2</ele>
        <time>2018-05-21T11:09:28Z</time>
      </trkpt>
      <trkpt lat="41.58492" lon="9.17073">
        <ele>248.6</ele>
        <time>2018-05-21T11:09:30Z</time>
      </trkpt>
      <trkpt lat="41.58483" lon="9.17073">
        <ele>248</ele>
        <time>2018-05-21T11:09:31Z</time>
      </trkpt>
      <trkpt lat="41.58474" lon="9.17076">
        <ele>247.2</ele>
        <time>2018-05-21T11:09:32Z</time>
      </trkpt>
      <trkpt lat="41.58465" lon="9.17079">
        <ele>246</ele>
        <time>2018-05-21T11:09:33Z</time>
      </trkpt>
      <trkpt lat="41.58456" lon="9.17081">
        <ele>245.4</ele>
        <time>2018-05-21T11:09:34Z</time>
      </trkpt>
      <trkpt lat="41.58447" lon="9.17081">
        <ele>244.8</ele>
        <time>2018-05-21T11:09:35Z</time>
      </trkpt>
      <trkpt lat="41.58438" lon="9.17077">
        <ele>243.8</ele>
        <time>2018-05-21T11:09:36Z</time>
      </trkpt>
      <trkpt lat="41.58429" lon="9.1707">
        <ele>242.8</ele>
        <time>2018-05-21T11:09:37Z</time>
      </trkpt>
      <trkpt lat="41.58414" lon="9.17053">
        <ele>241.6</ele>
        <time>2018-05-21T11:09:39Z</time>
      </trkpt>
      <trkpt lat="41.58398" lon="9.17034">
        <ele>239.2</ele>
        <time>2018-05-21T11:09:41Z</time>
      </trkpt>
      <trkpt lat="41.58382" lon="9.17014">
        <ele>237.6</ele>
        <time>2018-05-21T11:09:43Z</time>
      </trkpt>
      <trkpt lat="41.58367" lon="9.16996">
        <ele>236</ele>
        <time>2018-05-21T11:09:45Z</time>
      </trkpt>
      <trkpt lat="41.58353" lon="9.16978">
        <ele>234.2</ele>
        <time>2018-05-21T11:09:47Z</time>
      </trkpt>
      <trkpt lat="41.58344" lon="9.16957">
        <ele>232.4</ele>
        <time>2018-05-21T11:09:49Z</time>
      </trkpt>
      <trkpt lat="41.58335" lon="9.1694">
        <ele>230.6</ele>
        <time>2018-05-21T11:09:51Z</time>
      </trkpt>
      <trkpt lat="41.58328" lon="9.16935">
        <ele>230</ele>
        <time>2018-05-21T11:09:52Z</time>
      </trkpt>
      <trkpt lat="41.58321" lon="9.16932">
        <ele>229.4</ele>
        <time>2018-05-21T11:09:53Z</time>
      </trkpt>
      <trkpt lat="41.58308" lon="9.1693">
        <ele>227.8</ele>
        <time>2018-05-21T11:09:55Z</time>
      </trkpt>
      <trkpt lat="41.58301" lon="9.16929">
        <ele>227.2</ele>
        <time>2018-05-21T11:09:56Z</time>
      </trkpt>
      <trkpt lat="41.58295" lon="9.16929">
        <ele>226.6</ele>
        <time>2018-05-21T11:09:57Z</time>
      </trkpt>
      <trkpt lat="41.58284" lon="9.16928">
        <ele>225.8</ele>
        <time>2018-05-21T11:09:59Z</time>
      </trkpt>
      <trkpt lat="41.5828" lon="9.16927">
        <ele>225.6</ele>
        <time>2018-05-21T11:10:00Z</time>
      </trkpt>
      <trkpt lat="41.58272" lon="9.16923">
        <ele>224.8</ele>
        <time>2018-05-21T11:10:03Z</time>
      </trkpt>
      <trkpt lat="41.58271" lon="9.16923">
        <ele>224.4</ele>
        <time>2018-05-21T11:10:04Z</time>
      </trkpt>
      <trkpt lat="41.5827" lon="9.16923">
        <ele>224.4</ele>
        <time>2018-05-21T11:10:05Z</time>
      </trkpt>
      <trkpt lat="41.58267" lon="9.16921">
        <ele>224.4</ele>
        <time>2018-05-21T11:10:07Z</time>
      </trkpt>
      <trkpt lat="41.58261" lon="9.16924">
        <ele>224.4</ele>
        <time>2018-05-21T11:10:12Z</time>
      </trkpt>
      <trkpt lat="41.58255" lon="9.16929">
        <ele>224.6</ele>
        <time>2018-05-21T11:10:17Z</time>
      </trkpt>
      <trkpt lat="41.58251" lon="9.16939">
        <ele>225</ele>
        <time>2018-05-21T11:10:22Z</time>
      </trkpt>
      <trkpt lat="41.58248" lon="9.16943">
        <ele>225.4</ele>
        <time>2018-05-21T11:10:24Z</time>
      </trkpt>
      <trkpt lat="41.58239" lon="9.16953">
        <ele>226.4</ele>
        <time>2018-05-21T11:10:30Z</time>
      </trkpt>
      <trkpt lat="41.58237" lon="9.16955">
        <ele>226.6</ele>
        <time>2018-05-21T11:10:31Z</time>
      </trkpt>
      <trkpt lat="41.58227" lon="9.16964">
        <ele>227.4</ele>
        <time>2018-05-21T11:10:37Z</time>
      </trkpt>
      <trkpt lat="41.58222" lon="9.16968">
        <ele>227.8</ele>
        <time>2018-05-21T11:10:40Z</time>
      </trkpt>
      <trkpt lat="41.58218" lon="9.16969">
        <ele>228.2</ele>
        <time>2018-05-21T11:10:42Z</time>
      </trkpt>
      <trkpt lat="41.58216" lon="9.16967">
        <ele>228.2</ele>
        <time>2018-05-21T11:10:43Z</time>
      </trkpt>
      <trkpt lat="41.58201" lon="9.16959">
        <ele>228.6</ele>
        <time>2018-05-21T11:10:50Z</time>
      </trkpt>
      <trkpt lat="41.58196" lon="9.16952">
        <ele>229</ele>
        <time>2018-05-21T11:10:53Z</time>
      </trkpt>
      <trkpt lat="41.58191" lon="9.16946">
        <ele>229.4</ele>
        <time>2018-05-21T11:10:56Z</time>
      </trkpt>
      <trkpt lat="41.58185" lon="9.1694">
        <ele>230</ele>
        <time>2018-05-21T11:10:59Z</time>
      </trkpt>
      <trkpt lat="41.58177" lon="9.16932">
        <ele>231.2</ele>
        <time>2018-05-21T11:11:03Z</time>
      </trkpt>
      <trkpt lat="41.58174" lon="9.16928">
        <ele>231.4</ele>
        <time>2018-05-21T11:11:05Z</time>
      </trkpt>
      <trkpt lat="41.5817" lon="9.1692">
        <ele>232.4</ele>
        <time>2018-05-21T11:11:08Z</time>
      </trkpt>
      <trkpt lat="41.58167" lon="9.16907">
        <ele>233</ele>
        <time>2018-05-21T11:11:12Z</time>
      </trkpt>
      <trkpt lat="41.58164" lon="9.16896">
        <ele>233.4</ele>
        <time>2018-05-21T11:11:16Z</time>
      </trkpt>
      <trkpt lat="41.5816" lon="9.16885">
        <ele>234.4</ele>
        <time>2018-05-21T11:11:20Z</time>
      </trkpt>
      <trkpt lat="41.58159" lon="9.16873">
        <ele>235.4</ele>
        <time>2018-05-21T11:11:24Z</time>
      </trkpt>
      <trkpt lat="41.58159" lon="9.16867">
        <ele>235.8</ele>
        <time>2018-05-21T11:11:26Z</time>
      </trkpt>
      <trkpt lat="41.58159" lon="9.1685">
        <ele>236.6</ele>
        <time>2018-05-21T11:11:31Z</time>
      </trkpt>
      <trkpt lat="41.5816" lon="9.16844">
        <ele>237</ele>
        <time>2018-05-21T11:11:33Z</time>
      </trkpt>
      <trkpt lat="41.58161" lon="9.16837">
        <ele>237.6</ele>
        <time>2018-05-21T11:11:35Z</time>
      </trkpt>
      <trkpt lat="41.58166" lon="9.16819">
        <ele>238.4</ele>
        <time>2018-05-21T11:11:41Z</time>
      </trkpt>
      <trkpt lat="41.58168" lon="9.16817">
        <ele>238.6</ele>
        <time>2018-05-21T11:11:42Z</time>
      </trkpt>
      <trkpt lat="41.58174" lon="9.16805">
        <ele>239.4</ele>
        <time>2018-05-21T11:11:47Z</time>
      </trkpt>
      <trkpt lat="41.58176" lon="9.16802">
        <ele>239.6</ele>
        <time>2018-05-21T11:11:48Z</time>
      </trkpt>
      <trkpt lat="41.5818" lon="9.16787">
        <ele>240.2</ele>
        <time>2018-05-21T11:11:53Z</time>
      </trkpt>
      <trkpt lat="41.58181" lon="9.16778">
        <ele>240.6</ele>
        <time>2018-05-21T11:11:56Z</time>
      </trkpt>
      <trkpt lat="41.58184" lon="9.16766">
        <ele>241.8</ele>
        <time>2018-05-21T11:12:00Z</time>
      </trkpt>
      <trkpt lat="41.58182" lon="9.16749">
        <ele>242.8</ele>
        <time>2018-05-21T11:12:06Z</time>
      </trkpt>
      <trkpt lat="41.58175" lon="9.16736">
        <ele>243.8</ele>
        <time>2018-05-21T11:12:12Z</time>
      </trkpt>
      <trkpt lat="41.58174" lon="9.16734">
        <ele>244.2</ele>
        <time>2018-05-21T11:12:13Z</time>
      </trkpt>
      <trkpt lat="41.58167" lon="9.16722">
        <ele>244.6</ele>
        <time>2018-05-21T11:12:18Z</time>
      </trkpt>
      <trkpt lat="41.58162" lon="9.16718">
        <ele>245.2</ele>
        <time>2018-05-21T11:12:21Z</time>
      </trkpt>
      <trkpt lat="41.58156" lon="9.16714">
        <ele>245.6</ele>
        <time>2018-05-21T11:12:24Z</time>
      </trkpt>
      <trkpt lat="41.58144" lon="9.16706">
        <ele>246.4</ele>
        <time>2018-05-21T11:12:30Z</time>
      </trkpt>
      <trkpt lat="41.58132" lon="9.16698">
        <ele>247.4</ele>
        <time>2018-05-21T11:12:36Z</time>
      </trkpt>
      <trkpt lat="41.58126" lon="9.16693">
        <ele>248</ele>
        <time>2018-05-21T11:12:39Z</time>
      </trkpt>
      <trkpt lat="41.58118" lon="9.16688">
        <ele>248.8</ele>
        <time>2018-05-21T11:12:43Z</time>
      </trkpt>
      <trkpt lat="41.58117" lon="9.16687">
        <ele>249.2</ele>
        <time>2018-05-21T11:12:44Z</time>
      </trkpt>
      <trkpt lat="41.58108" lon="9.16679">
        <ele>250</ele>
        <time>2018-05-21T11:12:49Z</time>
      </trkpt>
      <trkpt lat="41.58107" lon="9.16678">
        <ele>250.2</ele>
        <time>2018-05-21T11:12:50Z</time>
      </trkpt>
      <trkpt lat="41.58098" lon="9.16674">
        <ele>251.2</ele>
        <time>2018-05-21T11:12:54Z</time>
      </trkpt>
      <trkpt lat="41.58095" lon="9.1667">
        <ele>251.4</ele>
        <time>2018-05-21T11:12:56Z</time>
      </trkpt>
      <trkpt lat="41.58088" lon="9.1666">
        <ele>252.4</ele>
        <time>2018-05-21T11:13:01Z</time>
      </trkpt>
      <trkpt lat="41.58085" lon="9.16656">
        <ele>252.8</ele>
        <time>2018-05-21T11:13:03Z</time>
      </trkpt>
      <trkpt lat="41.58075" lon="9.1665">
        <ele>253.6</ele>
        <time>2018-05-21T11:13:08Z</time>
      </trkpt>
      <trkpt lat="41.58073" lon="9.16648">
        <ele>254</ele>
        <time>2018-05-21T11:13:09Z</time>
      </trkpt>
      <trkpt lat="41.58065" lon="9.16639">
        <ele>254.8</ele>
        <time>2018-05-21T11:13:14Z</time>
      </trkpt>
      <trkpt lat="41.58062" lon="9.16635">
        <ele>255</ele>
        <time>2018-05-21T11:13:16Z</time>
      </trkpt>
      <trkpt lat="41.58055" lon="9.16627">
        <ele>255.6</ele>
        <time>2018-05-21T11:13:20Z</time>
      </trkpt>
      <trkpt lat="41.5805" lon="9.16625">
        <ele>255.8</ele>
        <time>2018-05-21T11:13:22Z</time>
      </trkpt>
      <trkpt lat="41.58042" lon="9.1662">
        <ele>256.4</ele>
        <time>2018-05-21T11:13:26Z</time>
      </trkpt>
      <trkpt lat="41.58034" lon="9.16613">
        <ele>257</ele>
        <time>2018-05-21T11:13:30Z</time>
      </trkpt>
      <trkpt lat="41.58028" lon="9.16608">
        <ele>257.6</ele>
        <time>2018-05-21T11:13:33Z</time>
      </trkpt>
      <trkpt lat="41.58022" lon="9.16597">
        <ele>258</ele>
        <time>2018-05-21T11:13:37Z</time>
      </trkpt>
      <trkpt lat="41.58015" lon="9.16589">
        <ele>258.8</ele>
        <time>2018-05-21T11:13:41Z</time>
      </trkpt>
      <trkpt lat="41.58012" lon="9.16585">
        <ele>259.2</ele>
        <time>2018-05-21T11:13:43Z</time>
      </trkpt>
      <trkpt lat="41.58008" lon="9.16575">
        <ele>260</ele>
        <time>2018-05-21T11:13:47Z</time>
      </trkpt>
      <trkpt lat="41.58006" lon="9.16573">
        <ele>260.2</ele>
        <time>2018-05-21T11:13:48Z</time>
      </trkpt>
      <trkpt lat="41.57996" lon="9.16562">
        <ele>261</ele>
        <time>2018-05-21T11:13:54Z</time>
      </trkpt>
      <trkpt lat="41.57991" lon="9.16559">
        <ele>261.2</ele>
        <time>2018-05-21T11:13:56Z</time>
      </trkpt>
      <trkpt lat="41.5798" lon="9.16552">
        <ele>262.4</ele>
        <time>2018-05-21T11:14:02Z</time>
      </trkpt>
      <trkpt lat="41.57978" lon="9.1655">
        <ele>262.4</ele>
        <time>2018-05-21T11:14:03Z</time>
      </trkpt>
      <trkpt lat="41.57972" lon="9.16546">
        <ele>263.4</ele>
        <time>2018-05-21T11:14:07Z</time>
      </trkpt>
      <trkpt lat="41.57965" lon="9.1654">
        <ele>263.8</ele>
        <time>2018-05-21T11:14:10Z</time>
      </trkpt>
      <trkpt lat="41.57958" lon="9.16533">
        <ele>264.4</ele>
        <time>2018-05-21T11:14:14Z</time>
      </trkpt>
      <trkpt lat="41.57953" lon="9.1653">
        <ele>265</ele>
        <time>2018-05-21T11:14:16Z</time>
      </trkpt>
      <trkpt lat="41.57949" lon="9.16526">
        <ele>265.6</ele>
        <time>2018-05-21T11:14:18Z</time>
      </trkpt>
      <trkpt lat="41.57945" lon="9.16519">
        <ele>266</ele>
        <time>2018-05-21T11:14:21Z</time>
      </trkpt>
      <trkpt lat="41.5794" lon="9.1651">
        <ele>266.6</ele>
        <time>2018-05-21T11:14:25Z</time>
      </trkpt>
      <trkpt lat="41.57939" lon="9.16505">
        <ele>266.8</ele>
        <time>2018-05-21T11:14:27Z</time>
      </trkpt>
      <trkpt lat="41.57937" lon="9.16497">
        <ele>267.2</ele>
        <time>2018-05-21T11:14:31Z</time>
      </trkpt>
      <trkpt lat="41.57936" lon="9.16495">
        <ele>267.4</ele>
        <time>2018-05-21T11:14:32Z</time>
      </trkpt>
      <trkpt lat="41.57934" lon="9.16493">
        <ele>267.8</ele>
        <time>2018-05-21T11:14:34Z</time>
      </trkpt>
      <trkpt lat="41.57933" lon="9.16491">
        <ele>267.8</ele>
        <time>2018-05-21T11:14:35Z</time>
      </trkpt>
      <trkpt lat="41.57928" lon="9.16486">
        <ele>268.2</ele>
        <time>2018-05-21T11:14:38Z</time>
      </trkpt>
      <trkpt lat="41.57922" lon="9.16477">
        <ele>268.8</ele>
        <time>2018-05-21T11:14:43Z</time>
      </trkpt>
      <trkpt lat="41.57918" lon="9.16471">
        <ele>269.2</ele>
        <time>2018-05-21T11:14:46Z</time>
      </trkpt>
      <trkpt lat="41.57906" lon="9.16458">
        <ele>269.8</ele>
        <time>2018-05-21T11:14:53Z</time>
      </trkpt>
      <trkpt lat="41.57903" lon="9.16457">
        <ele>269.8</ele>
        <time>2018-05-21T11:14:54Z</time>
      </trkpt>
      <trkpt lat="41.57893" lon="9.16451">
        <ele>271</ele>
        <time>2018-05-21T11:14:59Z</time>
      </trkpt>
      <trkpt lat="41.57891" lon="9.16449">
        <ele>271.2</ele>
        <time>2018-05-21T11:15:00Z</time>
      </trkpt>
      <trkpt lat="41.57882" lon="9.16439">
        <ele>272.2</ele>
        <time>2018-05-21T11:15:06Z</time>
      </trkpt>
      <trkpt lat="41.57881" lon="9.16437">
        <ele>272.4</ele>
        <time>2018-05-21T11:15:07Z</time>
      </trkpt>
      <trkpt lat="41.57872" lon="9.16428">
        <ele>273.2</ele>
        <time>2018-05-21T11:15:12Z</time>
      </trkpt>
      <trkpt lat="41.5787" lon="9.16427">
        <ele>273.4</ele>
        <time>2018-05-21T11:15:13Z</time>
      </trkpt>
      <trkpt lat="41.57862" lon="9.16424">
        <ele>274.4</ele>
        <time>2018-05-21T11:15:17Z</time>
      </trkpt>
      <trkpt lat="41.57854" lon="9.16422">
        <ele>275</ele>
        <time>2018-05-21T11:15:21Z</time>
      </trkpt>
      <trkpt lat="41.57845" lon="9.16423">
        <ele>275.6</ele>
        <time>2018-05-21T11:15:25Z</time>
      </trkpt>
      <trkpt lat="41.57841" lon="9.16422">
        <ele>275.8</ele>
        <time>2018-05-21T11:15:27Z</time>
      </trkpt>
      <trkpt lat="41.57828" lon="9.16421">
        <ele>276.4</ele>
        <time>2018-05-21T11:15:33Z</time>
      </trkpt>
      <trkpt lat="41.57824" lon="9.16419">
        <ele>277</ele>
        <time>2018-05-21T11:15:35Z</time>
      </trkpt>
      <trkpt lat="41.57815" lon="9.16416">
        <ele>277.4</ele>
        <time>2018-05-21T11:15:39Z</time>
      </trkpt>
      <trkpt lat="41.5781" lon="9.16414">
        <ele>277.8</ele>
        <time>2018-05-21T11:15:41Z</time>
      </trkpt>
      <trkpt lat="41.57796" lon="9.16412">
        <ele>278.6</ele>
        <time>2018-05-21T11:15:47Z</time>
      </trkpt>
      <trkpt lat="41.57794" lon="9.16412">
        <ele>278.8</ele>
        <time>2018-05-21T11:15:48Z</time>
      </trkpt>
      <trkpt lat="41.57783" lon="9.16409">
        <ele>279.8</ele>
        <time>2018-05-21T11:15:54Z</time>
      </trkpt>
      <trkpt lat="41.57781" lon="9.16409">
        <ele>280</ele>
        <time>2018-05-21T11:15:55Z</time>
      </trkpt>
      <trkpt lat="41.57774" lon="9.16405">
        <ele>281</ele>
        <time>2018-05-21T11:15:59Z</time>
      </trkpt>
      <trkpt lat="41.57771" lon="9.16403">
        <ele>281.4</ele>
        <time>2018-05-21T11:16:01Z</time>
      </trkpt>
      <trkpt lat="41.57767" lon="9.16399">
        <ele>282</ele>
        <time>2018-05-21T11:16:04Z</time>
      </trkpt>
      <trkpt lat="41.57761" lon="9.16394">
        <ele>282.6</ele>
        <time>2018-05-21T11:16:07Z</time>
      </trkpt>
      <trkpt lat="41.57757" lon="9.16393">
        <ele>283.2</ele>
        <time>2018-05-21T11:16:09Z</time>
      </trkpt>
      <trkpt lat="41.5775" lon="9.16389">
        <ele>284</ele>
        <time>2018-05-21T11:16:13Z</time>
      </trkpt>
      <trkpt lat="41.57747" lon="9.16386">
        <ele>284.4</ele>
        <time>2018-05-21T11:16:15Z</time>
      </trkpt>
      <trkpt lat="41.57743" lon="9.16378">
        <ele>284.6</ele>
        <time>2018-05-21T11:16:19Z</time>
      </trkpt>
      <trkpt lat="41.57734" lon="9.16363">
        <ele>285</ele>
        <time>2018-05-21T11:16:26Z</time>
      </trkpt>
      <trkpt lat="41.57728" lon="9.1636">
        <ele>285.4</ele>
        <time>2018-05-21T11:16:30Z</time>
      </trkpt>
      <trkpt lat="41.57723" lon="9.16358">
        <ele>285.8</ele>
        <time>2018-05-21T11:16:33Z</time>
      </trkpt>
      <trkpt lat="41.5771" lon="9.16353">
        <ele>286.6</ele>
        <time>2018-05-21T11:16:40Z</time>
      </trkpt>
      <trkpt lat="41.57697" lon="9.1634">
        <ele>287</ele>
        <time>2018-05-21T11:16:48Z</time>
      </trkpt>
      <trkpt lat="41.57692" lon="9.16334">
        <ele>287.6</ele>
        <time>2018-05-21T11:16:51Z</time>
      </trkpt>
      <trkpt lat="41.57684" lon="9.16321">
        <ele>288.2</ele>
        <time>2018-05-21T11:16:57Z</time>
      </trkpt>
      <trkpt lat="41.57679" lon="9.16315">
        <ele>288.4</ele>
        <time>2018-05-21T11:17:00Z</time>
      </trkpt>
      <trkpt lat="41.57671" lon="9.16303">
        <ele>289.2</ele>
        <time>2018-05-21T11:17:06Z</time>
      </trkpt>
      <trkpt lat="41.57668" lon="9.16299">
        <ele>289.6</ele>
        <time>2018-05-21T11:17:08Z</time>
      </trkpt>
      <trkpt lat="41.57662" lon="9.16292">
        <ele>290.6</ele>
        <time>2018-05-21T11:17:12Z</time>
      </trkpt>
      <trkpt lat="41.57658" lon="9.16286">
        <ele>291.2</ele>
        <time>2018-05-21T11:17:15Z</time>
      </trkpt>
      <trkpt lat="41.57655" lon="9.16279">
        <ele>291.8</ele>
        <time>2018-05-21T11:17:18Z</time>
      </trkpt>
      <trkpt lat="41.5765" lon="9.1627">
        <ele>292.4</ele>
        <time>2018-05-21T11:17:22Z</time>
      </trkpt>
      <trkpt lat="41.57647" lon="9.16263">
        <ele>292.8</ele>
        <time>2018-05-21T11:17:25Z</time>
      </trkpt>
      <trkpt lat="41.57641" lon="9.1625">
        <ele>293</ele>
        <time>2018-05-21T11:17:30Z</time>
      </trkpt>
      <trkpt lat="41.57633" lon="9.16235">
        <ele>293.8</ele>
        <time>2018-05-21T11:17:36Z</time>
      </trkpt>
      <trkpt lat="41.57625" lon="9.16217">
        <ele>295</ele>
        <time>2018-05-21T11:17:43Z</time>
      </trkpt>
      <trkpt lat="41.57622" lon="9.16212">
        <ele>295.2</ele>
        <time>2018-05-21T11:17:45Z</time>
      </trkpt>
      <trkpt lat="41.57615" lon="9.162">
        <ele>296</ele>
        <time>2018-05-21T11:17:50Z</time>
      </trkpt>
      <trkpt lat="41.57614" lon="9.16197">
        <ele>296.4</ele>
        <time>2018-05-21T11:17:51Z</time>
      </trkpt>
      <trkpt lat="41.57611" lon="9.1619">
        <ele>297.2</ele>
        <time>2018-05-21T11:17:54Z</time>
      </trkpt>
      <trkpt lat="41.57607" lon="9.1618">
        <ele>298</ele>
        <time>2018-05-21T11:17:58Z</time>
      </trkpt>
      <trkpt lat="41.57605" lon="9.16171">
        <ele>298.2</ele>
        <time>2018-05-21T11:18:01Z</time>
      </trkpt>
      <trkpt lat="41.57603" lon="9.16157">
        <ele>299</ele>
        <time>2018-05-21T11:18:06Z</time>
      </trkpt>
      <trkpt lat="41.57602" lon="9.16155">
        <ele>299.2</ele>
        <time>2018-05-21T11:18:07Z</time>
      </trkpt>
      <trkpt lat="41.57597" lon="9.16144">
        <ele>299.6</ele>
        <time>2018-05-21T11:18:12Z</time>
      </trkpt>
      <trkpt lat="41.57596" lon="9.16143">
        <ele>299.8</ele>
        <time>2018-05-21T11:18:13Z</time>
      </trkpt>
      <trkpt lat="41.57591" lon="9.16144">
        <ele>300.2</ele>
        <time>2018-05-21T11:18:15Z</time>
      </trkpt>
      <trkpt lat="41.5759" lon="9.16146">
        <ele>300.4</ele>
        <time>2018-05-21T11:18:16Z</time>
      </trkpt>
      <trkpt lat="41.57588" lon="9.16148">
        <ele>300.6</ele>
        <time>2018-05-21T11:18:17Z</time>
      </trkpt>
      <trkpt lat="41.57586" lon="9.16152">
        <ele>300.8</ele>
        <time>2018-05-21T11:18:19Z</time>
      </trkpt>
      <trkpt lat="41.57584" lon="9.16163">
        <ele>301.6</ele>
        <time>2018-05-21T11:18:23Z</time>
      </trkpt>
      <trkpt lat="41.57581" lon="9.1618">
        <ele>302.4</ele>
        <time>2018-05-21T11:18:29Z</time>
      </trkpt>
      <trkpt lat="41.5758" lon="9.16183">
        <ele>302.6</ele>
        <time>2018-05-21T11:18:30Z</time>
      </trkpt>
      <trkpt lat="41.57579" lon="9.16198">
        <ele>303.6</ele>
        <time>2018-05-21T11:18:35Z</time>
      </trkpt>
      <trkpt lat="41.57578" lon="9.16201">
        <ele>303.8</ele>
        <time>2018-05-21T11:18:36Z</time>
      </trkpt>
      <trkpt lat="41.57577" lon="9.16219">
        <ele>304.8</ele>
        <time>2018-05-21T11:18:42Z</time>
      </trkpt>
      <trkpt lat="41.57577" lon="9.16222">
        <ele>304.8</ele>
        <time>2018-05-21T11:18:43Z</time>
      </trkpt>
      <trkpt lat="41.57576" lon="9.1624">
        <ele>305.8</ele>
        <time>2018-05-21T11:18:49Z</time>
      </trkpt>
      <trkpt lat="41.57576" lon="9.16243">
        <ele>306</ele>
        <time>2018-05-21T11:18:50Z</time>
      </trkpt>
      <trkpt lat="41.57573" lon="9.16258">
        <ele>307</ele>
        <time>2018-05-21T11:18:55Z</time>
      </trkpt>
      <trkpt lat="41.57573" lon="9.16261">
        <ele>307</ele>
        <time>2018-05-21T11:18:56Z</time>
      </trkpt>
      <trkpt lat="41.57571" lon="9.16283">
        <ele>308</ele>
        <time>2018-05-21T11:19:03Z</time>
      </trkpt>
      <trkpt lat="41.57571" lon="9.16287">
        <ele>308.2</ele>
        <time>2018-05-21T11:19:04Z</time>
      </trkpt>
      <trkpt lat="41.57573" lon="9.16302">
        <ele>309.4</ele>
        <time>2018-05-21T11:19:09Z</time>
      </trkpt>
      <trkpt lat="41.57575" lon="9.1632">
        <ele>310.4</ele>
        <time>2018-05-21T11:19:15Z</time>
      </trkpt>
      <trkpt lat="41.57575" lon="9.16323">
        <ele>310.6</ele>
        <time>2018-05-21T11:19:16Z</time>
      </trkpt>
      <trkpt lat="41.5757" lon="9.16343">
        <ele>311.4</ele>
        <time>2018-05-21T11:19:23Z</time>
      </trkpt>
      <trkpt lat="41.5757" lon="9.16346">
        <ele>311.2</ele>
        <time>2018-05-21T11:19:24Z</time>
      </trkpt>
      <trkpt lat="41.57564" lon="9.16362">
        <ele>312.2</ele>
        <time>2018-05-21T11:19:30Z</time>
      </trkpt>
      <trkpt lat="41.57563" lon="9.16367">
        <ele>312.6</ele>
        <time>2018-05-21T11:19:32Z</time>
      </trkpt>
      <trkpt lat="41.57556" lon="9.16381">
        <ele>313.2</ele>
        <time>2018-05-21T11:19:39Z</time>
      </trkpt>
      <trkpt lat="41.57555" lon="9.16382">
        <ele>313.2</ele>
        <time>2018-05-21T11:19:40Z</time>
      </trkpt>
      <trkpt lat="41.57553" lon="9.16386">
        <ele>313.4</ele>
        <time>2018-05-21T11:19:43Z</time>
      </trkpt>
      <trkpt lat="41.57551" lon="9.16387">
        <ele>313.4</ele>
        <time>2018-05-21T11:19:45Z</time>
      </trkpt>
      <trkpt lat="41.57549" lon="9.16388">
        <ele>313.4</ele>
        <time>2018-05-21T11:19:47Z</time>
      </trkpt>
      <trkpt lat="41.57546" lon="9.16393">
        <ele>313.8</ele>
        <time>2018-05-21T11:19:51Z</time>
      </trkpt>
      <trkpt lat="41.57544" lon="9.16396">
        <ele>313.8</ele>
        <time>2018-05-21T11:19:54Z</time>
      </trkpt>
      <trkpt lat="41.57542" lon="9.16398">
        <ele>313.8</ele>
        <time>2018-05-21T11:19:56Z</time>
      </trkpt>
      <trkpt lat="41.57537" lon="9.16407">
        <ele>314.2</ele>
        <time>2018-05-21T11:20:00Z</time>
      </trkpt>
      <trkpt lat="41.57534" lon="9.16414">
        <ele>314.4</ele>
        <time>2018-05-21T11:20:03Z</time>
      </trkpt>
      <trkpt lat="41.57527" lon="9.16431">
        <ele>313.8</ele>
        <time>2018-05-21T11:20:09Z</time>
      </trkpt>
      <trkpt lat="41.57519" lon="9.16444">
        <ele>313.2</ele>
        <time>2018-05-21T11:20:13Z</time>
      </trkpt>
      <trkpt lat="41.57511" lon="9.16453">
        <ele>313</ele>
        <time>2018-05-21T11:20:16Z</time>
      </trkpt>
      <trkpt lat="41.57502" lon="9.16464">
        <ele>312</ele>
        <time>2018-05-21T11:20:19Z</time>
      </trkpt>
      <trkpt lat="41.57491" lon="9.16475">
        <ele>310.6</ele>
        <time>2018-05-21T11:20:22Z</time>
      </trkpt>
      <trkpt lat="41.57483" lon="9.16483">
        <ele>310.4</ele>
        <time>2018-05-21T11:20:24Z</time>
      </trkpt>
      <trkpt lat="41.57475" lon="9.16491">
        <ele>309.6</ele>
        <time>2018-05-21T11:20:26Z</time>
      </trkpt>
      <trkpt lat="41.57471" lon="9.16495">
        <ele>309.4</ele>
        <time>2018-05-21T11:20:27Z</time>
      </trkpt>
      <trkpt lat="41.57467" lon="9.16498">
        <ele>309</ele>
        <time>2018-05-21T11:20:28Z</time>
      </trkpt>
      <trkpt lat="41.57459" lon="9.16504">
        <ele>308.4</ele>
        <time>2018-05-21T11:20:30Z</time>
      </trkpt>
      <trkpt lat="41.57455" lon="9.16506">
        <ele>308.4</ele>
        <time>2018-05-21T11:20:31Z</time>
      </trkpt>
      <trkpt lat="41.57446" lon="9.16508">
        <ele>308</ele>
        <time>2018-05-21T11:20:33Z</time>
      </trkpt>
      <trkpt lat="41.57431" lon="9.16508">
        <ele>307.2</ele>
        <time>2018-05-21T11:20:36Z</time>
      </trkpt>
      <trkpt lat="41.57421" lon="9.16506">
        <ele>306.6</ele>
        <time>2018-05-21T11:20:38Z</time>
      </trkpt>
      <trkpt lat="41.57406" lon="9.16502">
        <ele>306</ele>
        <time>2018-05-21T11:20:41Z</time>
      </trkpt>
      <trkpt lat="41.57389" lon="9.16499">
        <ele>305.2</ele>
        <time>2018-05-21T11:20:44Z</time>
      </trkpt>
      <trkpt lat="41.57374" lon="9.16498">
        <ele>305</ele>
        <time>2018-05-21T11:20:47Z</time>
      </trkpt>
      <trkpt lat="41.5737" lon="9.16498">
        <ele>304.8</ele>
        <time>2018-05-21T11:20:48Z</time>
      </trkpt>
      <trkpt lat="41.57362" lon="9.165">
        <ele>304.8</ele>
        <time>2018-05-21T11:20:50Z</time>
      </trkpt>
      <trkpt lat="41.57333" lon="9.16505">
        <ele>304.8</ele>
        <time>2018-05-21T11:20:57Z</time>
      </trkpt>
      <trkpt lat="41.57328" lon="9.16505">
        <ele>304.6</ele>
        <time>2018-05-21T11:20:58Z</time>
      </trkpt>
      <trkpt lat="41.57314" lon="9.16504">
        <ele>304.6</ele>
        <time>2018-05-21T11:21:01Z</time>
      </trkpt>
      <trkpt lat="41.5731" lon="9.16502">
        <ele>304.6</ele>
        <time>2018-05-21T11:21:02Z</time>
      </trkpt>
      <trkpt lat="41.57289" lon="9.16483">
        <ele>305.2</ele>
        <time>2018-05-21T11:21:08Z</time>
      </trkpt>
      <trkpt lat="41.57281" lon="9.16473">
        <ele>305.8</ele>
        <time>2018-05-21T11:21:11Z</time>
      </trkpt>
      <trkpt lat="41.57269" lon="9.16458">
        <ele>306.6</ele>
        <time>2018-05-21T11:21:16Z</time>
      </trkpt>
      <trkpt lat="41.57264" lon="9.16452">
        <ele>307.2</ele>
        <time>2018-05-21T11:21:18Z</time>
      </trkpt>
      <trkpt lat="41.57254" lon="9.16443">
        <ele>308</ele>
        <time>2018-05-21T11:21:22Z</time>
      </trkpt>
      <trkpt lat="41.57252" lon="9.16441">
        <ele>308.2</ele>
        <time>2018-05-21T11:21:23Z</time>
      </trkpt>
      <trkpt lat="41.5724" lon="9.1643">
        <ele>309.4</ele>
        <time>2018-05-21T11:21:28Z</time>
      </trkpt>
      <trkpt lat="41.57233" lon="9.16424">
        <ele>309.6</ele>
        <time>2018-05-21T11:21:31Z</time>
      </trkpt>
      <trkpt lat="41.5722" lon="9.16414">
        <ele>310.4</ele>
        <time>2018-05-21T11:21:36Z</time>
      </trkpt>
      <trkpt lat="41.57213" lon="9.16409">
        <ele>310.6</ele>
        <time>2018-05-21T11:21:39Z</time>
      </trkpt>
      <trkpt lat="41.57196" lon="9.16392">
        <ele>310.6</ele>
        <time>2018-05-21T11:21:46Z</time>
      </trkpt>
      <trkpt lat="41.57184" lon="9.16378">
        <ele>310.2</ele>
        <time>2018-05-21T11:21:50Z</time>
      </trkpt>
      <trkpt lat="41.57181" lon="9.16374">
        <ele>310</ele>
        <time>2018-05-21T11:21:51Z</time>
      </trkpt>
      <trkpt lat="41.5716" lon="9.16345">
        <ele>309</ele>
        <time>2018-05-21T11:21:57Z</time>
      </trkpt>
      <trkpt lat="41.57156" lon="9.16339">
        <ele>308.6</ele>
        <time>2018-05-21T11:21:58Z</time>
      </trkpt>
      <trkpt lat="41.57152" lon="9.16334">
        <ele>308</ele>
        <time>2018-05-21T11:21:59Z</time>
      </trkpt>
      <trkpt lat="41.5714" lon="9.16314">
        <ele>307</ele>
        <time>2018-05-21T11:22:02Z</time>
      </trkpt>
      <trkpt lat="41.57131" lon="9.16301">
        <ele>306.6</ele>
        <time>2018-05-21T11:22:04Z</time>
      </trkpt>
      <trkpt lat="41.57117" lon="9.16282">
        <ele>305.6</ele>
        <time>2018-05-21T11:22:07Z</time>
      </trkpt>
      <trkpt lat="41.57099" lon="9.16257">
        <ele>305</ele>
        <time>2018-05-21T11:22:11Z</time>
      </trkpt>
      <trkpt lat="41.5709" lon="9.16246">
        <ele>305</ele>
        <time>2018-05-21T11:22:13Z</time>
      </trkpt>
      <trkpt lat="41.5708" lon="9.16235">
        <ele>305.2</ele>
        <time>2018-05-21T11:22:16Z</time>
      </trkpt>
      <trkpt lat="41.57076" lon="9.16233">
        <ele>305</ele>
        <time>2018-05-21T11:22:17Z</time>
      </trkpt>
      <trkpt lat="41.57067" lon="9.16227">
        <ele>304.4</ele>
        <time>2018-05-21T11:22:19Z</time>
      </trkpt>
      <trkpt lat="41.57063" lon="9.16223">
        <ele>304.2</ele>
        <time>2018-05-21T11:22:20Z</time>
      </trkpt>
      <trkpt lat="41.57052" lon="9.16212">
        <ele>303.2</ele>
        <time>2018-05-21T11:22:23Z</time>
      </trkpt>
      <trkpt lat="41.57045" lon="9.16204">
        <ele>303</ele>
        <time>2018-05-21T11:22:25Z</time>
      </trkpt>
      <trkpt lat="41.57027" lon="9.16186">
        <ele>302.2</ele>
        <time>2018-05-21T11:22:29Z</time>
      </trkpt>
      <trkpt lat="41.57015" lon="9.16172">
        <ele>301.4</ele>
        <time>2018-05-21T11:22:32Z</time>
      </trkpt>
      <trkpt lat="41.57011" lon="9.16168">
        <ele>301.2</ele>
        <time>2018-05-21T11:22:33Z</time>
      </trkpt>
      <trkpt lat="41.57004" lon="9.1616">
        <ele>300.6</ele>
        <time>2018-05-21T11:22:35Z</time>
      </trkpt>
      <trkpt lat="41.57" lon="9.16152">
        <ele>300</ele>
        <time>2018-05-21T11:22:37Z</time>
      </trkpt>
      <trkpt lat="41.56999" lon="9.16148">
        <ele>300</ele>
        <time>2018-05-21T11:22:38Z</time>
      </trkpt>
      <trkpt lat="41.56997" lon="9.16142">
        <ele>299.8</ele>
        <time>2018-05-21T11:22:40Z</time>
      </trkpt>
      <trkpt lat="41.56992" lon="9.1614">
        <ele>299.6</ele>
        <time>2018-05-21T11:22:42Z</time>
      </trkpt>
      <trkpt lat="41.56982" lon="9.16141">
        <ele>298.2</ele>
        <time>2018-05-21T11:22:45Z</time>
      </trkpt>
      <trkpt lat="41.56981" lon="9.16139">
        <ele>297.4</ele>
        <time>2018-05-21T11:22:46Z</time>
      </trkpt>
      <trkpt lat="41.56981" lon="9.16137">
        <ele>297</ele>
        <time>2018-05-21T11:22:47Z</time>
      </trkpt>
      <trkpt lat="41.56979" lon="9.16131">
        <ele>296</ele>
        <time>2018-05-21T11:22:50Z</time>
      </trkpt>
      <trkpt lat="41.56977" lon="9.16132">
        <ele>295.2</ele>
        <time>2018-05-21T11:22:51Z</time>
      </trkpt>
      <trkpt lat="41.56976" lon="9.16132">
        <ele>294.6</ele>
        <time>2018-05-21T11:22:52Z</time>
      </trkpt>
      <trkpt lat="41.56974" lon="9.16132">
        <ele>294.2</ele>
        <time>2018-05-21T11:22:53Z</time>
      </trkpt>
      <trkpt lat="41.56973" lon="9.16129">
        <ele>293.8</ele>
        <time>2018-05-21T11:22:54Z</time>
      </trkpt>
      <trkpt lat="41.56973" lon="9.16127">
        <ele>293.6</ele>
        <time>2018-05-21T11:22:55Z</time>
      </trkpt>
      <trkpt lat="41.56972" lon="9.16121">
        <ele>293.2</ele>
        <time>2018-05-21T11:22:59Z</time>
      </trkpt>
      <trkpt lat="41.56971" lon="9.16118">
        <ele>293.2</ele>
        <time>2018-05-21T11:23:01Z</time>
      </trkpt>
      <trkpt lat="41.56967" lon="9.16108">
        <ele>293</ele>
        <time>2018-05-21T11:23:04Z</time>
      </trkpt>
      <trkpt lat="41.56961" lon="9.16095">
        <ele>292.2</ele>
        <time>2018-05-21T11:23:07Z</time>
      </trkpt>
      <trkpt lat="41.56956" lon="9.16087">
        <ele>291</ele>
        <time>2018-05-21T11:23:09Z</time>
      </trkpt>
      <trkpt lat="41.56947" lon="9.1607">
        <ele>289.6</ele>
        <time>2018-05-21T11:23:12Z</time>
      </trkpt>
      <trkpt lat="41.56942" lon="9.16059">
        <ele>287.6</ele>
        <time>2018-05-21T11:23:14Z</time>
      </trkpt>
      <trkpt lat="41.5694" lon="9.16055">
        <ele>286.6</ele>
        <time>2018-05-21T11:23:15Z</time>
      </trkpt>
      <trkpt lat="41.56938" lon="9.16048">
        <ele>285</ele>
        <time>2018-05-21T11:23:17Z</time>
      </trkpt>
      <trkpt lat="41.56937" lon="9.16043">
        <ele>284.2</ele>
        <time>2018-05-21T11:23:18Z</time>
      </trkpt>
      <trkpt lat="41.56936" lon="9.16039">
        <ele>283.8</ele>
        <time>2018-05-21T11:23:19Z</time>
      </trkpt>
      <trkpt lat="41.56934" lon="9.16029">
        <ele>282.6</ele>
        <time>2018-05-21T11:23:21Z</time>
      </trkpt>
      <trkpt lat="41.56934" lon="9.16025">
        <ele>282.2</ele>
        <time>2018-05-21T11:23:22Z</time>
      </trkpt>
      <trkpt lat="41.56935" lon="9.16021">
        <ele>281.8</ele>
        <time>2018-05-21T11:23:23Z</time>
      </trkpt>
      <trkpt lat="41.56935" lon="9.16017">
        <ele>281</ele>
        <time>2018-05-21T11:23:24Z</time>
      </trkpt>
      <trkpt lat="41.56934" lon="9.1601">
        <ele>279</ele>
        <time>2018-05-21T11:23:26Z</time>
      </trkpt>
      <trkpt lat="41.56934" lon="9.16006">
        <ele>278.6</ele>
        <time>2018-05-21T11:23:27Z</time>
      </trkpt>
      <trkpt lat="41.56931" lon="9.15998">
        <ele>277.6</ele>
        <time>2018-05-21T11:23:29Z</time>
      </trkpt>
      <trkpt lat="41.56929" lon="9.15994">
        <ele>276.6</ele>
        <time>2018-05-21T11:23:30Z</time>
      </trkpt>
      <trkpt lat="41.56927" lon="9.15991">
        <ele>275.4</ele>
        <time>2018-05-21T11:23:31Z</time>
      </trkpt>
      <trkpt lat="41.56926" lon="9.15987">
        <ele>274.8</ele>
        <time>2018-05-21T11:23:32Z</time>
      </trkpt>
      <trkpt lat="41.56926" lon="9.15983">
        <ele>274.4</ele>
        <time>2018-05-21T11:23:33Z</time>
      </trkpt>
      <trkpt lat="41.56925" lon="9.15976">
        <ele>272.4</ele>
        <time>2018-05-21T11:23:35Z</time>
      </trkpt>
      <trkpt lat="41.56925" lon="9.15974">
        <ele>272</ele>
        <time>2018-05-21T11:23:36Z</time>
      </trkpt>
      <trkpt lat="41.56922" lon="9.15969">
        <ele>271.2</ele>
        <time>2018-05-21T11:23:38Z</time>
      </trkpt>
      <trkpt lat="41.56921" lon="9.15968">
        <ele>271</ele>
        <time>2018-05-21T11:23:39Z</time>
      </trkpt>
      <trkpt lat="41.56914" lon="9.15962">
        <ele>270</ele>
        <time>2018-05-21T11:23:42Z</time>
      </trkpt>
      <trkpt lat="41.56911" lon="9.1596">
        <ele>269.6</ele>
        <time>2018-05-21T11:23:43Z</time>
      </trkpt>
      <trkpt lat="41.569" lon="9.15949">
        <ele>269.2</ele>
        <time>2018-05-21T11:23:48Z</time>
      </trkpt>
      <trkpt lat="41.56898" lon="9.15946">
        <ele>269</ele>
        <time>2018-05-21T11:23:49Z</time>
      </trkpt>
      <trkpt lat="41.56888" lon="9.15936">
        <ele>269</ele>
        <time>2018-05-21T11:23:53Z</time>
      </trkpt>
      <trkpt lat="41.56872" lon="9.1592">
        <ele>268.4</ele>
        <time>2018-05-21T11:23:59Z</time>
      </trkpt>
      <trkpt lat="41.56864" lon="9.15914">
        <ele>268</ele>
        <time>2018-05-21T11:24:02Z</time>
      </trkpt>
      <trkpt lat="41.56857" lon="9.15911">
        <ele>267.8</ele>
        <time>2018-05-21T11:24:04Z</time>
      </trkpt>
      <trkpt lat="41.56838" lon="9.15902">
        <ele>268</ele>
        <time>2018-05-21T11:24:10Z</time>
      </trkpt>
      <trkpt lat="41.56821" lon="9.15892">
        <ele>267.4</ele>
        <time>2018-05-21T11:24:16Z</time>
      </trkpt>
      <trkpt lat="41.56813" lon="9.15886">
        <ele>267</ele>
        <time>2018-05-21T11:24:21Z</time>
      </trkpt>
      <trkpt lat="41.56813" lon="9.15886">
        <ele>266.8</ele>
        <time>2018-05-21T11:24:22Z</time>
      </trkpt>
      <trkpt lat="41.56808" lon="9.15877">
        <ele>267.6</ele>
        <time>2018-05-21T11:27:05Z</time>
      </trkpt>
      <trkpt lat="41.56804" lon="9.15874">
        <ele>267.8</ele>
        <time>2018-05-21T11:27:07Z</time>
      </trkpt>
      <trkpt lat="41.56799" lon="9.15873">
        <ele>267.8</ele>
        <time>2018-05-21T11:27:12Z</time>
      </trkpt>
      <trkpt lat="41.56792" lon="9.15869">
        <ele>268.8</ele>
        <time>2018-05-21T11:32:22Z</time>
      </trkpt>
      <trkpt lat="41.5679" lon="9.15867">
        <ele>269</ele>
        <time>2018-05-21T11:32:24Z</time>
      </trkpt>
      <trkpt lat="41.56777" lon="9.15862">
        <ele>269.6</ele>
        <time>2018-05-21T11:32:31Z</time>
      </trkpt>
      <trkpt lat="41.56774" lon="9.15861">
        <ele>269.8</ele>
        <time>2018-05-21T11:32:33Z</time>
      </trkpt>
      <trkpt lat="41.56768" lon="9.15862">
        <ele>270.4</ele>
        <time>2018-05-21T11:32:36Z</time>
      </trkpt>
      <trkpt lat="41.56764" lon="9.15863">
        <ele>271</ele>
        <time>2018-05-21T11:32:38Z</time>
      </trkpt>
      <trkpt lat="41.56762" lon="9.15862">
        <ele>271.2</ele>
        <time>2018-05-21T11:32:39Z</time>
      </trkpt>
      <trkpt lat="41.56758" lon="9.15861">
        <ele>271.6</ele>
        <time>2018-05-21T11:32:41Z</time>
      </trkpt>
      <trkpt lat="41.56755" lon="9.1586">
        <ele>272</ele>
        <time>2018-05-21T11:32:43Z</time>
      </trkpt>
      <trkpt lat="41.5675" lon="9.15856">
        <ele>273</ele>
        <time>2018-05-21T11:32:47Z</time>
      </trkpt>
      <trkpt lat="41.56745" lon="9.15853">
        <ele>274.2</ele>
        <time>2018-05-21T11:32:50Z</time>
      </trkpt>
      <trkpt lat="41.56742" lon="9.15849">
        <ele>275</ele>
        <time>2018-05-21T11:32:53Z</time>
      </trkpt>
      <trkpt lat="41.5674" lon="9.15849">
        <ele>275.6</ele>
        <time>2018-05-21T11:32:54Z</time>
      </trkpt>
      <trkpt lat="41.56736" lon="9.15845">
        <ele>276.6</ele>
        <time>2018-05-21T11:32:57Z</time>
      </trkpt>
      <trkpt lat="41.56734" lon="9.15842">
        <ele>277.2</ele>
        <time>2018-05-21T11:32:59Z</time>
      </trkpt>
      <trkpt lat="41.56731" lon="9.15839">
        <ele>277.8</ele>
        <time>2018-05-21T11:33:02Z</time>
      </trkpt>
      <trkpt lat="41.56729" lon="9.15838">
        <ele>278.2</ele>
        <time>2018-05-21T11:33:04Z</time>
      </trkpt>
      <trkpt lat="41.56725" lon="9.15835">
        <ele>279</ele>
        <time>2018-05-21T11:33:08Z</time>
      </trkpt>
      <trkpt lat="41.5672" lon="9.15833">
        <ele>279.4</ele>
        <time>2018-05-21T11:33:11Z</time>
      </trkpt>
      <trkpt lat="41.56714" lon="9.15829">
        <ele>280</ele>
        <time>2018-05-21T11:33:14Z</time>
      </trkpt>
      <trkpt lat="41.5671" lon="9.15826">
        <ele>280.2</ele>
        <time>2018-05-21T11:33:16Z</time>
      </trkpt>
      <trkpt lat="41.56708" lon="9.15821">
        <ele>281.4</ele>
        <time>2018-05-21T11:33:19Z</time>
      </trkpt>
      <trkpt lat="41.56705" lon="9.15818">
        <ele>282</ele>
        <time>2018-05-21T11:33:21Z</time>
      </trkpt>
      <trkpt lat="41.56702" lon="9.15817">
        <ele>282.6</ele>
        <time>2018-05-21T11:33:23Z</time>
      </trkpt>
      <trkpt lat="41.56696" lon="9.15814">
        <ele>283</ele>
        <time>2018-05-21T11:33:27Z</time>
      </trkpt>
      <trkpt lat="41.56692" lon="9.15812">
        <ele>283.2</ele>
        <time>2018-05-21T11:33:29Z</time>
      </trkpt>
      <trkpt lat="41.56684" lon="9.15803">
        <ele>283.6</ele>
        <time>2018-05-21T11:33:34Z</time>
      </trkpt>
      <trkpt lat="41.56682" lon="9.15802">
        <ele>283.6</ele>
        <time>2018-05-21T11:33:35Z</time>
      </trkpt>
      <trkpt lat="41.56673" lon="9.1579">
        <ele>284</ele>
        <time>2018-05-21T11:33:43Z</time>
      </trkpt>
      <trkpt lat="41.56668" lon="9.1578">
        <ele>284</ele>
        <time>2018-05-21T11:33:50Z</time>
      </trkpt>
      <trkpt lat="41.56662" lon="9.1577">
        <ele>284</ele>
        <time>2018-05-21T11:33:57Z</time>
      </trkpt>
      <trkpt lat="41.5666" lon="9.15765">
        <ele>284.2</ele>
        <time>2018-05-21T11:34:00Z</time>
      </trkpt>
      <trkpt lat="41.56659" lon="9.15759">
        <ele>284.2</ele>
        <time>2018-05-21T11:34:03Z</time>
      </trkpt>
      <trkpt lat="41.56656" lon="9.15748">
        <ele>284.2</ele>
        <time>2018-05-21T11:34:10Z</time>
      </trkpt>
      <trkpt lat="41.56654" lon="9.15742">
        <ele>284.4</ele>
        <time>2018-05-21T11:34:13Z</time>
      </trkpt>
      <trkpt lat="41.56651" lon="9.15739">
        <ele>284.4</ele>
        <time>2018-05-21T11:34:15Z</time>
      </trkpt>
      <trkpt lat="41.56645" lon="9.15728">
        <ele>284</ele>
        <time>2018-05-21T11:34:20Z</time>
      </trkpt>
      <trkpt lat="41.56643" lon="9.15724">
        <ele>283.8</ele>
        <time>2018-05-21T11:34:21Z</time>
      </trkpt>
      <trkpt lat="41.56639" lon="9.15703">
        <ele>283</ele>
        <time>2018-05-21T11:34:26Z</time>
      </trkpt>
      <trkpt lat="41.56638" lon="9.15699">
        <ele>282.6</ele>
        <time>2018-05-21T11:34:29Z</time>
      </trkpt>
      <trkpt lat="41.56636" lon="9.15695">
        <ele>282.4</ele>
        <time>2018-05-21T11:35:04Z</time>
      </trkpt>
      <trkpt lat="41.56623" lon="9.15685">
        <ele>282.2</ele>
        <time>2018-05-21T11:35:10Z</time>
      </trkpt>
      <trkpt lat="41.56619" lon="9.15684">
        <ele>281.8</ele>
        <time>2018-05-21T11:35:11Z</time>
      </trkpt>
      <trkpt lat="41.56614" lon="9.15683">
        <ele>281.4</ele>
        <time>2018-05-21T11:35:12Z</time>
      </trkpt>
      <trkpt lat="41.5661" lon="9.15681">
        <ele>280.6</ele>
        <time>2018-05-21T11:35:13Z</time>
      </trkpt>
      <trkpt lat="41.56605" lon="9.15679">
        <ele>279.8</ele>
        <time>2018-05-21T11:35:14Z</time>
      </trkpt>
      <trkpt lat="41.56601" lon="9.15677">
        <ele>279.2</ele>
        <time>2018-05-21T11:35:15Z</time>
      </trkpt>
      <trkpt lat="41.56596" lon="9.15675">
        <ele>278.6</ele>
        <time>2018-05-21T11:35:16Z</time>
      </trkpt>
      <trkpt lat="41.56589" lon="9.15673">
        <ele>277.6</ele>
        <time>2018-05-21T11:35:18Z</time>
      </trkpt>
      <trkpt lat="41.56585" lon="9.15672">
        <ele>276.8</ele>
        <time>2018-05-21T11:35:19Z</time>
      </trkpt>
      <trkpt lat="41.56581" lon="9.1567">
        <ele>276.4</ele>
        <time>2018-05-21T11:35:20Z</time>
      </trkpt>
      <trkpt lat="41.56566" lon="9.15665">
        <ele>275.4</ele>
        <time>2018-05-21T11:35:24Z</time>
      </trkpt>
      <trkpt lat="41.56551" lon="9.15667">
        <ele>275.6</ele>
        <time>2018-05-21T11:35:29Z</time>
      </trkpt>
      <trkpt lat="41.56544" lon="9.15667">
        <ele>276.6</ele>
        <time>2018-05-21T11:35:32Z</time>
      </trkpt>
      <trkpt lat="41.56539" lon="9.15668">
        <ele>277</ele>
        <time>2018-05-21T11:35:34Z</time>
      </trkpt>
      <trkpt lat="41.56533" lon="9.15671">
        <ele>277</ele>
        <time>2018-05-21T11:35:36Z</time>
      </trkpt>
      <trkpt lat="41.56527" lon="9.15675">
        <ele>276.8</ele>
        <time>2018-05-21T11:35:38Z</time>
      </trkpt>
      <trkpt lat="41.56514" lon="9.15678">
        <ele>275.8</ele>
        <time>2018-05-21T11:35:41Z</time>
      </trkpt>
      <trkpt lat="41.56509" lon="9.15678">
        <ele>275</ele>
        <time>2018-05-21T11:35:42Z</time>
      </trkpt>
      <trkpt lat="41.56504" lon="9.15676">
        <ele>273.8</ele>
        <time>2018-05-21T11:35:43Z</time>
      </trkpt>
      <trkpt lat="41.56495" lon="9.15671">
        <ele>272.6</ele>
        <time>2018-05-21T11:35:45Z</time>
      </trkpt>
      <trkpt lat="41.56489" lon="9.15664">
        <ele>272.4</ele>
        <time>2018-05-21T11:35:47Z</time>
      </trkpt>
      <trkpt lat="41.56476" lon="9.15652">
        <ele>272.2</ele>
        <time>2018-05-21T11:35:52Z</time>
      </trkpt>
      <trkpt lat="41.56474" lon="9.1565">
        <ele>272</ele>
        <time>2018-05-21T11:35:53Z</time>
      </trkpt>
      <trkpt lat="41.56468" lon="9.15646">
        <ele>271.4</ele>
        <time>2018-05-21T11:35:56Z</time>
      </trkpt>
      <trkpt lat="41.56463" lon="9.15643">
        <ele>271</ele>
        <time>2018-05-21T11:35:58Z</time>
      </trkpt>
      <trkpt lat="41.56458" lon="9.15642">
        <ele>270.2</ele>
        <time>2018-05-21T11:36:00Z</time>
      </trkpt>
      <trkpt lat="41.56457" lon="9.15642">
        <ele>269</ele>
        <time>2018-05-21T11:36:02Z</time>
      </trkpt>
      <trkpt lat="41.56457" lon="9.15642">
        <ele>268.6</ele>
        <time>2018-05-21T11:36:04Z</time>
      </trkpt>
      <trkpt lat="41.56462" lon="9.15645">
        <ele>270.8</ele>
        <time>2018-05-21T11:40:20Z</time>
      </trkpt>
      <trkpt lat="41.56458" lon="9.15643">
        <ele>270.8</ele>
        <time>2018-05-21T11:40:21Z</time>
      </trkpt>
      <trkpt lat="41.56448" lon="9.15637">
        <ele>269.6</ele>
        <time>2018-05-21T11:40:24Z</time>
      </trkpt>
      <trkpt lat="41.56442" lon="9.15632">
        <ele>268.2</ele>
        <time>2018-05-21T11:40:26Z</time>
      </trkpt>
      <trkpt lat="41.5644" lon="9.1563">
        <ele>267</ele>
        <time>2018-05-21T11:40:28Z</time>
      </trkpt>
      <trkpt lat="41.5644" lon="9.15631">
        <ele>266.6</ele>
        <time>2018-05-21T11:40:29Z</time>
      </trkpt>
      <trkpt lat="41.56436" lon="9.15626">
        <ele>266.6</ele>
        <time>2018-05-21T11:42:48Z</time>
      </trkpt>
      <trkpt lat="41.56433" lon="9.15622">
        <ele>266.6</ele>
        <time>2018-05-21T11:42:50Z</time>
      </trkpt>
      <trkpt lat="41.56424" lon="9.15614">
        <ele>267</ele>
        <time>2018-05-21T11:42:54Z</time>
      </trkpt>
      <trkpt lat="41.56407" lon="9.15597">
        <ele>266</ele>
        <time>2018-05-21T11:43:00Z</time>
      </trkpt>
      <trkpt lat="41.56401" lon="9.15592">
        <ele>265.6</ele>
        <time>2018-05-21T11:43:02Z</time>
      </trkpt>
      <trkpt lat="41.56392" lon="9.15579">
        <ele>265.6</ele>
        <time>2018-05-21T11:43:05Z</time>
      </trkpt>
      <trkpt lat="41.5638" lon="9.15562">
        <ele>266.2</ele>
        <time>2018-05-21T11:43:11Z</time>
      </trkpt>
      <trkpt lat="41.56378" lon="9.15561">
        <ele>266.4</ele>
        <time>2018-05-21T11:43:13Z</time>
      </trkpt>
      <trkpt lat="41.56374" lon="9.15559">
        <ele>266.8</ele>
        <time>2018-05-21T11:43:15Z</time>
      </trkpt>
      <trkpt lat="41.56372" lon="9.15558">
        <ele>267</ele>
        <time>2018-05-21T11:43:16Z</time>
      </trkpt>
      <trkpt lat="41.5637" lon="9.15554">
        <ele>267.2</ele>
        <time>2018-05-21T11:43:17Z</time>
      </trkpt>
      <trkpt lat="41.5637" lon="9.15551">
        <ele>267.8</ele>
        <time>2018-05-21T11:43:19Z</time>
      </trkpt>
      <trkpt lat="41.56368" lon="9.15536">
        <ele>267.4</ele>
        <time>2018-05-21T11:43:25Z</time>
      </trkpt>
      <trkpt lat="41.56366" lon="9.15531">
        <ele>266.6</ele>
        <time>2018-05-21T11:43:27Z</time>
      </trkpt>
      <trkpt lat="41.56363" lon="9.15526">
        <ele>265.8</ele>
        <time>2018-05-21T11:43:29Z</time>
      </trkpt>
      <trkpt lat="41.56363" lon="9.15526">
        <ele>265.4</ele>
        <time>2018-05-21T11:43:30Z</time>
      </trkpt>
      <trkpt lat="41.56356" lon="9.1552">
        <ele>263.6</ele>
        <time>2018-05-21T11:43:33Z</time>
      </trkpt>
      <trkpt lat="41.56353" lon="9.15519">
        <ele>262.8</ele>
        <time>2018-05-21T11:43:34Z</time>
      </trkpt>
      <trkpt lat="41.56351" lon="9.15518">
        <ele>261.8</ele>
        <time>2018-05-21T11:43:35Z</time>
      </trkpt>
      <trkpt lat="41.56351" lon="9.15518">
        <ele>261.2</ele>
        <time>2018-05-21T11:43:37Z</time>
      </trkpt>
      <trkpt lat="41.5635" lon="9.15518">
        <ele>261</ele>
        <time>2018-05-21T11:43:40Z</time>
      </trkpt>
      <trkpt lat="41.56349" lon="9.15515">
        <ele>260.4</ele>
        <time>2018-05-21T11:44:57Z</time>
      </trkpt>
      <trkpt lat="41.56347" lon="9.15511">
        <ele>260.4</ele>
        <time>2018-05-21T11:44:58Z</time>
      </trkpt>
      <trkpt lat="41.5634" lon="9.15503">
        <ele>259.4</ele>
        <time>2018-05-21T11:45:02Z</time>
      </trkpt>
      <trkpt lat="41.56337" lon="9.155">
        <ele>258.6</ele>
        <time>2018-05-21T11:45:03Z</time>
      </trkpt>
      <trkpt lat="41.56331" lon="9.15494">
        <ele>258</ele>
        <time>2018-05-21T11:45:04Z</time>
      </trkpt>
      <trkpt lat="41.56328" lon="9.15491">
        <ele>257</ele>
        <time>2018-05-21T11:45:06Z</time>
      </trkpt>
      <trkpt lat="41.56324" lon="9.15482">
        <ele>256.2</ele>
        <time>2018-05-21T11:45:08Z</time>
      </trkpt>
      <trkpt lat="41.56321" lon="9.15473">
        <ele>255.4</ele>
        <time>2018-05-21T11:45:10Z</time>
      </trkpt>
      <trkpt lat="41.56316" lon="9.15467">
        <ele>254.6</ele>
        <time>2018-05-21T11:45:13Z</time>
      </trkpt>
      <trkpt lat="41.56312" lon="9.15465">
        <ele>254.4</ele>
        <time>2018-05-21T11:45:14Z</time>
      </trkpt>
      <trkpt lat="41.56299" lon="9.1546">
        <ele>254</ele>
        <time>2018-05-21T11:45:18Z</time>
      </trkpt>
      <trkpt lat="41.56281" lon="9.15458">
        <ele>254.6</ele>
        <time>2018-05-21T11:45:23Z</time>
      </trkpt>
      <trkpt lat="41.56272" lon="9.15453">
        <ele>254.4</ele>
        <time>2018-05-21T11:45:26Z</time>
      </trkpt>
      <trkpt lat="41.56272" lon="9.15453">
        <ele>254.4</ele>
        <time>2018-05-21T11:45:27Z</time>
      </trkpt>
      <trkpt lat="41.56269" lon="9.15443">
        <ele>254.8</ele>
        <time>2018-05-21T11:45:32Z</time>
      </trkpt>
      <trkpt lat="41.56269" lon="9.15443">
        <ele>254.8</ele>
        <time>2018-05-21T11:45:33Z</time>
      </trkpt>
      <trkpt lat="41.56278" lon="9.15457">
        <ele>254.8</ele>
        <time>2018-05-21T11:45:59Z</time>
      </trkpt>
      <trkpt lat="41.5628" lon="9.15457">
        <ele>254.6</ele>
        <time>2018-05-21T11:46:01Z</time>
      </trkpt>
      <trkpt lat="41.56297" lon="9.1546">
        <ele>254.6</ele>
        <time>2018-05-21T11:46:07Z</time>
      </trkpt>
      <trkpt lat="41.56309" lon="9.15465">
        <ele>254</ele>
        <time>2018-05-21T11:46:10Z</time>
      </trkpt>
      <trkpt lat="41.56316" lon="9.15469">
        <ele>253.8</ele>
        <time>2018-05-21T11:46:12Z</time>
      </trkpt>
      <trkpt lat="41.56326" lon="9.15487">
        <ele>255.2</ele>
        <time>2018-05-21T11:46:19Z</time>
      </trkpt>
      <trkpt lat="41.56329" lon="9.15491">
        <ele>255.6</ele>
        <time>2018-05-21T11:46:20Z</time>
      </trkpt>
      <trkpt lat="41.56334" lon="9.15499">
        <ele>256.8</ele>
        <time>2018-05-21T11:46:25Z</time>
      </trkpt>
      <trkpt lat="41.56342" lon="9.15507">
        <ele>258</ele>
        <time>2018-05-21T11:46:30Z</time>
      </trkpt>
      <trkpt lat="41.56344" lon="9.1551">
        <ele>258.2</ele>
        <time>2018-05-21T11:46:31Z</time>
      </trkpt>
      <trkpt lat="41.56346" lon="9.15513">
        <ele>258.4</ele>
        <time>2018-05-21T11:46:33Z</time>
      </trkpt>
      <trkpt lat="41.56349" lon="9.15517">
        <ele>262.2</ele>
        <time>2018-05-21T11:49:15Z</time>
      </trkpt>
      <trkpt lat="41.56351" lon="9.1552">
        <ele>262.2</ele>
        <time>2018-05-21T11:49:16Z</time>
      </trkpt>
      <trkpt lat="41.56348" lon="9.15518">
        <ele>262.2</ele>
        <time>2018-05-21T11:49:19Z</time>
      </trkpt>
      <trkpt lat="41.56345" lon="9.15512">
        <ele>261.8</ele>
        <time>2018-05-21T11:49:21Z</time>
      </trkpt>
      <trkpt lat="41.56338" lon="9.15504">
        <ele>260.8</ele>
        <time>2018-05-21T11:49:23Z</time>
      </trkpt>
      <trkpt lat="41.56336" lon="9.15502">
        <ele>259.4</ele>
        <time>2018-05-21T11:49:25Z</time>
      </trkpt>
      <trkpt lat="41.56335" lon="9.15501">
        <ele>258.4</ele>
        <time>2018-05-21T11:49:27Z</time>
      </trkpt>
      <trkpt lat="41.56334" lon="9.15499">
        <ele>258.6</ele>
        <time>2018-05-21T11:52:33Z</time>
      </trkpt>
      <trkpt lat="41.56333" lon="9.15498">
        <ele>258.6</ele>
        <time>2018-05-21T11:52:34Z</time>
      </trkpt>
      <trkpt lat="41.56326" lon="9.15489">
        <ele>258</ele>
        <time>2018-05-21T11:52:38Z</time>
      </trkpt>
      <trkpt lat="41.56323" lon="9.15482">
        <ele>257.4</ele>
        <time>2018-05-21T11:52:40Z</time>
      </trkpt>
      <trkpt lat="41.56317" lon="9.15469">
        <ele>256.2</ele>
        <time>2018-05-21T11:52:44Z</time>
      </trkpt>
      <trkpt lat="41.56317" lon="9.15469">
        <ele>256</ele>
        <time>2018-05-21T11:52:45Z</time>
      </trkpt>
      <trkpt lat="41.56299" lon="9.15461">
        <ele>255.6</ele>
        <time>2018-05-21T11:52:50Z</time>
      </trkpt>
      <trkpt lat="41.56287" lon="9.15458">
        <ele>255.8</ele>
        <time>2018-05-21T11:52:55Z</time>
      </trkpt>
      <trkpt lat="41.56275" lon="9.15454">
        <ele>255.8</ele>
        <time>2018-05-21T11:52:58Z</time>
      </trkpt>
      <trkpt lat="41.56274" lon="9.15451">
        <ele>255.8</ele>
        <time>2018-05-21T11:52:59Z</time>
      </trkpt>
      <trkpt lat="41.5627" lon="9.1544">
        <ele>255.8</ele>
        <time>2018-05-21T11:53:02Z</time>
      </trkpt>
      <trkpt lat="41.56267" lon="9.15434">
        <ele>256</ele>
        <time>2018-05-21T11:53:04Z</time>
      </trkpt>
      <trkpt lat="41.56261" lon="9.15422">
        <ele>256.8</ele>
        <time>2018-05-21T11:53:08Z</time>
      </trkpt>
      <trkpt lat="41.56261" lon="9.15422">
        <ele>256.6</ele>
        <time>2018-05-21T11:53:09Z</time>
      </trkpt>
      <trkpt lat="41.56251" lon="9.1541">
        <ele>256</ele>
        <time>2018-05-21T11:53:13Z</time>
      </trkpt>
      <trkpt lat="41.56237" lon="9.15399">
        <ele>256.8</ele>
        <time>2018-05-21T11:53:19Z</time>
      </trkpt>
      <trkpt lat="41.56219" lon="9.15391">
        <ele>256.6</ele>
        <time>2018-05-21T11:53:24Z</time>
      </trkpt>
      <trkpt lat="41.56211" lon="9.15387">
        <ele>255.6</ele>
        <time>2018-05-21T11:53:26Z</time>
      </trkpt>
      <trkpt lat="41.56211" lon="9.15387">
        <ele>255.2</ele>
        <time>2018-05-21T11:53:27Z</time>
      </trkpt>
      <trkpt lat="41.56201" lon="9.15379">
        <ele>254</ele>
        <time>2018-05-21T11:53:29Z</time>
      </trkpt>
      <trkpt lat="41.56197" lon="9.15377">
        <ele>252.6</ele>
        <time>2018-05-21T11:53:31Z</time>
      </trkpt>
      <trkpt lat="41.56183" lon="9.15374">
        <ele>252</ele>
        <time>2018-05-21T11:53:34Z</time>
      </trkpt>
      <trkpt lat="41.56176" lon="9.15374">
        <ele>251.6</ele>
        <time>2018-05-21T11:53:37Z</time>
      </trkpt>
      <trkpt lat="41.5617" lon="9.15373">
        <ele>250.8</ele>
        <time>2018-05-21T11:53:39Z</time>
      </trkpt>
      <trkpt lat="41.56165" lon="9.15374">
        <ele>250.6</ele>
        <time>2018-05-21T11:53:40Z</time>
      </trkpt>
      <trkpt lat="41.56155" lon="9.15376">
        <ele>251.6</ele>
        <time>2018-05-21T11:53:45Z</time>
      </trkpt>
      <trkpt lat="41.56139" lon="9.15375">
        <ele>252.6</ele>
        <time>2018-05-21T11:53:51Z</time>
      </trkpt>
      <trkpt lat="41.56134" lon="9.15374">
        <ele>253</ele>
        <time>2018-05-21T11:53:52Z</time>
      </trkpt>
      <trkpt lat="41.5613" lon="9.15372">
        <ele>253.8</ele>
        <time>2018-05-21T11:53:55Z</time>
      </trkpt>
      <trkpt lat="41.56126" lon="9.15369">
        <ele>254</ele>
        <time>2018-05-21T11:53:56Z</time>
      </trkpt>
      <trkpt lat="41.56126" lon="9.15369">
        <ele>254.2</ele>
        <time>2018-05-21T11:53:57Z</time>
      </trkpt>
      <trkpt lat="41.56119" lon="9.15368">
        <ele>255</ele>
        <time>2018-05-21T11:54:00Z</time>
      </trkpt>
      <trkpt lat="41.56117" lon="9.15367">
        <ele>256</ele>
        <time>2018-05-21T11:54:03Z</time>
      </trkpt>
      <trkpt lat="41.56114" lon="9.15369">
        <ele>256.2</ele>
        <time>2018-05-21T11:54:04Z</time>
      </trkpt>
      <trkpt lat="41.56108" lon="9.1537">
        <ele>256.8</ele>
        <time>2018-05-21T11:54:06Z</time>
      </trkpt>
      <trkpt lat="41.5609" lon="9.1537">
        <ele>255.2</ele>
        <time>2018-05-21T11:54:12Z</time>
      </trkpt>
      <trkpt lat="41.56083" lon="9.15371">
        <ele>255</ele>
        <time>2018-05-21T11:54:15Z</time>
      </trkpt>
      <trkpt lat="41.56073" lon="9.15374">
        <ele>254.8</ele>
        <time>2018-05-21T11:54:17Z</time>
      </trkpt>
      <trkpt lat="41.56054" lon="9.15376">
        <ele>254</ele>
        <time>2018-05-21T11:54:23Z</time>
      </trkpt>
      <trkpt lat="41.56041" lon="9.1538">
        <ele>254.2</ele>
        <time>2018-05-21T11:54:29Z</time>
      </trkpt>
      <trkpt lat="41.56039" lon="9.15379">
        <ele>254.2</ele>
        <time>2018-05-21T11:54:30Z</time>
      </trkpt>
      <trkpt lat="41.56035" lon="9.15378">
        <ele>254.2</ele>
        <time>2018-05-21T11:54:32Z</time>
      </trkpt>
      <trkpt lat="41.56031" lon="9.15381">
        <ele>254.2</ele>
        <time>2018-05-21T11:54:34Z</time>
      </trkpt>
      <trkpt lat="41.5603" lon="9.15383">
        <ele>254.2</ele>
        <time>2018-05-21T11:54:35Z</time>
      </trkpt>
      <trkpt lat="41.56025" lon="9.15388">
        <ele>254.4</ele>
        <time>2018-05-21T11:54:38Z</time>
      </trkpt>
      <trkpt lat="41.56022" lon="9.15388">
        <ele>254.4</ele>
        <time>2018-05-21T11:54:40Z</time>
      </trkpt>
      <trkpt lat="41.5602" lon="9.15387">
        <ele>254.6</ele>
        <time>2018-05-21T11:54:43Z</time>
      </trkpt>
      <trkpt lat="41.56016" lon="9.15384">
        <ele>254.4</ele>
        <time>2018-05-21T11:55:15Z</time>
      </trkpt>
      <trkpt lat="41.56011" lon="9.15377">
        <ele>254.4</ele>
        <time>2018-05-21T11:55:17Z</time>
      </trkpt>
      <trkpt lat="41.56008" lon="9.15377">
        <ele>254.2</ele>
        <time>2018-05-21T11:55:18Z</time>
      </trkpt>
      <trkpt lat="41.56002" lon="9.15376">
        <ele>253.4</ele>
        <time>2018-05-21T11:55:20Z</time>
      </trkpt>
      <trkpt lat="41.55996" lon="9.15372">
        <ele>252.6</ele>
        <time>2018-05-21T11:55:22Z</time>
      </trkpt>
      <trkpt lat="41.55993" lon="9.1537">
        <ele>252</ele>
        <time>2018-05-21T11:55:23Z</time>
      </trkpt>
      <trkpt lat="41.55985" lon="9.15368">
        <ele>251</ele>
        <time>2018-05-21T11:55:25Z</time>
      </trkpt>
      <trkpt lat="41.55982" lon="9.15367">
        <ele>250.6</ele>
        <time>2018-05-21T11:55:26Z</time>
      </trkpt>
      <trkpt lat="41.55977" lon="9.15366">
        <ele>250</ele>
        <time>2018-05-21T11:55:27Z</time>
      </trkpt>
      <trkpt lat="41.55972" lon="9.15365">
        <ele>249</ele>
        <time>2018-05-21T11:55:28Z</time>
      </trkpt>
      <trkpt lat="41.55967" lon="9.15364">
        <ele>248.4</ele>
        <time>2018-05-21T11:55:29Z</time>
      </trkpt>
      <trkpt lat="41.55961" lon="9.15364">
        <ele>247.6</ele>
        <time>2018-05-21T11:55:31Z</time>
      </trkpt>
      <trkpt lat="41.55951" lon="9.15363">
        <ele>247</ele>
        <time>2018-05-21T11:55:32Z</time>
      </trkpt>
      <trkpt lat="41.55943" lon="9.15362">
        <ele>245.2</ele>
        <time>2018-05-21T11:55:34Z</time>
      </trkpt>
      <trkpt lat="41.55939" lon="9.15361">
        <ele>244.2</ele>
        <time>2018-05-21T11:55:35Z</time>
      </trkpt>
      <trkpt lat="41.55935" lon="9.15361">
        <ele>242.8</ele>
        <time>2018-05-21T11:55:36Z</time>
      </trkpt>
      <trkpt lat="41.55931" lon="9.15359">
        <ele>241.6</ele>
        <time>2018-05-21T11:55:37Z</time>
      </trkpt>
      <trkpt lat="41.55926" lon="9.15358">
        <ele>240.8</ele>
        <time>2018-05-21T11:55:38Z</time>
      </trkpt>
      <trkpt lat="41.55926" lon="9.15358">
        <ele>240.2</ele>
        <time>2018-05-21T11:55:39Z</time>
      </trkpt>
      <trkpt lat="41.55917" lon="9.15355">
        <ele>239.8</ele>
        <time>2018-05-21T11:55:41Z</time>
      </trkpt>
      <trkpt lat="41.55914" lon="9.15354">
        <ele>239</ele>
        <time>2018-05-21T11:55:42Z</time>
      </trkpt>
      <trkpt lat="41.55907" lon="9.15353">
        <ele>237.6</ele>
        <time>2018-05-21T11:55:45Z</time>
      </trkpt>
      <trkpt lat="41.55901" lon="9.15352">
        <ele>237</ele>
        <time>2018-05-21T11:55:46Z</time>
      </trkpt>
      <trkpt lat="41.55899" lon="9.15351">
        <ele>236.4</ele>
        <time>2018-05-21T11:55:47Z</time>
      </trkpt>
      <trkpt lat="41.55896" lon="9.1535">
        <ele>235.2</ele>
        <time>2018-05-21T11:55:49Z</time>
      </trkpt>
      <trkpt lat="41.55888" lon="9.15349">
        <ele>235</ele>
        <time>2018-05-21T11:55:51Z</time>
      </trkpt>
      <trkpt lat="41.55876" lon="9.15343">
        <ele>234.8</ele>
        <time>2018-05-21T11:55:53Z</time>
      </trkpt>
      <trkpt lat="41.55873" lon="9.1534">
        <ele>234</ele>
        <time>2018-05-21T11:55:54Z</time>
      </trkpt>
      <trkpt lat="41.55867" lon="9.15335">
        <ele>232.4</ele>
        <time>2018-05-21T11:55:56Z</time>
      </trkpt>
      <trkpt lat="41.55863" lon="9.15325">
        <ele>231.4</ele>
        <time>2018-05-21T11:55:59Z</time>
      </trkpt>
      <trkpt lat="41.5586" lon="9.15323">
        <ele>230.6</ele>
        <time>2018-05-21T11:56:00Z</time>
      </trkpt>
      <trkpt lat="41.55857" lon="9.1532">
        <ele>230.2</ele>
        <time>2018-05-21T11:56:01Z</time>
      </trkpt>
      <trkpt lat="41.55854" lon="9.15318">
        <ele>230</ele>
        <time>2018-05-21T11:56:02Z</time>
      </trkpt>
      <trkpt lat="41.55849" lon="9.15309">
        <ele>229.2</ele>
        <time>2018-05-21T11:56:04Z</time>
      </trkpt>
      <trkpt lat="41.55846" lon="9.15305">
        <ele>229.2</ele>
        <time>2018-05-21T11:56:05Z</time>
      </trkpt>
      <trkpt lat="41.55843" lon="9.15301">
        <ele>229</ele>
        <time>2018-05-21T11:56:06Z</time>
      </trkpt>
      <trkpt lat="41.55837" lon="9.15293">
        <ele>227.8</ele>
        <time>2018-05-21T11:56:08Z</time>
      </trkpt>
      <trkpt lat="41.55833" lon="9.1529">
        <ele>227</ele>
        <time>2018-05-21T11:56:09Z</time>
      </trkpt>
      <trkpt lat="41.5583" lon="9.15285">
        <ele>226.4</ele>
        <time>2018-05-21T11:56:10Z</time>
      </trkpt>
      <trkpt lat="41.55824" lon="9.15274">
        <ele>225.2</ele>
        <time>2018-05-21T11:56:13Z</time>
      </trkpt>
      <trkpt lat="41.55808" lon="9.15245">
        <ele>223.2</ele>
        <time>2018-05-21T11:56:16Z</time>
      </trkpt>
      <trkpt lat="41.55805" lon="9.1524">
        <ele>222.6</ele>
        <time>2018-05-21T11:56:17Z</time>
      </trkpt>
      <trkpt lat="41.55802" lon="9.15235">
        <ele>222</ele>
        <time>2018-05-21T11:56:18Z</time>
      </trkpt>
      <trkpt lat="41.55798" lon="9.15223">
        <ele>220.4</ele>
        <time>2018-05-21T11:56:20Z</time>
      </trkpt>
      <trkpt lat="41.55796" lon="9.1522">
        <ele>220</ele>
        <time>2018-05-21T11:56:21Z</time>
      </trkpt>
      <trkpt lat="41.55793" lon="9.15216">
        <ele>219.4</ele>
        <time>2018-05-21T11:56:22Z</time>
      </trkpt>
      <trkpt lat="41.55785" lon="9.15202">
        <ele>217.2</ele>
        <time>2018-05-21T11:56:24Z</time>
      </trkpt>
      <trkpt lat="41.5578" lon="9.15191">
        <ele>216.2</ele>
        <time>2018-05-21T11:56:26Z</time>
      </trkpt>
      <trkpt lat="41.55777" lon="9.15189">
        <ele>215.6</ele>
        <time>2018-05-21T11:56:27Z</time>
      </trkpt>
      <trkpt lat="41.55774" lon="9.15187">
        <ele>215.2</ele>
        <time>2018-05-21T11:56:28Z</time>
      </trkpt>
      <trkpt lat="41.55763" lon="9.15177">
        <ele>215.2</ele>
        <time>2018-05-21T11:56:32Z</time>
      </trkpt>
      <trkpt lat="41.55762" lon="9.15172">
        <ele>215.2</ele>
        <time>2018-05-21T11:56:33Z</time>
      </trkpt>
      <trkpt lat="41.55761" lon="9.15167">
        <ele>215.2</ele>
        <time>2018-05-21T11:56:34Z</time>
      </trkpt>
      <trkpt lat="41.55758" lon="9.15156">
        <ele>214</ele>
        <time>2018-05-21T11:56:36Z</time>
      </trkpt>
      <trkpt lat="41.55754" lon="9.15146">
        <ele>213.4</ele>
        <time>2018-05-21T11:56:38Z</time>
      </trkpt>
      <trkpt lat="41.55751" lon="9.1514">
        <ele>213</ele>
        <time>2018-05-21T11:56:39Z</time>
      </trkpt>
      <trkpt lat="41.55749" lon="9.15134">
        <ele>212.8</ele>
        <time>2018-05-21T11:56:40Z</time>
      </trkpt>
      <trkpt lat="41.55747" lon="9.15122">
        <ele>212.6</ele>
        <time>2018-05-21T11:56:42Z</time>
      </trkpt>
      <trkpt lat="41.55743" lon="9.15113">
        <ele>212</ele>
        <time>2018-05-21T11:56:44Z</time>
      </trkpt>
      <trkpt lat="41.55736" lon="9.15108">
        <ele>211.4</ele>
        <time>2018-05-21T11:56:46Z</time>
      </trkpt>
      <trkpt lat="41.55733" lon="9.15104">
        <ele>211.2</ele>
        <time>2018-05-21T11:56:47Z</time>
      </trkpt>
      <trkpt lat="41.5573" lon="9.151">
        <ele>210.8</ele>
        <time>2018-05-21T11:56:48Z</time>
      </trkpt>
      <trkpt lat="41.55725" lon="9.15094">
        <ele>210.4</ele>
        <time>2018-05-21T11:56:51Z</time>
      </trkpt>
      <trkpt lat="41.5572" lon="9.15091">
        <ele>210.2</ele>
        <time>2018-05-21T11:56:52Z</time>
      </trkpt>
      <trkpt lat="41.55714" lon="9.1509">
        <ele>209.8</ele>
        <time>2018-05-21T11:56:54Z</time>
      </trkpt>
      <trkpt lat="41.5571" lon="9.15084">
        <ele>209.4</ele>
        <time>2018-05-21T11:56:56Z</time>
      </trkpt>
      <trkpt lat="41.55707" lon="9.15076">
        <ele>209</ele>
        <time>2018-05-21T11:56:58Z</time>
      </trkpt>
      <trkpt lat="41.55706" lon="9.15068">
        <ele>208.8</ele>
        <time>2018-05-21T11:57:01Z</time>
      </trkpt>
      <trkpt lat="41.55706" lon="9.15059">
        <ele>208.6</ele>
        <time>2018-05-21T11:57:03Z</time>
      </trkpt>
      <trkpt lat="41.55702" lon="9.15034">
        <ele>208.2</ele>
        <time>2018-05-21T11:57:08Z</time>
      </trkpt>
      <trkpt lat="41.55699" lon="9.15026">
        <ele>207.2</ele>
        <time>2018-05-21T11:57:10Z</time>
      </trkpt>
      <trkpt lat="41.55696" lon="9.15019">
        <ele>206</ele>
        <time>2018-05-21T11:57:13Z</time>
      </trkpt>
      <trkpt lat="41.55693" lon="9.15016">
        <ele>205.6</ele>
        <time>2018-05-21T11:57:14Z</time>
      </trkpt>
      <trkpt lat="41.55687" lon="9.15016">
        <ele>205.2</ele>
        <time>2018-05-21T11:57:16Z</time>
      </trkpt>
      <trkpt lat="41.55685" lon="9.15014">
        <ele>204.8</ele>
        <time>2018-05-21T11:57:17Z</time>
      </trkpt>
      <trkpt lat="41.55683" lon="9.15006">
        <ele>203.6</ele>
        <time>2018-05-21T11:57:19Z</time>
      </trkpt>
      <trkpt lat="41.55682" lon="9.15002">
        <ele>202.6</ele>
        <time>2018-05-21T11:57:20Z</time>
      </trkpt>
      <trkpt lat="41.55678" lon="9.14992">
        <ele>200.6</ele>
        <time>2018-05-21T11:57:22Z</time>
      </trkpt>
      <trkpt lat="41.55676" lon="9.14988">
        <ele>199.6</ele>
        <time>2018-05-21T11:57:23Z</time>
      </trkpt>
      <trkpt lat="41.55674" lon="9.14984">
        <ele>199.2</ele>
        <time>2018-05-21T11:57:24Z</time>
      </trkpt>
      <trkpt lat="41.55673" lon="9.14978">
        <ele>198.2</ele>
        <time>2018-05-21T11:57:26Z</time>
      </trkpt>
      <trkpt lat="41.55673" lon="9.14978">
        <ele>197.4</ele>
        <time>2018-05-21T11:57:27Z</time>
      </trkpt>
      <trkpt lat="41.55672" lon="9.14976">
        <ele>196.4</ele>
        <time>2018-05-21T11:57:28Z</time>
      </trkpt>
      <trkpt lat="41.55672" lon="9.14976">
        <ele>195.6</ele>
        <time>2018-05-21T11:57:31Z</time>
      </trkpt>
      <trkpt lat="41.55672" lon="9.14975">
        <ele>195.6</ele>
        <time>2018-05-21T11:57:33Z</time>
      </trkpt>
      <trkpt lat="41.55673" lon="9.14972">
        <ele>195.4</ele>
        <time>2018-05-21T11:57:37Z</time>
      </trkpt>
      <trkpt lat="41.55672" lon="9.14967">
        <ele>195.4</ele>
        <time>2018-05-21T11:57:38Z</time>
      </trkpt>
      <trkpt lat="41.55672" lon="9.14967">
        <ele>195.2</ele>
        <time>2018-05-21T11:57:39Z</time>
      </trkpt>
      <trkpt lat="41.55665" lon="9.14951">
        <ele>194.6</ele>
        <time>2018-05-21T11:57:43Z</time>
      </trkpt>
      <trkpt lat="41.5566" lon="9.14945">
        <ele>194</ele>
        <time>2018-05-21T11:57:44Z</time>
      </trkpt>
      <trkpt lat="41.55654" lon="9.14943">
        <ele>193.2</ele>
        <time>2018-05-21T11:57:46Z</time>
      </trkpt>
      <trkpt lat="41.55651" lon="9.14943">
        <ele>192.6</ele>
        <time>2018-05-21T11:57:47Z</time>
      </trkpt>
      <trkpt lat="41.55649" lon="9.14942">
        <ele>191.2</ele>
        <time>2018-05-21T11:57:49Z</time>
      </trkpt>
      <trkpt lat="41.55647" lon="9.14937">
        <ele>190.4</ele>
        <time>2018-05-21T11:57:50Z</time>
      </trkpt>
      <trkpt lat="41.55648" lon="9.14934">
        <ele>189.4</ele>
        <time>2018-05-21T11:57:51Z</time>
      </trkpt>
      <trkpt lat="41.55648" lon="9.14931">
        <ele>188.2</ele>
        <time>2018-05-21T11:57:52Z</time>
      </trkpt>
      <trkpt lat="41.55651" lon="9.14928">
        <ele>187.2</ele>
        <time>2018-05-21T11:57:55Z</time>
      </trkpt>
      <trkpt lat="41.55654" lon="9.14926">
        <ele>187</ele>
        <time>2018-05-21T11:57:56Z</time>
      </trkpt>
      <trkpt lat="41.55654" lon="9.14926">
        <ele>186.2</ele>
        <time>2018-05-21T11:57:57Z</time>
      </trkpt>
      <trkpt lat="41.55654" lon="9.14922">
        <ele>185.6</ele>
        <time>2018-05-21T11:57:58Z</time>
      </trkpt>
      <trkpt lat="41.55654" lon="9.14919">
        <ele>185</ele>
        <time>2018-05-21T11:57:59Z</time>
      </trkpt>
      <trkpt lat="41.55652" lon="9.14905">
        <ele>183.6</ele>
        <time>2018-05-21T11:58:02Z</time>
      </trkpt>
      <trkpt lat="41.5565" lon="9.14894">
        <ele>183.2</ele>
        <time>2018-05-21T11:58:03Z</time>
      </trkpt>
      <trkpt lat="41.55648" lon="9.14884">
        <ele>187</ele>
        <time>2018-05-21T12:08:03Z</time>
      </trkpt>
      <trkpt lat="41.55647" lon="9.14874">
        <ele>187.2</ele>
        <time>2018-05-21T12:08:04Z</time>
      </trkpt>
      <trkpt lat="41.55645" lon="9.14873">
        <ele>187.4</ele>
        <time>2018-05-21T12:08:05Z</time>
      </trkpt>
      <trkpt lat="41.55644" lon="9.14871">
        <ele>188.2</ele>
        <time>2018-05-21T12:08:07Z</time>
      </trkpt>
      <trkpt lat="41.55642" lon="9.14868">
        <ele>188.8</ele>
        <time>2018-05-21T12:08:08Z</time>
      </trkpt>
      <trkpt lat="41.55641" lon="9.14866">
        <ele>189.4</ele>
        <time>2018-05-21T12:08:10Z</time>
      </trkpt>
      <trkpt lat="41.55638" lon="9.14866">
        <ele>190.2</ele>
        <time>2018-05-21T12:08:12Z</time>
      </trkpt>
      <trkpt lat="41.55635" lon="9.14866">
        <ele>190.8</ele>
        <time>2018-05-21T12:08:14Z</time>
      </trkpt>
      <trkpt lat="41.55635" lon="9.14866">
        <ele>191.2</ele>
        <time>2018-05-21T12:08:15Z</time>
      </trkpt>
      <trkpt lat="41.55633" lon="9.14865">
        <ele>191.8</ele>
        <time>2018-05-21T12:08:17Z</time>
      </trkpt>
      <trkpt lat="41.55628" lon="9.14866">
        <ele>192.6</ele>
        <time>2018-05-21T12:08:21Z</time>
      </trkpt>
      <trkpt lat="41.55622" lon="9.14866">
        <ele>193</ele>
        <time>2018-05-21T12:08:23Z</time>
      </trkpt>
      <trkpt lat="41.5562" lon="9.14866">
        <ele>193.4</ele>
        <time>2018-05-21T12:08:25Z</time>
      </trkpt>
      <trkpt lat="41.55618" lon="9.14865">
        <ele>193.8</ele>
        <time>2018-05-21T12:08:27Z</time>
      </trkpt>
      <trkpt lat="41.55618" lon="9.14865">
        <ele>194</ele>
        <time>2018-05-21T12:08:28Z</time>
      </trkpt>
      <trkpt lat="41.55617" lon="9.14864">
        <ele>194.4</ele>
        <time>2018-05-21T12:08:30Z</time>
      </trkpt>
      <trkpt lat="41.55615" lon="9.14863">
        <ele>194.8</ele>
        <time>2018-05-21T12:08:33Z</time>
      </trkpt>
      <trkpt lat="41.55613" lon="9.14863">
        <ele>195</ele>
        <time>2018-05-21T12:08:34Z</time>
      </trkpt>
      <trkpt lat="41.55612" lon="9.14865">
        <ele>195.2</ele>
        <time>2018-05-21T12:08:38Z</time>
      </trkpt>
      <trkpt lat="41.5561" lon="9.14865">
        <ele>195.2</ele>
        <time>2018-05-21T12:08:40Z</time>
      </trkpt>
      <trkpt lat="41.55608" lon="9.14864">
        <ele>195.2</ele>
        <time>2018-05-21T12:08:42Z</time>
      </trkpt>
      <trkpt lat="41.55607" lon="9.14865">
        <ele>195</ele>
        <time>2018-05-21T12:08:44Z</time>
      </trkpt>
      <trkpt lat="41.55603" lon="9.14867">
        <ele>195.2</ele>
        <time>2018-05-21T12:08:49Z</time>
      </trkpt>
      <trkpt lat="41.55609" lon="9.14865">
        <ele>195.2</ele>
        <time>2018-05-21T12:10:13Z</time>
      </trkpt>
      <trkpt lat="41.55607" lon="9.14866">
        <ele>195.2</ele>
        <time>2018-05-21T12:10:14Z</time>
      </trkpt>
      <trkpt lat="41.55595" lon="9.14874">
        <ele>194.8</ele>
        <time>2018-05-21T12:10:20Z</time>
      </trkpt>
      <trkpt lat="41.55582" lon="9.14892">
        <ele>194.2</ele>
        <time>2018-05-21T12:10:26Z</time>
      </trkpt>
      <trkpt lat="41.55579" lon="9.14895">
        <ele>194</ele>
        <time>2018-05-21T12:10:27Z</time>
      </trkpt>
      <trkpt lat="41.55576" lon="9.14898">
        <ele>193.6</ele>
        <time>2018-05-21T12:10:28Z</time>
      </trkpt>
      <trkpt lat="41.55562" lon="9.14909">
        <ele>192.8</ele>
        <time>2018-05-21T12:10:30Z</time>
      </trkpt>
      <trkpt lat="41.55549" lon="9.14907">
        <ele>190.6</ele>
        <time>2018-05-21T12:10:32Z</time>
      </trkpt>
      <trkpt lat="41.55547" lon="9.14905">
        <ele>189.6</ele>
        <time>2018-05-21T12:10:33Z</time>
      </trkpt>
      <trkpt lat="41.55544" lon="9.14902">
        <ele>188.8</ele>
        <time>2018-05-21T12:10:34Z</time>
      </trkpt>
      <trkpt lat="41.55533" lon="9.14893">
        <ele>188.6</ele>
        <time>2018-05-21T12:10:36Z</time>
      </trkpt>
      <trkpt lat="41.55515" lon="9.14877">
        <ele>189.4</ele>
        <time>2018-05-21T12:10:42Z</time>
      </trkpt>
      <trkpt lat="41.55499" lon="9.14877">
        <ele>190.2</ele>
        <time>2018-05-21T12:10:47Z</time>
      </trkpt>
      <trkpt lat="41.55497" lon="9.14876">
        <ele>191.4</ele>
        <time>2018-05-21T12:10:48Z</time>
      </trkpt>
      <trkpt lat="41.55492" lon="9.14875">
        <ele>192.8</ele>
        <time>2018-05-21T12:10:50Z</time>
      </trkpt>
      <trkpt lat="41.55484" lon="9.14873">
        <ele>194.2</ele>
        <time>2018-05-21T12:10:53Z</time>
      </trkpt>
      <trkpt lat="41.55483" lon="9.14872">
        <ele>194.6</ele>
        <time>2018-05-21T12:10:54Z</time>
      </trkpt>
      <trkpt lat="41.5548" lon="9.14869">
        <ele>195.2</ele>
        <time>2018-05-21T12:10:56Z</time>
      </trkpt>
      <trkpt lat="41.55474" lon="9.14866">
        <ele>195.4</ele>
        <time>2018-05-21T12:10:58Z</time>
      </trkpt>
      <trkpt lat="41.55465" lon="9.14863">
        <ele>195.2</ele>
        <time>2018-05-21T12:11:01Z</time>
      </trkpt>
      <trkpt lat="41.55448" lon="9.1486">
        <ele>195.2</ele>
        <time>2018-05-21T12:11:06Z</time>
      </trkpt>
      <trkpt lat="41.55425" lon="9.14865">
        <ele>195.2</ele>
        <time>2018-05-21T12:11:12Z</time>
      </trkpt>
      <trkpt lat="41.55402" lon="9.14882">
        <ele>194.8</ele>
        <time>2018-05-21T12:11:18Z</time>
      </trkpt>
      <trkpt lat="41.55383" lon="9.14891">
        <ele>194</ele>
        <time>2018-05-21T12:11:22Z</time>
      </trkpt>
      <trkpt lat="41.55374" lon="9.14898">
        <ele>193.8</ele>
        <time>2018-05-21T12:11:24Z</time>
      </trkpt>
      <trkpt lat="41.55359" lon="9.14919">
        <ele>193.2</ele>
        <time>2018-05-21T12:11:28Z</time>
      </trkpt>
      <trkpt lat="41.55356" lon="9.14925">
        <ele>193.2</ele>
        <time>2018-05-21T12:11:29Z</time>
      </trkpt>
      <trkpt lat="41.55353" lon="9.14932">
        <ele>193</ele>
        <time>2018-05-21T12:11:30Z</time>
      </trkpt>
      <trkpt lat="41.55351" lon="9.14947">
        <ele>192.8</ele>
        <time>2018-05-21T12:11:32Z</time>
      </trkpt>
      <trkpt lat="41.55352" lon="9.14963">
        <ele>192.2</ele>
        <time>2018-05-21T12:11:34Z</time>
      </trkpt>
      <trkpt lat="41.55352" lon="9.14971">
        <ele>191.8</ele>
        <time>2018-05-21T12:11:35Z</time>
      </trkpt>
      <trkpt lat="41.55351" lon="9.1498">
        <ele>191.4</ele>
        <time>2018-05-21T12:11:36Z</time>
      </trkpt>
      <trkpt lat="41.55347" lon="9.14996">
        <ele>190.8</ele>
        <time>2018-05-21T12:11:38Z</time>
      </trkpt>
      <trkpt lat="41.55345" lon="9.15016">
        <ele>190</ele>
        <time>2018-05-21T12:11:40Z</time>
      </trkpt>
      <trkpt lat="41.55345" lon="9.15027">
        <ele>189.4</ele>
        <time>2018-05-21T12:11:41Z</time>
      </trkpt>
      <trkpt lat="41.55344" lon="9.1505">
        <ele>188.4</ele>
        <time>2018-05-21T12:11:43Z</time>
      </trkpt>
      <trkpt lat="41.55343" lon="9.15062">
        <ele>187</ele>
        <time>2018-05-21T12:11:44Z</time>
      </trkpt>
      <trkpt lat="41.55342" lon="9.15074">
        <ele>186.4</ele>
        <time>2018-05-21T12:11:45Z</time>
      </trkpt>
      <trkpt lat="41.5534" lon="9.15085">
        <ele>185.8</ele>
        <time>2018-05-21T12:11:46Z</time>
      </trkpt>
      <trkpt lat="41.55334" lon="9.15105">
        <ele>185.2</ele>
        <time>2018-05-21T12:11:48Z</time>
      </trkpt>
      <trkpt lat="41.55331" lon="9.15114">
        <ele>185.2</ele>
        <time>2018-05-21T12:11:49Z</time>
      </trkpt>
      <trkpt lat="41.55322" lon="9.15131">
        <ele>184.6</ele>
        <time>2018-05-21T12:11:51Z</time>
      </trkpt>
      <trkpt lat="41.55318" lon="9.15139">
        <ele>183.6</ele>
        <time>2018-05-21T12:11:52Z</time>
      </trkpt>
      <trkpt lat="41.55313" lon="9.15147">
        <ele>182.8</ele>
        <time>2018-05-21T12:11:53Z</time>
      </trkpt>
      <trkpt lat="41.55305" lon="9.15162">
        <ele>181.8</ele>
        <time>2018-05-21T12:11:55Z</time>
      </trkpt>
      <trkpt lat="41.55301" lon="9.15168">
        <ele>181.6</ele>
        <time>2018-05-21T12:11:56Z</time>
      </trkpt>
      <trkpt lat="41.55294" lon="9.15178">
        <ele>181.2</ele>
        <time>2018-05-21T12:11:57Z</time>
      </trkpt>
      <trkpt lat="41.55287" lon="9.15188">
        <ele>180.4</ele>
        <time>2018-05-21T12:11:59Z</time>
      </trkpt>
      <trkpt lat="41.55268" lon="9.15212">
        <ele>179.2</ele>
        <time>2018-05-21T12:12:03Z</time>
      </trkpt>
      <trkpt lat="41.55258" lon="9.15224">
        <ele>178</ele>
        <time>2018-05-21T12:12:05Z</time>
      </trkpt>
      <trkpt lat="41.55245" lon="9.15235">
        <ele>176.2</ele>
        <time>2018-05-21T12:12:07Z</time>
      </trkpt>
      <trkpt lat="41.55239" lon="9.15241">
        <ele>174.6</ele>
        <time>2018-05-21T12:12:08Z</time>
      </trkpt>
      <trkpt lat="41.55234" lon="9.1525">
        <ele>173.4</ele>
        <time>2018-05-21T12:12:09Z</time>
      </trkpt>
      <trkpt lat="41.55222" lon="9.1527">
        <ele>172</ele>
        <time>2018-05-21T12:12:11Z</time>
      </trkpt>
      <trkpt lat="41.55216" lon="9.15281">
        <ele>171</ele>
        <time>2018-05-21T12:12:12Z</time>
      </trkpt>
      <trkpt lat="41.55208" lon="9.1529">
        <ele>169.8</ele>
        <time>2018-05-21T12:12:13Z</time>
      </trkpt>
      <trkpt lat="41.55201" lon="9.15299">
        <ele>168.6</ele>
        <time>2018-05-21T12:12:14Z</time>
      </trkpt>
      <trkpt lat="41.55194" lon="9.15307">
        <ele>167</ele>
        <time>2018-05-21T12:12:15Z</time>
      </trkpt>
      <trkpt lat="41.55188" lon="9.15316">
        <ele>164.6</ele>
        <time>2018-05-21T12:12:16Z</time>
      </trkpt>
      <trkpt lat="41.55181" lon="9.15325">
        <ele>163.4</ele>
        <time>2018-05-21T12:12:17Z</time>
      </trkpt>
      <trkpt lat="41.55175" lon="9.15334">
        <ele>161.8</ele>
        <time>2018-05-21T12:12:18Z</time>
      </trkpt>
      <trkpt lat="41.55169" lon="9.15342">
        <ele>160.6</ele>
        <time>2018-05-21T12:12:19Z</time>
      </trkpt>
      <trkpt lat="41.55162" lon="9.15349">
        <ele>159.4</ele>
        <time>2018-05-21T12:12:20Z</time>
      </trkpt>
      <trkpt lat="41.55149" lon="9.15363">
        <ele>158</ele>
        <time>2018-05-21T12:12:22Z</time>
      </trkpt>
      <trkpt lat="41.5513" lon="9.15383">
        <ele>156.6</ele>
        <time>2018-05-21T12:12:25Z</time>
      </trkpt>
      <trkpt lat="41.55125" lon="9.1539">
        <ele>155.4</ele>
        <time>2018-05-21T12:12:26Z</time>
      </trkpt>
      <trkpt lat="41.55125" lon="9.1539">
        <ele>154.4</ele>
        <time>2018-05-21T12:12:27Z</time>
      </trkpt>
      <trkpt lat="41.55107" lon="9.15414">
        <ele>153.2</ele>
        <time>2018-05-21T12:12:30Z</time>
      </trkpt>
      <trkpt lat="41.55098" lon="9.15426">
        <ele>151.4</ele>
        <time>2018-05-21T12:12:32Z</time>
      </trkpt>
      <trkpt lat="41.55087" lon="9.15437">
        <ele>150</ele>
        <time>2018-05-21T12:12:34Z</time>
      </trkpt>
      <trkpt lat="41.55076" lon="9.15449">
        <ele>149.2</ele>
        <time>2018-05-21T12:12:36Z</time>
      </trkpt>
      <trkpt lat="41.5507" lon="9.15455">
        <ele>148.8</ele>
        <time>2018-05-21T12:12:37Z</time>
      </trkpt>
      <trkpt lat="41.55065" lon="9.1546">
        <ele>148</ele>
        <time>2018-05-21T12:12:38Z</time>
      </trkpt>
      <trkpt lat="41.5506" lon="9.15466">
        <ele>147.6</ele>
        <time>2018-05-21T12:12:39Z</time>
      </trkpt>
      <trkpt lat="41.55046" lon="9.15482">
        <ele>147.4</ele>
        <time>2018-05-21T12:12:42Z</time>
      </trkpt>
      <trkpt lat="41.55031" lon="9.15503">
        <ele>146.2</ele>
        <time>2018-05-21T12:12:46Z</time>
      </trkpt>
      <trkpt lat="41.55023" lon="9.15515">
        <ele>144.6</ele>
        <time>2018-05-21T12:12:48Z</time>
      </trkpt>
      <trkpt lat="41.55017" lon="9.15529">
        <ele>143.2</ele>
        <time>2018-05-21T12:12:50Z</time>
      </trkpt>
      <trkpt lat="41.55014" lon="9.15536">
        <ele>143.2</ele>
        <time>2018-05-21T12:12:51Z</time>
      </trkpt>
      <trkpt lat="41.55009" lon="9.15552">
        <ele>143.2</ele>
        <time>2018-05-21T12:12:53Z</time>
      </trkpt>
      <trkpt lat="41.54999" lon="9.156">
        <ele>142.6</ele>
        <time>2018-05-21T12:12:59Z</time>
      </trkpt>
      <trkpt lat="41.54997" lon="9.15608">
        <ele>142.4</ele>
        <time>2018-05-21T12:13:00Z</time>
      </trkpt>
      <trkpt lat="41.54991" lon="9.15618">
        <ele>141</ele>
        <time>2018-05-21T12:13:02Z</time>
      </trkpt>
      <trkpt lat="41.5498" lon="9.15627">
        <ele>139.8</ele>
        <time>2018-05-21T12:13:05Z</time>
      </trkpt>
      <trkpt lat="41.54974" lon="9.15644">
        <ele>139.6</ele>
        <time>2018-05-21T12:13:09Z</time>
      </trkpt>
      <trkpt lat="41.5496" lon="9.15656">
        <ele>139.2</ele>
        <time>2018-05-21T12:13:13Z</time>
      </trkpt>
      <trkpt lat="41.54957" lon="9.1566">
        <ele>139.2</ele>
        <time>2018-05-21T12:13:14Z</time>
      </trkpt>
      <trkpt lat="41.54945" lon="9.15673">
        <ele>138.8</ele>
        <time>2018-05-21T12:13:17Z</time>
      </trkpt>
      <trkpt lat="41.5493" lon="9.1569">
        <ele>137.8</ele>
        <time>2018-05-21T12:13:21Z</time>
      </trkpt>
      <trkpt lat="41.54923" lon="9.15699">
        <ele>137.6</ele>
        <time>2018-05-21T12:13:23Z</time>
      </trkpt>
      <trkpt lat="41.54909" lon="9.15717">
        <ele>137.4</ele>
        <time>2018-05-21T12:13:27Z</time>
      </trkpt>
      <trkpt lat="41.54906" lon="9.15722">
        <ele>137.2</ele>
        <time>2018-05-21T12:13:28Z</time>
      </trkpt>
      <trkpt lat="41.54896" lon="9.15735">
        <ele>137</ele>
        <time>2018-05-21T12:13:31Z</time>
      </trkpt>
      <trkpt lat="41.54889" lon="9.15742">
        <ele>137.2</ele>
        <time>2018-05-21T12:13:33Z</time>
      </trkpt>
      <trkpt lat="41.54881" lon="9.15749">
        <ele>137.2</ele>
        <time>2018-05-21T12:13:35Z</time>
      </trkpt>
      <trkpt lat="41.54875" lon="9.15755">
        <ele>137.2</ele>
        <time>2018-05-21T12:13:37Z</time>
      </trkpt>
      <trkpt lat="41.54864" lon="9.15771">
        <ele>137.2</ele>
        <time>2018-05-21T12:13:41Z</time>
      </trkpt>
      <trkpt lat="41.54861" lon="9.15774">
        <ele>137.2</ele>
        <time>2018-05-21T12:13:42Z</time>
      </trkpt>
      <trkpt lat="41.54851" lon="9.15787">
        <ele>137.2</ele>
        <time>2018-05-21T12:13:45Z</time>
      </trkpt>
      <trkpt lat="41.54849" lon="9.15792">
        <ele>137</ele>
        <time>2018-05-21T12:13:46Z</time>
      </trkpt>
      <trkpt lat="41.54845" lon="9.15809">
        <ele>137</ele>
        <time>2018-05-21T12:13:49Z</time>
      </trkpt>
      <trkpt lat="41.54843" lon="9.15821">
        <ele>136.8</ele>
        <time>2018-05-21T12:13:51Z</time>
      </trkpt>
      <trkpt lat="41.54838" lon="9.15852">
        <ele>137.2</ele>
        <time>2018-05-21T12:13:57Z</time>
      </trkpt>
      <trkpt lat="41.54833" lon="9.15881">
        <ele>137.4</ele>
        <time>2018-05-21T12:14:02Z</time>
      </trkpt>
      <trkpt lat="41.54832" lon="9.15888">
        <ele>137.2</ele>
        <time>2018-05-21T12:14:03Z</time>
      </trkpt>
      <trkpt lat="41.5483" lon="9.15908">
        <ele>136.6</ele>
        <time>2018-05-21T12:14:06Z</time>
      </trkpt>
      <trkpt lat="41.54826" lon="9.15934">
        <ele>136.4</ele>
        <time>2018-05-21T12:14:10Z</time>
      </trkpt>
      <trkpt lat="41.54824" lon="9.15947">
        <ele>136.4</ele>
        <time>2018-05-21T12:14:12Z</time>
      </trkpt>
      <trkpt lat="41.54821" lon="9.15966">
        <ele>136.2</ele>
        <time>2018-05-21T12:14:15Z</time>
      </trkpt>
      <trkpt lat="41.54825" lon="9.15981">
        <ele>135.6</ele>
        <time>2018-05-21T12:14:18Z</time>
      </trkpt>
      <trkpt lat="41.54838" lon="9.15987">
        <ele>135.6</ele>
        <time>2018-05-21T12:14:21Z</time>
      </trkpt>
      <trkpt lat="41.54842" lon="9.15988">
        <ele>135.6</ele>
        <time>2018-05-21T12:14:22Z</time>
      </trkpt>
      <trkpt lat="41.54859" lon="9.15997">
        <ele>134.4</ele>
        <time>2018-05-21T12:14:25Z</time>
      </trkpt>
      <trkpt lat="41.54879" lon="9.16009">
        <ele>133.2</ele>
        <time>2018-05-21T12:14:28Z</time>
      </trkpt>
      <trkpt lat="41.54887" lon="9.16013">
        <ele>132.6</ele>
        <time>2018-05-21T12:14:29Z</time>
      </trkpt>
      <trkpt lat="41.54894" lon="9.16018">
        <ele>132</ele>
        <time>2018-05-21T12:14:30Z</time>
      </trkpt>
      <trkpt lat="41.54917" lon="9.16032">
        <ele>130.8</ele>
        <time>2018-05-21T12:14:33Z</time>
      </trkpt>
      <trkpt lat="41.54925" lon="9.16035">
        <ele>130</ele>
        <time>2018-05-21T12:14:34Z</time>
      </trkpt>
      <trkpt lat="41.54933" lon="9.16038">
        <ele>129.4</ele>
        <time>2018-05-21T12:14:35Z</time>
      </trkpt>
      <trkpt lat="41.54965" lon="9.16038">
        <ele>128.4</ele>
        <time>2018-05-21T12:14:39Z</time>
      </trkpt>
      <trkpt lat="41.54972" lon="9.16038">
        <ele>128.2</ele>
        <time>2018-05-21T12:14:40Z</time>
      </trkpt>
      <trkpt lat="41.54993" lon="9.16037">
        <ele>127.6</ele>
        <time>2018-05-21T12:14:43Z</time>
      </trkpt>
      <trkpt lat="41.55006" lon="9.1604">
        <ele>127</ele>
        <time>2018-05-21T12:14:45Z</time>
      </trkpt>
      <trkpt lat="41.55012" lon="9.16042">
        <ele>126.8</ele>
        <time>2018-05-21T12:14:46Z</time>
      </trkpt>
      <trkpt lat="41.55026" lon="9.16053">
        <ele>126.6</ele>
        <time>2018-05-21T12:14:49Z</time>
      </trkpt>
      <trkpt lat="41.5503" lon="9.16056">
        <ele>126.6</ele>
        <time>2018-05-21T12:14:50Z</time>
      </trkpt>
      <trkpt lat="41.55037" lon="9.16059">
        <ele>126.4</ele>
        <time>2018-05-21T12:14:52Z</time>
      </trkpt>
      <trkpt lat="41.55042" lon="9.16059">
        <ele>126.6</ele>
        <time>2018-05-21T12:14:54Z</time>
      </trkpt>
      <trkpt lat="41.55047" lon="9.16062">
        <ele>127.2</ele>
        <time>2018-05-21T12:14:56Z</time>
      </trkpt>
      <trkpt lat="41.5506" lon="9.16067">
        <ele>127.8</ele>
        <time>2018-05-21T12:15:01Z</time>
      </trkpt>
      <trkpt lat="41.55068" lon="9.16069">
        <ele>127.8</ele>
        <time>2018-05-21T12:15:05Z</time>
      </trkpt>
      <trkpt lat="41.55079" lon="9.16078">
        <ele>127</ele>
        <time>2018-05-21T12:15:09Z</time>
      </trkpt>
      <trkpt lat="41.55096" lon="9.16097">
        <ele>126.8</ele>
        <time>2018-05-21T12:15:15Z</time>
      </trkpt>
      <trkpt lat="41.55103" lon="9.16102">
        <ele>126.6</ele>
        <time>2018-05-21T12:15:17Z</time>
      </trkpt>
      <trkpt lat="41.55107" lon="9.16104">
        <ele>126.6</ele>
        <time>2018-05-21T12:15:18Z</time>
      </trkpt>
      <trkpt lat="41.55115" lon="9.16107">
        <ele>126</ele>
        <time>2018-05-21T12:15:20Z</time>
      </trkpt>
      <trkpt lat="41.55119" lon="9.16109">
        <ele>125.8</ele>
        <time>2018-05-21T12:15:21Z</time>
      </trkpt>
      <trkpt lat="41.55141" lon="9.16118">
        <ele>125.6</ele>
        <time>2018-05-21T12:15:27Z</time>
      </trkpt>
      <trkpt lat="41.55157" lon="9.16131">
        <ele>125.4</ele>
        <time>2018-05-21T12:15:32Z</time>
      </trkpt>
      <trkpt lat="41.55164" lon="9.16141">
        <ele>125</ele>
        <time>2018-05-21T12:15:36Z</time>
      </trkpt>
      <trkpt lat="41.55172" lon="9.16145">
        <ele>125</ele>
        <time>2018-05-21T12:15:39Z</time>
      </trkpt>
      <trkpt lat="41.55178" lon="9.1615">
        <ele>124.8</ele>
        <time>2018-05-21T12:15:41Z</time>
      </trkpt>
      <trkpt lat="41.55188" lon="9.16159">
        <ele>124.8</ele>
        <time>2018-05-21T12:15:44Z</time>
      </trkpt>
      <trkpt lat="41.55195" lon="9.1617">
        <ele>124.4</ele>
        <time>2018-05-21T12:15:47Z</time>
      </trkpt>
      <trkpt lat="41.55198" lon="9.16171">
        <ele>124.2</ele>
        <time>2018-05-21T12:15:48Z</time>
      </trkpt>
      <trkpt lat="41.55208" lon="9.16177">
        <ele>124.2</ele>
        <time>2018-05-21T12:15:52Z</time>
      </trkpt>
      <trkpt lat="41.5522" lon="9.16194">
        <ele>123.6</ele>
        <time>2018-05-21T12:15:57Z</time>
      </trkpt>
      <trkpt lat="41.55223" lon="9.16198">
        <ele>123.4</ele>
        <time>2018-05-21T12:15:58Z</time>
      </trkpt>
      <trkpt lat="41.55234" lon="9.16209">
        <ele>122.2</ele>
        <time>2018-05-21T12:16:01Z</time>
      </trkpt>
      <trkpt lat="41.55243" lon="9.16219">
        <ele>121.4</ele>
        <time>2018-05-21T12:16:04Z</time>
      </trkpt>
      <trkpt lat="41.55246" lon="9.16223">
        <ele>121</ele>
        <time>2018-05-21T12:16:05Z</time>
      </trkpt>
      <trkpt lat="41.55251" lon="9.16233">
        <ele>120.6</ele>
        <time>2018-05-21T12:16:08Z</time>
      </trkpt>
      <trkpt lat="41.55252" lon="9.16236">
        <ele>120.4</ele>
        <time>2018-05-21T12:16:09Z</time>
      </trkpt>
      <trkpt lat="41.55256" lon="9.16242">
        <ele>119.8</ele>
        <time>2018-05-21T12:16:11Z</time>
      </trkpt>
      <trkpt lat="41.5526" lon="9.16249">
        <ele>119.4</ele>
        <time>2018-05-21T12:16:13Z</time>
      </trkpt>
      <trkpt lat="41.55266" lon="9.16267">
        <ele>119</ele>
        <time>2018-05-21T12:16:17Z</time>
      </trkpt>
      <trkpt lat="41.55269" lon="9.16271">
        <ele>118.8</ele>
        <time>2018-05-21T12:16:18Z</time>
      </trkpt>
      <trkpt lat="41.5528" lon="9.16284">
        <ele>118.2</ele>
        <time>2018-05-21T12:16:22Z</time>
      </trkpt>
      <trkpt lat="41.55293" lon="9.16291">
        <ele>118.2</ele>
        <time>2018-05-21T12:16:27Z</time>
      </trkpt>
      <trkpt lat="41.55309" lon="9.16289">
        <ele>118</ele>
        <time>2018-05-21T12:16:32Z</time>
      </trkpt>
      <trkpt lat="41.55316" lon="9.16287">
        <ele>117.8</ele>
        <time>2018-05-21T12:16:34Z</time>
      </trkpt>
      <trkpt lat="41.55336" lon="9.16282">
        <ele>117.6</ele>
        <time>2018-05-21T12:16:39Z</time>
      </trkpt>
      <trkpt lat="41.55356" lon="9.16274">
        <ele>117.6</ele>
        <time>2018-05-21T12:16:45Z</time>
      </trkpt>
      <trkpt lat="41.55374" lon="9.16273">
        <ele>117.8</ele>
        <time>2018-05-21T12:16:51Z</time>
      </trkpt>
      <trkpt lat="41.55391" lon="9.16274">
        <ele>117.8</ele>
        <time>2018-05-21T12:16:57Z</time>
      </trkpt>
      <trkpt lat="41.55401" lon="9.16277">
        <ele>117</ele>
        <time>2018-05-21T12:17:01Z</time>
      </trkpt>
      <trkpt lat="41.55406" lon="9.16281">
        <ele>116.8</ele>
        <time>2018-05-21T12:17:04Z</time>
      </trkpt>
      <trkpt lat="41.55407" lon="9.16281">
        <ele>116.8</ele>
        <time>2018-05-21T12:17:05Z</time>
      </trkpt>
      <trkpt lat="41.55401" lon="9.16277">
        <ele>117.4</ele>
        <time>2018-05-21T12:22:49Z</time>
      </trkpt>
      <trkpt lat="41.55395" lon="9.16277">
        <ele>117.6</ele>
        <time>2018-05-21T12:22:52Z</time>
      </trkpt>
      <trkpt lat="41.55388" lon="9.16277">
        <ele>118</ele>
        <time>2018-05-21T12:22:57Z</time>
      </trkpt>
      <trkpt lat="41.55384" lon="9.16275">
        <ele>118.4</ele>
        <time>2018-05-21T12:23:02Z</time>
      </trkpt>
      <trkpt lat="41.55389" lon="9.16276">
        <ele>118.4</ele>
        <time>2018-05-21T12:23:13Z</time>
      </trkpt>
      <trkpt lat="41.55395" lon="9.16275">
        <ele>118.4</ele>
        <time>2018-05-21T12:23:15Z</time>
      </trkpt>
      <trkpt lat="41.55407" lon="9.16279">
        <ele>118.2</ele>
        <time>2018-05-21T12:23:18Z</time>
      </trkpt>
      <trkpt lat="41.55412" lon="9.16288">
        <ele>117.8</ele>
        <time>2018-05-21T12:23:21Z</time>
      </trkpt>
      <trkpt lat="41.55413" lon="9.16292">
        <ele>117</ele>
        <time>2018-05-21T12:23:25Z</time>
      </trkpt>
      <trkpt lat="41.55417" lon="9.16295">
        <ele>116.2</ele>
        <time>2018-05-21T12:25:13Z</time>
      </trkpt>
      <trkpt lat="41.5542" lon="9.16299">
        <ele>116</ele>
        <time>2018-05-21T12:25:15Z</time>
      </trkpt>
      <trkpt lat="41.55425" lon="9.16316">
        <ele>115.6</ele>
        <time>2018-05-21T12:25:19Z</time>
      </trkpt>
      <trkpt lat="41.55434" lon="9.16321">
        <ele>115</ele>
        <time>2018-05-21T12:25:22Z</time>
      </trkpt>
      <trkpt lat="41.55446" lon="9.16325">
        <ele>114.8</ele>
        <time>2018-05-21T12:25:25Z</time>
      </trkpt>
      <trkpt lat="41.5545" lon="9.16327">
        <ele>114.8</ele>
        <time>2018-05-21T12:25:26Z</time>
      </trkpt>
      <trkpt lat="41.55454" lon="9.16328">
        <ele>114.8</ele>
        <time>2018-05-21T12:25:27Z</time>
      </trkpt>
      <trkpt lat="41.5547" lon="9.16325">
        <ele>115</ele>
        <time>2018-05-21T12:25:31Z</time>
      </trkpt>
      <trkpt lat="41.55472" lon="9.16322">
        <ele>115</ele>
        <time>2018-05-21T12:25:32Z</time>
      </trkpt>
      <trkpt lat="41.55473" lon="9.16315">
        <ele>114.8</ele>
        <time>2018-05-21T12:25:34Z</time>
      </trkpt>
      <trkpt lat="41.55475" lon="9.16309">
        <ele>114.6</ele>
        <time>2018-05-21T12:25:36Z</time>
      </trkpt>
      <trkpt lat="41.5548" lon="9.16299">
        <ele>114.6</ele>
        <time>2018-05-21T12:25:39Z</time>
      </trkpt>
      <trkpt lat="41.55484" lon="9.16295">
        <ele>114.8</ele>
        <time>2018-05-21T12:25:41Z</time>
      </trkpt>
      <trkpt lat="41.55486" lon="9.16296">
        <ele>114.8</ele>
        <time>2018-05-21T12:25:43Z</time>
      </trkpt>
      <trkpt lat="41.55496" lon="9.16301">
        <ele>115.4</ele>
        <time>2018-05-21T12:25:48Z</time>
      </trkpt>
      <trkpt lat="41.55503" lon="9.163">
        <ele>114.4</ele>
        <time>2018-05-21T12:25:51Z</time>
      </trkpt>
      <trkpt lat="41.55509" lon="9.163">
        <ele>113.8</ele>
        <time>2018-05-21T12:25:53Z</time>
      </trkpt>
      <trkpt lat="41.5552" lon="9.16295">
        <ele>112.6</ele>
        <time>2018-05-21T12:25:56Z</time>
      </trkpt>
      <trkpt lat="41.55522" lon="9.16291">
        <ele>112.6</ele>
        <time>2018-05-21T12:25:57Z</time>
      </trkpt>
      <trkpt lat="41.55524" lon="9.16279">
        <ele>112.8</ele>
        <time>2018-05-21T12:26:00Z</time>
      </trkpt>
      <trkpt lat="41.55522" lon="9.16259">
        <ele>113.4</ele>
        <time>2018-05-21T12:26:05Z</time>
      </trkpt>
      <trkpt lat="41.55524" lon="9.16253">
        <ele>113.6</ele>
        <time>2018-05-21T12:26:07Z</time>
      </trkpt>
      <trkpt lat="41.55524" lon="9.16249">
        <ele>114</ele>
        <time>2018-05-21T12:26:08Z</time>
      </trkpt>
      <trkpt lat="41.55524" lon="9.16245">
        <ele>114.2</ele>
        <time>2018-05-21T12:26:09Z</time>
      </trkpt>
      <trkpt lat="41.55526" lon="9.16241">
        <ele>114.4</ele>
        <time>2018-05-21T12:26:11Z</time>
      </trkpt>
      <trkpt lat="41.55527" lon="9.1624">
        <ele>114</ele>
        <time>2018-05-21T12:26:13Z</time>
      </trkpt>
      <trkpt lat="41.55527" lon="9.1624">
        <ele>114</ele>
        <time>2018-05-21T12:26:14Z</time>
      </trkpt>
      <trkpt lat="41.55548" lon="9.16238">
        <ele>114.4</ele>
        <time>2018-05-21T12:27:45Z</time>
      </trkpt>
      <trkpt lat="41.55551" lon="9.16242">
        <ele>114.2</ele>
        <time>2018-05-21T12:27:47Z</time>
      </trkpt>
      <trkpt lat="41.55554" lon="9.16248">
        <ele>114</ele>
        <time>2018-05-21T12:27:49Z</time>
      </trkpt>
      <trkpt lat="41.55559" lon="9.1626">
        <ele>114</ele>
        <time>2018-05-21T12:27:53Z</time>
      </trkpt>
      <trkpt lat="41.55559" lon="9.16263">
        <ele>114</ele>
        <time>2018-05-21T12:27:54Z</time>
      </trkpt>
      <trkpt lat="41.55563" lon="9.16271">
        <ele>113.6</ele>
        <time>2018-05-21T12:27:57Z</time>
      </trkpt>
      <trkpt lat="41.55568" lon="9.16278">
        <ele>113.2</ele>
        <time>2018-05-21T12:27:59Z</time>
      </trkpt>
      <trkpt lat="41.5557" lon="9.16281">
        <ele>112.8</ele>
        <time>2018-05-21T12:28:00Z</time>
      </trkpt>
      <trkpt lat="41.55573" lon="9.16285">
        <ele>112.8</ele>
        <time>2018-05-21T12:28:01Z</time>
      </trkpt>
      <trkpt lat="41.55586" lon="9.1629">
        <ele>112.6</ele>
        <time>2018-05-21T12:28:05Z</time>
      </trkpt>
      <trkpt lat="41.55603" lon="9.16297">
        <ele>112</ele>
        <time>2018-05-21T12:28:09Z</time>
      </trkpt>
      <trkpt lat="41.55608" lon="9.16301">
        <ele>111.8</ele>
        <time>2018-05-21T12:28:10Z</time>
      </trkpt>
      <trkpt lat="41.55627" lon="9.16317">
        <ele>110.8</ele>
        <time>2018-05-21T12:28:14Z</time>
      </trkpt>
      <trkpt lat="41.55631" lon="9.16318">
        <ele>110.6</ele>
        <time>2018-05-21T12:28:15Z</time>
      </trkpt>
      <trkpt lat="41.55643" lon="9.16322">
        <ele>110</ele>
        <time>2018-05-21T12:28:18Z</time>
      </trkpt>
      <trkpt lat="41.55647" lon="9.16324">
        <ele>109.6</ele>
        <time>2018-05-21T12:28:19Z</time>
      </trkpt>
      <trkpt lat="41.55658" lon="9.16335">
        <ele>109</ele>
        <time>2018-05-21T12:28:23Z</time>
      </trkpt>
      <trkpt lat="41.55661" lon="9.16338">
        <ele>108.6</ele>
        <time>2018-05-21T12:28:24Z</time>
      </trkpt>
      <trkpt lat="41.55664" lon="9.16339">
        <ele>108.6</ele>
        <time>2018-05-21T12:28:25Z</time>
      </trkpt>
      <trkpt lat="41.55668" lon="9.1634">
        <ele>108.4</ele>
        <time>2018-05-21T12:28:26Z</time>
      </trkpt>
      <trkpt lat="41.55675" lon="9.16344">
        <ele>107.8</ele>
        <time>2018-05-21T12:28:29Z</time>
      </trkpt>
      <trkpt lat="41.55676" lon="9.16346">
        <ele>107.4</ele>
        <time>2018-05-21T12:28:30Z</time>
      </trkpt>
      <trkpt lat="41.55685" lon="9.16352">
        <ele>107.2</ele>
        <time>2018-05-21T12:28:33Z</time>
      </trkpt>
      <trkpt lat="41.55699" lon="9.1635">
        <ele>106.8</ele>
        <time>2018-05-21T12:28:38Z</time>
      </trkpt>
      <trkpt lat="41.55701" lon="9.16348">
        <ele>106.8</ele>
        <time>2018-05-21T12:28:39Z</time>
      </trkpt>
      <trkpt lat="41.55709" lon="9.16345">
        <ele>106.8</ele>
        <time>2018-05-21T12:28:42Z</time>
      </trkpt>
      <trkpt lat="41.55712" lon="9.16344">
        <ele>106.8</ele>
        <time>2018-05-21T12:28:43Z</time>
      </trkpt>
      <trkpt lat="41.55715" lon="9.16336">
        <ele>107.4</ele>
        <time>2018-05-21T12:28:47Z</time>
      </trkpt>
      <trkpt lat="41.55714" lon="9.16335">
        <ele>107.6</ele>
        <time>2018-05-21T12:28:50Z</time>
      </trkpt>
      <trkpt lat="41.5572" lon="9.16337">
        <ele>107.4</ele>
        <time>2018-05-21T12:30:13Z</time>
      </trkpt>
      <trkpt lat="41.55725" lon="9.16339">
        <ele>107.4</ele>
        <time>2018-05-21T12:30:15Z</time>
      </trkpt>
      <trkpt lat="41.55731" lon="9.1634">
        <ele>107.4</ele>
        <time>2018-05-21T12:30:17Z</time>
      </trkpt>
      <trkpt lat="41.55746" lon="9.16344">
        <ele>107.2</ele>
        <time>2018-05-21T12:30:21Z</time>
      </trkpt>
      <trkpt lat="41.55754" lon="9.16345">
        <ele>107.2</ele>
        <time>2018-05-21T12:30:23Z</time>
      </trkpt>
      <trkpt lat="41.55771" lon="9.16352">
        <ele>107.2</ele>
        <time>2018-05-21T12:30:27Z</time>
      </trkpt>
      <trkpt lat="41.55798" lon="9.16372">
        <ele>106.4</ele>
        <time>2018-05-21T12:30:33Z</time>
      </trkpt>
      <trkpt lat="41.55808" lon="9.16379">
        <ele>106.2</ele>
        <time>2018-05-21T12:30:35Z</time>
      </trkpt>
      <trkpt lat="41.55831" lon="9.16395">
        <ele>105.4</ele>
        <time>2018-05-21T12:30:39Z</time>
      </trkpt>
      <trkpt lat="41.55849" lon="9.16408">
        <ele>105</ele>
        <time>2018-05-21T12:30:42Z</time>
      </trkpt>
      <trkpt lat="41.55873" lon="9.16423">
        <ele>104.2</ele>
        <time>2018-05-21T12:30:46Z</time>
      </trkpt>
      <trkpt lat="41.55902" lon="9.16441">
        <ele>103.8</ele>
        <time>2018-05-21T12:30:51Z</time>
      </trkpt>
      <trkpt lat="41.55952" lon="9.16472">
        <ele>103.6</ele>
        <time>2018-05-21T12:31:00Z</time>
      </trkpt>
      <trkpt lat="41.55981" lon="9.16489">
        <ele>103.2</ele>
        <time>2018-05-21T12:31:05Z</time>
      </trkpt>
      <trkpt lat="41.55999" lon="9.16499">
        <ele>102.8</ele>
        <time>2018-05-21T12:31:08Z</time>
      </trkpt>
      <trkpt lat="41.56043" lon="9.1653">
        <ele>102.6</ele>
        <time>2018-05-21T12:31:16Z</time>
      </trkpt>
      <trkpt lat="41.56078" lon="9.16566">
        <ele>102.8</ele>
        <time>2018-05-21T12:31:24Z</time>
      </trkpt>
      <trkpt lat="41.56109" lon="9.16593">
        <ele>103.4</ele>
        <time>2018-05-21T12:31:31Z</time>
      </trkpt>
      <trkpt lat="41.56138" lon="9.16628">
        <ele>104.2</ele>
        <time>2018-05-21T12:31:39Z</time>
      </trkpt>
      <trkpt lat="41.56142" lon="9.16633">
        <ele>104.4</ele>
        <time>2018-05-21T12:31:40Z</time>
      </trkpt>
      <trkpt lat="41.5616" lon="9.16655">
        <ele>105.2</ele>
        <time>2018-05-21T12:31:46Z</time>
      </trkpt>
      <trkpt lat="41.56176" lon="9.16675">
        <ele>104.4</ele>
        <time>2018-05-21T12:31:51Z</time>
      </trkpt>
      <trkpt lat="41.5618" lon="9.16679">
        <ele>104</ele>
        <time>2018-05-21T12:31:52Z</time>
      </trkpt>
      <trkpt lat="41.56194" lon="9.16694">
        <ele>103.2</ele>
        <time>2018-05-21T12:31:56Z</time>
      </trkpt>
      <trkpt lat="41.56201" lon="9.167">
        <ele>102.8</ele>
        <time>2018-05-21T12:31:58Z</time>
      </trkpt>
      <trkpt lat="41.56207" lon="9.16703">
        <ele>102</ele>
        <time>2018-05-21T12:32:00Z</time>
      </trkpt>
      <trkpt lat="41.56214" lon="9.16703">
        <ele>101.6</ele>
        <time>2018-05-21T12:32:02Z</time>
      </trkpt>
      <trkpt lat="41.56224" lon="9.16706">
        <ele>101.6</ele>
        <time>2018-05-21T12:32:05Z</time>
      </trkpt>
      <trkpt lat="41.56228" lon="9.1671">
        <ele>101.4</ele>
        <time>2018-05-21T12:32:06Z</time>
      </trkpt>
      <trkpt lat="41.56245" lon="9.16724">
        <ele>100.6</ele>
        <time>2018-05-21T12:32:10Z</time>
      </trkpt>
      <trkpt lat="41.56258" lon="9.16736">
        <ele>99.6</ele>
        <time>2018-05-21T12:32:13Z</time>
      </trkpt>
      <trkpt lat="41.5628" lon="9.16752">
        <ele>99.8</ele>
        <time>2018-05-21T12:32:18Z</time>
      </trkpt>
      <trkpt lat="41.56284" lon="9.16754">
        <ele>99.8</ele>
        <time>2018-05-21T12:32:19Z</time>
      </trkpt>
      <trkpt lat="41.56293" lon="9.16758">
        <ele>99.8</ele>
        <time>2018-05-21T12:32:21Z</time>
      </trkpt>
      <trkpt lat="41.56305" lon="9.16767">
        <ele>99.6</ele>
        <time>2018-05-21T12:32:24Z</time>
      </trkpt>
      <trkpt lat="41.56313" lon="9.16775">
        <ele>99.6</ele>
        <time>2018-05-21T12:32:26Z</time>
      </trkpt>
      <trkpt lat="41.56332" lon="9.16792">
        <ele>99.2</ele>
        <time>2018-05-21T12:32:31Z</time>
      </trkpt>
      <trkpt lat="41.5635" lon="9.16811">
        <ele>99.6</ele>
        <time>2018-05-21T12:32:36Z</time>
      </trkpt>
      <trkpt lat="41.56357" lon="9.16818">
        <ele>99.4</ele>
        <time>2018-05-21T12:32:38Z</time>
      </trkpt>
      <trkpt lat="41.5638" lon="9.16843">
        <ele>99</ele>
        <time>2018-05-21T12:32:44Z</time>
      </trkpt>
      <trkpt lat="41.56393" lon="9.16857">
        <ele>98.4</ele>
        <time>2018-05-21T12:32:47Z</time>
      </trkpt>
      <trkpt lat="41.56397" lon="9.16864">
        <ele>98.2</ele>
        <time>2018-05-21T12:32:48Z</time>
      </trkpt>
      <trkpt lat="41.56401" lon="9.1687">
        <ele>97.8</ele>
        <time>2018-05-21T12:32:49Z</time>
      </trkpt>
      <trkpt lat="41.56404" lon="9.16877">
        <ele>97.6</ele>
        <time>2018-05-21T12:32:50Z</time>
      </trkpt>
      <trkpt lat="41.56407" lon="9.16884">
        <ele>97.2</ele>
        <time>2018-05-21T12:32:51Z</time>
      </trkpt>
      <trkpt lat="41.56413" lon="9.16898">
        <ele>96.8</ele>
        <time>2018-05-21T12:32:53Z</time>
      </trkpt>
      <trkpt lat="41.56417" lon="9.16905">
        <ele>96.4</ele>
        <time>2018-05-21T12:32:54Z</time>
      </trkpt>
      <trkpt lat="41.56421" lon="9.16911">
        <ele>96</ele>
        <time>2018-05-21T12:32:55Z</time>
      </trkpt>
      <trkpt lat="41.56433" lon="9.16936">
        <ele>95.6</ele>
        <time>2018-05-21T12:32:59Z</time>
      </trkpt>
      <trkpt lat="41.56435" lon="9.16942">
        <ele>95.4</ele>
        <time>2018-05-21T12:33:00Z</time>
      </trkpt>
      <trkpt lat="41.5644" lon="9.16959">
        <ele>95.4</ele>
        <time>2018-05-21T12:33:03Z</time>
      </trkpt>
      <trkpt lat="41.56444" lon="9.16971">
        <ele>95.6</ele>
        <time>2018-05-21T12:33:05Z</time>
      </trkpt>
      <trkpt lat="41.56449" lon="9.16988">
        <ele>95.8</ele>
        <time>2018-05-21T12:33:08Z</time>
      </trkpt>
      <trkpt lat="41.56454" lon="9.16998">
        <ele>96</ele>
        <time>2018-05-21T12:33:10Z</time>
      </trkpt>
      <trkpt lat="41.56472" lon="9.17037">
        <ele>96.6</ele>
        <time>2018-05-21T12:33:18Z</time>
      </trkpt>
      <trkpt lat="41.56488" lon="9.17062">
        <ele>96.2</ele>
        <time>2018-05-21T12:33:23Z</time>
      </trkpt>
      <trkpt lat="41.56495" lon="9.17069">
        <ele>96.2</ele>
        <time>2018-05-21T12:33:25Z</time>
      </trkpt>
      <trkpt lat="41.56502" lon="9.17076">
        <ele>96</ele>
        <time>2018-05-21T12:33:27Z</time>
      </trkpt>
      <trkpt lat="41.56508" lon="9.17085">
        <ele>96</ele>
        <time>2018-05-21T12:33:29Z</time>
      </trkpt>
      <trkpt lat="41.56514" lon="9.17096">
        <ele>96.2</ele>
        <time>2018-05-21T12:33:32Z</time>
      </trkpt>
      <trkpt lat="41.56522" lon="9.17108">
        <ele>96.4</ele>
        <time>2018-05-21T12:33:37Z</time>
      </trkpt>
      <trkpt lat="41.56527" lon="9.17118">
        <ele>97.2</ele>
        <time>2018-05-21T12:33:41Z</time>
      </trkpt>
      <trkpt lat="41.56537" lon="9.17136">
        <ele>97.6</ele>
        <time>2018-05-21T12:33:46Z</time>
      </trkpt>
      <trkpt lat="41.56542" lon="9.17142">
        <ele>98.2</ele>
        <time>2018-05-21T12:33:48Z</time>
      </trkpt>
      <trkpt lat="41.5655" lon="9.17158">
        <ele>98.8</ele>
        <time>2018-05-21T12:33:52Z</time>
      </trkpt>
      <trkpt lat="41.56558" lon="9.17168">
        <ele>99.4</ele>
        <time>2018-05-21T12:33:55Z</time>
      </trkpt>
      <trkpt lat="41.56566" lon="9.17179">
        <ele>100</ele>
        <time>2018-05-21T12:33:58Z</time>
      </trkpt>
      <trkpt lat="41.56583" lon="9.17199">
        <ele>100.4</ele>
        <time>2018-05-21T12:34:04Z</time>
      </trkpt>
      <trkpt lat="41.56586" lon="9.17203">
        <ele>100.4</ele>
        <time>2018-05-21T12:34:05Z</time>
      </trkpt>
      <trkpt lat="41.56594" lon="9.17221">
        <ele>100.4</ele>
        <time>2018-05-21T12:34:09Z</time>
      </trkpt>
      <trkpt lat="41.56593" lon="9.17237">
        <ele>99.8</ele>
        <time>2018-05-21T12:34:12Z</time>
      </trkpt>
      <trkpt lat="41.56592" lon="9.17249">
        <ele>99.6</ele>
        <time>2018-05-21T12:34:14Z</time>
      </trkpt>
      <trkpt lat="41.56589" lon="9.1726">
        <ele>99.4</ele>
        <time>2018-05-21T12:34:16Z</time>
      </trkpt>
      <trkpt lat="41.56585" lon="9.17271">
        <ele>99.4</ele>
        <time>2018-05-21T12:34:18Z</time>
      </trkpt>
      <trkpt lat="41.56579" lon="9.17293">
        <ele>98.8</ele>
        <time>2018-05-21T12:34:23Z</time>
      </trkpt>
      <trkpt lat="41.56587" lon="9.17301">
        <ele>99.4</ele>
        <time>2018-05-21T12:34:26Z</time>
      </trkpt>
      <trkpt lat="41.56605" lon="9.1732">
        <ele>100.2</ele>
        <time>2018-05-21T12:34:32Z</time>
      </trkpt>
      <trkpt lat="41.56608" lon="9.17324">
        <ele>100.4</ele>
        <time>2018-05-21T12:34:33Z</time>
      </trkpt>
      <trkpt lat="41.56619" lon="9.17336">
        <ele>100.4</ele>
        <time>2018-05-21T12:34:36Z</time>
      </trkpt>
      <trkpt lat="41.56631" lon="9.17347">
        <ele>100</ele>
        <time>2018-05-21T12:34:39Z</time>
      </trkpt>
      <trkpt lat="41.5664" lon="9.17356">
        <ele>100.4</ele>
        <time>2018-05-21T12:34:41Z</time>
      </trkpt>
      <trkpt lat="41.56651" lon="9.17364">
        <ele>100.4</ele>
        <time>2018-05-21T12:34:43Z</time>
      </trkpt>
      <trkpt lat="41.5666" lon="9.17371">
        <ele>99.4</ele>
        <time>2018-05-21T12:34:45Z</time>
      </trkpt>
      <trkpt lat="41.56663" lon="9.17375">
        <ele>98.2</ele>
        <time>2018-05-21T12:34:46Z</time>
      </trkpt>
      <trkpt lat="41.56666" lon="9.17379">
        <ele>97</ele>
        <time>2018-05-21T12:34:47Z</time>
      </trkpt>
      <trkpt lat="41.56668" lon="9.17382">
        <ele>95.6</ele>
        <time>2018-05-21T12:34:48Z</time>
      </trkpt>
      <trkpt lat="41.56669" lon="9.17385">
        <ele>94.6</ele>
        <time>2018-05-21T12:34:49Z</time>
      </trkpt>
      <trkpt lat="41.56673" lon="9.17391">
        <ele>93.8</ele>
        <time>2018-05-21T12:34:51Z</time>
      </trkpt>
      <trkpt lat="41.56689" lon="9.17397">
        <ele>94.2</ele>
        <time>2018-05-21T12:34:56Z</time>
      </trkpt>
      <trkpt lat="41.56703" lon="9.17395">
        <ele>94.6</ele>
        <time>2018-05-21T12:35:01Z</time>
      </trkpt>
      <trkpt lat="41.5671" lon="9.17403">
        <ele>94.8</ele>
        <time>2018-05-21T12:35:04Z</time>
      </trkpt>
      <trkpt lat="41.56711" lon="9.17406">
        <ele>95</ele>
        <time>2018-05-21T12:35:05Z</time>
      </trkpt>
      <trkpt lat="41.56724" lon="9.17419">
        <ele>95.4</ele>
        <time>2018-05-21T12:35:10Z</time>
      </trkpt>
      <trkpt lat="41.56729" lon="9.1742">
        <ele>96</ele>
        <time>2018-05-21T12:35:12Z</time>
      </trkpt>
      <trkpt lat="41.56739" lon="9.17423">
        <ele>96.2</ele>
        <time>2018-05-21T12:35:15Z</time>
      </trkpt>
      <trkpt lat="41.56751" lon="9.17429">
        <ele>97</ele>
        <time>2018-05-21T12:35:19Z</time>
      </trkpt>
      <trkpt lat="41.56758" lon="9.1743">
        <ele>97.2</ele>
        <time>2018-05-21T12:35:21Z</time>
      </trkpt>
      <trkpt lat="41.56774" lon="9.17437">
        <ele>97.6</ele>
        <time>2018-05-21T12:35:26Z</time>
      </trkpt>
      <trkpt lat="41.56776" lon="9.17439">
        <ele>98</ele>
        <time>2018-05-21T12:35:27Z</time>
      </trkpt>
      <trkpt lat="41.56783" lon="9.17446">
        <ele>98.6</ele>
        <time>2018-05-21T12:35:30Z</time>
      </trkpt>
      <trkpt lat="41.56787" lon="9.17448">
        <ele>98.8</ele>
        <time>2018-05-21T12:35:32Z</time>
      </trkpt>
      <trkpt lat="41.56791" lon="9.1745">
        <ele>99</ele>
        <time>2018-05-21T12:35:34Z</time>
      </trkpt>
      <trkpt lat="41.568" lon="9.17453">
        <ele>99.6</ele>
        <time>2018-05-21T12:35:39Z</time>
      </trkpt>
      <trkpt lat="41.56801" lon="9.17453">
        <ele>99.6</ele>
        <time>2018-05-21T12:35:40Z</time>
      </trkpt>
      <trkpt lat="41.56804" lon="9.17452">
        <ele>100</ele>
        <time>2018-05-21T12:35:43Z</time>
      </trkpt>
      <trkpt lat="41.56804" lon="9.17451">
        <ele>100.2</ele>
        <time>2018-05-21T12:35:44Z</time>
      </trkpt>
      <trkpt lat="41.56811" lon="9.17453">
        <ele>100.6</ele>
        <time>2018-05-21T12:35:56Z</time>
      </trkpt>
      <trkpt lat="41.56814" lon="9.17455">
        <ele>101.2</ele>
        <time>2018-05-21T12:35:59Z</time>
      </trkpt>
      <trkpt lat="41.56816" lon="9.17457">
        <ele>101.2</ele>
        <time>2018-05-21T12:36:01Z</time>
      </trkpt>
      <trkpt lat="41.56818" lon="9.17461">
        <ele>101.2</ele>
        <time>2018-05-21T12:36:04Z</time>
      </trkpt>
      <trkpt lat="41.56818" lon="9.17468">
        <ele>101.4</ele>
        <time>2018-05-21T12:36:08Z</time>
      </trkpt>
      <trkpt lat="41.56818" lon="9.17474">
        <ele>101.4</ele>
        <time>2018-05-21T12:36:11Z</time>
      </trkpt>
      <trkpt lat="41.5682" lon="9.17478">
        <ele>101.4</ele>
        <time>2018-05-21T12:36:13Z</time>
      </trkpt>
      <trkpt lat="41.56821" lon="9.1748">
        <ele>101.8</ele>
        <time>2018-05-21T12:36:15Z</time>
      </trkpt>
      <trkpt lat="41.56821" lon="9.17483">
        <ele>102</ele>
        <time>2018-05-21T12:36:16Z</time>
      </trkpt>
      <trkpt lat="41.56821" lon="9.17487">
        <ele>102</ele>
        <time>2018-05-21T12:36:18Z</time>
      </trkpt>
      <trkpt lat="41.56829" lon="9.17492">
        <ele>102.2</ele>
        <time>2018-05-21T12:36:22Z</time>
      </trkpt>
      <trkpt lat="41.56836" lon="9.17496">
        <ele>103.4</ele>
        <time>2018-05-21T12:36:27Z</time>
      </trkpt>
      <trkpt lat="41.56838" lon="9.17498">
        <ele>103.6</ele>
        <time>2018-05-21T12:36:28Z</time>
      </trkpt>
      <trkpt lat="41.56843" lon="9.17501">
        <ele>104</ele>
        <time>2018-05-21T12:36:32Z</time>
      </trkpt>
      <trkpt lat="41.56844" lon="9.17503">
        <ele>104.2</ele>
        <time>2018-05-21T12:36:34Z</time>
      </trkpt>
      <trkpt lat="41.56844" lon="9.17504">
        <ele>104.4</ele>
        <time>2018-05-21T12:36:35Z</time>
      </trkpt>
      <trkpt lat="41.56845" lon="9.17506">
        <ele>104.6</ele>
        <time>2018-05-21T12:36:36Z</time>
      </trkpt>
      <trkpt lat="41.56848" lon="9.17514">
        <ele>105</ele>
        <time>2018-05-21T12:36:40Z</time>
      </trkpt>
      <trkpt lat="41.5685" lon="9.1752">
        <ele>105.2</ele>
        <time>2018-05-21T12:36:43Z</time>
      </trkpt>
      <trkpt lat="41.5685" lon="9.17522">
        <ele>105.4</ele>
        <time>2018-05-21T12:36:44Z</time>
      </trkpt>
      <trkpt lat="41.56851" lon="9.17531">
        <ele>106</ele>
        <time>2018-05-21T12:36:48Z</time>
      </trkpt>
      <trkpt lat="41.56852" lon="9.17532">
        <ele>106.4</ele>
        <time>2018-05-21T12:36:49Z</time>
      </trkpt>
      <trkpt lat="41.56853" lon="9.17533">
        <ele>106.6</ele>
        <time>2018-05-21T12:36:50Z</time>
      </trkpt>
      <trkpt lat="41.56856" lon="9.17535">
        <ele>107</ele>
        <time>2018-05-21T12:36:53Z</time>
      </trkpt>
      <trkpt lat="41.5686" lon="9.17537">
        <ele>107.6</ele>
        <time>2018-05-21T12:36:56Z</time>
      </trkpt>
      <trkpt lat="41.56865" lon="9.17539">
        <ele>108.2</ele>
        <time>2018-05-21T12:36:59Z</time>
      </trkpt>
      <trkpt lat="41.56874" lon="9.17544">
        <ele>108.6</ele>
        <time>2018-05-21T12:37:04Z</time>
      </trkpt>
      <trkpt lat="41.56876" lon="9.17545">
        <ele>108.6</ele>
        <time>2018-05-21T12:37:05Z</time>
      </trkpt>
      <trkpt lat="41.56887" lon="9.1755">
        <ele>109</ele>
        <time>2018-05-21T12:37:10Z</time>
      </trkpt>
      <trkpt lat="41.569" lon="9.17553">
        <ele>109.8</ele>
        <time>2018-05-21T12:37:16Z</time>
      </trkpt>
      <trkpt lat="41.56902" lon="9.17552">
        <ele>109.8</ele>
        <time>2018-05-21T12:37:17Z</time>
      </trkpt>
      <trkpt lat="41.56912" lon="9.17554">
        <ele>110.2</ele>
        <time>2018-05-21T12:37:22Z</time>
      </trkpt>
      <trkpt lat="41.56917" lon="9.17558">
        <ele>110.8</ele>
        <time>2018-05-21T12:37:25Z</time>
      </trkpt>
      <trkpt lat="41.56924" lon="9.17563">
        <ele>111.2</ele>
        <time>2018-05-21T12:37:29Z</time>
      </trkpt>
      <trkpt lat="41.56934" lon="9.17565">
        <ele>111.8</ele>
        <time>2018-05-21T12:37:34Z</time>
      </trkpt>
      <trkpt lat="41.56936" lon="9.17566">
        <ele>112</ele>
        <time>2018-05-21T12:37:35Z</time>
      </trkpt>
      <trkpt lat="41.56945" lon="9.17571">
        <ele>113</ele>
        <time>2018-05-21T12:37:39Z</time>
      </trkpt>
      <trkpt lat="41.56946" lon="9.17572">
        <ele>113.2</ele>
        <time>2018-05-21T12:37:40Z</time>
      </trkpt>
      <trkpt lat="41.56952" lon="9.17574">
        <ele>113.6</ele>
        <time>2018-05-21T12:37:43Z</time>
      </trkpt>
      <trkpt lat="41.56953" lon="9.17576">
        <ele>113.8</ele>
        <time>2018-05-21T12:37:44Z</time>
      </trkpt>
      <trkpt lat="41.56956" lon="9.1758">
        <ele>114.4</ele>
        <time>2018-05-21T12:37:46Z</time>
      </trkpt>
      <trkpt lat="41.56962" lon="9.17581">
        <ele>114.8</ele>
        <time>2018-05-21T12:37:48Z</time>
      </trkpt>
      <trkpt lat="41.56974" lon="9.17588">
        <ele>115.4</ele>
        <time>2018-05-21T12:37:54Z</time>
      </trkpt>
      <trkpt lat="41.56976" lon="9.1759">
        <ele>115.4</ele>
        <time>2018-05-21T12:37:55Z</time>
      </trkpt>
      <trkpt lat="41.56985" lon="9.17599">
        <ele>115.8</ele>
        <time>2018-05-21T12:37:59Z</time>
      </trkpt>
      <trkpt lat="41.56992" lon="9.17606">
        <ele>116.4</ele>
        <time>2018-05-21T12:38:04Z</time>
      </trkpt>
      <trkpt lat="41.56992" lon="9.17606">
        <ele>116.4</ele>
        <time>2018-05-21T12:38:05Z</time>
      </trkpt>
      <trkpt lat="41.56997" lon="9.17612">
        <ele>116.4</ele>
        <time>2018-05-21T12:38:22Z</time>
      </trkpt>
      <trkpt lat="41.57001" lon="9.17616">
        <ele>116.4</ele>
        <time>2018-05-21T12:38:24Z</time>
      </trkpt>
      <trkpt lat="41.57004" lon="9.17622">
        <ele>116.4</ele>
        <time>2018-05-21T12:38:26Z</time>
      </trkpt>
      <trkpt lat="41.57006" lon="9.17627">
        <ele>116.4</ele>
        <time>2018-05-21T12:38:28Z</time>
      </trkpt>
      <trkpt lat="41.57007" lon="9.17632">
        <ele>116.4</ele>
        <time>2018-05-21T12:38:32Z</time>
      </trkpt>
      <trkpt lat="41.57013" lon="9.17641">
        <ele>116</ele>
        <time>2018-05-21T12:38:47Z</time>
      </trkpt>
      <trkpt lat="41.57021" lon="9.17648">
        <ele>116.2</ele>
        <time>2018-05-21T12:38:52Z</time>
      </trkpt>
      <trkpt lat="41.57026" lon="9.17653">
        <ele>116.4</ele>
        <time>2018-05-21T12:38:55Z</time>
      </trkpt>
      <trkpt lat="41.5703" lon="9.17657">
        <ele>116.4</ele>
        <time>2018-05-21T12:38:57Z</time>
      </trkpt>
      <trkpt lat="41.57036" lon="9.17662">
        <ele>116.6</ele>
        <time>2018-05-21T12:39:00Z</time>
      </trkpt>
      <trkpt lat="41.57042" lon="9.17668">
        <ele>116.8</ele>
        <time>2018-05-21T12:39:03Z</time>
      </trkpt>
      <trkpt lat="41.57047" lon="9.17673">
        <ele>117.2</ele>
        <time>2018-05-21T12:39:06Z</time>
      </trkpt>
      <trkpt lat="41.57052" lon="9.17675">
        <ele>117.4</ele>
        <time>2018-05-21T12:39:08Z</time>
      </trkpt>
      <trkpt lat="41.57065" lon="9.17678">
        <ele>117.6</ele>
        <time>2018-05-21T12:39:13Z</time>
      </trkpt>
      <trkpt lat="41.57083" lon="9.17677">
        <ele>117.8</ele>
        <time>2018-05-21T12:39:19Z</time>
      </trkpt>
      <trkpt lat="41.57088" lon="9.17673">
        <ele>118</ele>
        <time>2018-05-21T12:39:21Z</time>
      </trkpt>
      <trkpt lat="41.57094" lon="9.17664">
        <ele>118.2</ele>
        <time>2018-05-21T12:39:24Z</time>
      </trkpt>
      <trkpt lat="41.57099" lon="9.17659">
        <ele>118.4</ele>
        <time>2018-05-21T12:39:26Z</time>
      </trkpt>
      <trkpt lat="41.57107" lon="9.17656">
        <ele>118.4</ele>
        <time>2018-05-21T12:39:29Z</time>
      </trkpt>
      <trkpt lat="41.5712" lon="9.17652">
        <ele>118.6</ele>
        <time>2018-05-21T12:39:33Z</time>
      </trkpt>
      <trkpt lat="41.57139" lon="9.17654">
        <ele>118.4</ele>
        <time>2018-05-21T12:39:38Z</time>
      </trkpt>
      <trkpt lat="41.57163" lon="9.17656">
        <ele>118.4</ele>
        <time>2018-05-21T12:39:44Z</time>
      </trkpt>
      <trkpt lat="41.57179" lon="9.17665">
        <ele>118.4</ele>
        <time>2018-05-21T12:39:48Z</time>
      </trkpt>
      <trkpt lat="41.57194" lon="9.17681">
        <ele>118.6</ele>
        <time>2018-05-21T12:39:53Z</time>
      </trkpt>
      <trkpt lat="41.57199" lon="9.1769">
        <ele>118.6</ele>
        <time>2018-05-21T12:39:55Z</time>
      </trkpt>
      <trkpt lat="41.57207" lon="9.17698">
        <ele>118.6</ele>
        <time>2018-05-21T12:39:57Z</time>
      </trkpt>
      <trkpt lat="41.57211" lon="9.17703">
        <ele>118.8</ele>
        <time>2018-05-21T12:39:58Z</time>
      </trkpt>
      <trkpt lat="41.57219" lon="9.17711">
        <ele>118.8</ele>
        <time>2018-05-21T12:40:00Z</time>
      </trkpt>
      <trkpt lat="41.57227" lon="9.17719">
        <ele>118</ele>
        <time>2018-05-21T12:40:02Z</time>
      </trkpt>
      <trkpt lat="41.5724" lon="9.17726">
        <ele>117.4</ele>
        <time>2018-05-21T12:40:05Z</time>
      </trkpt>
      <trkpt lat="41.57248" lon="9.17731">
        <ele>117.4</ele>
        <time>2018-05-21T12:40:07Z</time>
      </trkpt>
      <trkpt lat="41.57252" lon="9.17733">
        <ele>117.4</ele>
        <time>2018-05-21T12:40:08Z</time>
      </trkpt>
      <trkpt lat="41.57275" lon="9.1774">
        <ele>117.2</ele>
        <time>2018-05-21T12:40:14Z</time>
      </trkpt>
      <trkpt lat="41.57291" lon="9.17741">
        <ele>117.8</ele>
        <time>2018-05-21T12:40:19Z</time>
      </trkpt>
      <trkpt lat="41.57299" lon="9.17744">
        <ele>117.8</ele>
        <time>2018-05-21T12:40:22Z</time>
      </trkpt>
      <trkpt lat="41.57301" lon="9.17747">
        <ele>117.8</ele>
        <time>2018-05-21T12:40:23Z</time>
      </trkpt>
      <trkpt lat="41.57318" lon="9.17761">
        <ele>117.6</ele>
        <time>2018-05-21T12:40:28Z</time>
      </trkpt>
      <trkpt lat="41.57322" lon="9.17764">
        <ele>117.8</ele>
        <time>2018-05-21T12:40:29Z</time>
      </trkpt>
      <trkpt lat="41.57337" lon="9.17777">
        <ele>118</ele>
        <time>2018-05-21T12:40:33Z</time>
      </trkpt>
      <trkpt lat="41.57345" lon="9.17781">
        <ele>118</ele>
        <time>2018-05-21T12:40:35Z</time>
      </trkpt>
      <trkpt lat="41.57353" lon="9.17786">
        <ele>118</ele>
        <time>2018-05-21T12:40:37Z</time>
      </trkpt>
      <trkpt lat="41.57366" lon="9.17798">
        <ele>118.2</ele>
        <time>2018-05-21T12:40:41Z</time>
      </trkpt>
      <trkpt lat="41.57372" lon="9.17805">
        <ele>118.4</ele>
        <time>2018-05-21T12:40:43Z</time>
      </trkpt>
      <trkpt lat="41.57385" lon="9.17816">
        <ele>118.8</ele>
        <time>2018-05-21T12:40:47Z</time>
      </trkpt>
      <trkpt lat="41.57397" lon="9.17821">
        <ele>118.6</ele>
        <time>2018-05-21T12:40:52Z</time>
      </trkpt>
      <trkpt lat="41.57397" lon="9.17821">
        <ele>118.4</ele>
        <time>2018-05-21T12:40:54Z</time>
      </trkpt>
      <trkpt lat="41.57402" lon="9.17826">
        <ele>117.8</ele>
        <time>2018-05-21T12:41:42Z</time>
      </trkpt>
      <trkpt lat="41.57403" lon="9.17828">
        <ele>117.6</ele>
        <time>2018-05-21T12:41:43Z</time>
      </trkpt>
      <trkpt lat="41.57405" lon="9.17832">
        <ele>117.2</ele>
        <time>2018-05-21T12:41:47Z</time>
      </trkpt>
      <trkpt lat="41.57406" lon="9.17832">
        <ele>117</ele>
        <time>2018-05-21T12:41:48Z</time>
      </trkpt>
      <trkpt lat="41.57406" lon="9.17833">
        <ele>117</ele>
        <time>2018-05-21T12:41:50Z</time>
      </trkpt>
      <trkpt lat="41.57413" lon="9.17848">
        <ele>116.8</ele>
        <time>2018-05-21T12:42:40Z</time>
      </trkpt>
      <trkpt lat="41.57413" lon="9.17851">
        <ele>116.8</ele>
        <time>2018-05-21T12:42:41Z</time>
      </trkpt>
      <trkpt lat="41.57414" lon="9.17876">
        <ele>116.8</ele>
        <time>2018-05-21T12:42:47Z</time>
      </trkpt>
      <trkpt lat="41.57409" lon="9.17919">
        <ele>116.2</ele>
        <time>2018-05-21T12:42:55Z</time>
      </trkpt>
      <trkpt lat="41.57406" lon="9.1793">
        <ele>116.2</ele>
        <time>2018-05-21T12:42:57Z</time>
      </trkpt>
      <trkpt lat="41.57401" lon="9.17949">
        <ele>115.8</ele>
        <time>2018-05-21T12:43:00Z</time>
      </trkpt>
      <trkpt lat="41.57381" lon="9.18001">
        <ele>115.2</ele>
        <time>2018-05-21T12:43:08Z</time>
      </trkpt>
      <trkpt lat="41.57378" lon="9.18007">
        <ele>115</ele>
        <time>2018-05-21T12:43:09Z</time>
      </trkpt>
      <trkpt lat="41.57356" lon="9.18047">
        <ele>114</ele>
        <time>2018-05-21T12:43:15Z</time>
      </trkpt>
      <trkpt lat="41.57335" lon="9.18085">
        <ele>112.8</ele>
        <time>2018-05-21T12:43:20Z</time>
      </trkpt>
      <trkpt lat="41.5733" lon="9.18092">
        <ele>112.2</ele>
        <time>2018-05-21T12:43:21Z</time>
      </trkpt>
      <trkpt lat="41.57316" lon="9.18116">
        <ele>111.6</ele>
        <time>2018-05-21T12:43:24Z</time>
      </trkpt>
      <trkpt lat="41.57298" lon="9.18149">
        <ele>110.2</ele>
        <time>2018-05-21T12:43:28Z</time>
      </trkpt>
      <trkpt lat="41.57279" lon="9.18183">
        <ele>108.8</ele>
        <time>2018-05-21T12:43:32Z</time>
      </trkpt>
      <trkpt lat="41.57268" lon="9.182">
        <ele>108.2</ele>
        <time>2018-05-21T12:43:34Z</time>
      </trkpt>
      <trkpt lat="41.57257" lon="9.18216">
        <ele>107.6</ele>
        <time>2018-05-21T12:43:36Z</time>
      </trkpt>
      <trkpt lat="41.5724" lon="9.18241">
        <ele>106.6</ele>
        <time>2018-05-21T12:43:39Z</time>
      </trkpt>
      <trkpt lat="41.57228" lon="9.18257">
        <ele>105.8</ele>
        <time>2018-05-21T12:43:41Z</time>
      </trkpt>
      <trkpt lat="41.57221" lon="9.18266">
        <ele>105.4</ele>
        <time>2018-05-21T12:43:42Z</time>
      </trkpt>
      <trkpt lat="41.57201" lon="9.18289">
        <ele>104.2</ele>
        <time>2018-05-21T12:43:45Z</time>
      </trkpt>
      <trkpt lat="41.57188" lon="9.18306">
        <ele>103.2</ele>
        <time>2018-05-21T12:43:47Z</time>
      </trkpt>
      <trkpt lat="41.57184" lon="9.18316">
        <ele>102.8</ele>
        <time>2018-05-21T12:43:48Z</time>
      </trkpt>
      <trkpt lat="41.57178" lon="9.18339">
        <ele>102</ele>
        <time>2018-05-21T12:43:50Z</time>
      </trkpt>
      <trkpt lat="41.57176" lon="9.18351">
        <ele>101.6</ele>
        <time>2018-05-21T12:43:51Z</time>
      </trkpt>
      <trkpt lat="41.57173" lon="9.18388">
        <ele>100.4</ele>
        <time>2018-05-21T12:43:54Z</time>
      </trkpt>
      <trkpt lat="41.57172" lon="9.184">
        <ele>100</ele>
        <time>2018-05-21T12:43:55Z</time>
      </trkpt>
      <trkpt lat="41.57167" lon="9.18423">
        <ele>99.2</ele>
        <time>2018-05-21T12:43:57Z</time>
      </trkpt>
      <trkpt lat="41.57156" lon="9.18466">
        <ele>98</ele>
        <time>2018-05-21T12:44:01Z</time>
      </trkpt>
      <trkpt lat="41.57139" lon="9.1849">
        <ele>97.2</ele>
        <time>2018-05-21T12:44:04Z</time>
      </trkpt>
      <trkpt lat="41.57133" lon="9.18496">
        <ele>96.8</ele>
        <time>2018-05-21T12:44:05Z</time>
      </trkpt>
      <trkpt lat="41.5709" lon="9.18536">
        <ele>96.4</ele>
        <time>2018-05-21T12:44:12Z</time>
      </trkpt>
      <trkpt lat="41.57073" lon="9.18556">
        <ele>96.2</ele>
        <time>2018-05-21T12:44:15Z</time>
      </trkpt>
      <trkpt lat="41.57065" lon="9.18572">
        <ele>96</ele>
        <time>2018-05-21T12:44:17Z</time>
      </trkpt>
      <trkpt lat="41.57048" lon="9.18603">
        <ele>95.6</ele>
        <time>2018-05-21T12:44:21Z</time>
      </trkpt>
      <trkpt lat="41.57033" lon="9.18633">
        <ele>95.4</ele>
        <time>2018-05-21T12:44:25Z</time>
      </trkpt>
      <trkpt lat="41.57005" lon="9.18696">
        <ele>94.8</ele>
        <time>2018-05-21T12:44:33Z</time>
      </trkpt>
      <trkpt lat="41.57002" lon="9.18704">
        <ele>94.8</ele>
        <time>2018-05-21T12:44:34Z</time>
      </trkpt>
      <trkpt lat="41.56999" lon="9.18713">
        <ele>94.8</ele>
        <time>2018-05-21T12:44:35Z</time>
      </trkpt>
      <trkpt lat="41.56992" lon="9.1875">
        <ele>94.2</ele>
        <time>2018-05-21T12:44:39Z</time>
      </trkpt>
      <trkpt lat="41.56989" lon="9.18769">
        <ele>93.6</ele>
        <time>2018-05-21T12:44:41Z</time>
      </trkpt>
      <trkpt lat="41.56981" lon="9.18816">
        <ele>92.8</ele>
        <time>2018-05-21T12:44:46Z</time>
      </trkpt>
      <trkpt lat="41.56977" lon="9.18844">
        <ele>92.4</ele>
        <time>2018-05-21T12:44:49Z</time>
      </trkpt>
      <trkpt lat="41.56977" lon="9.18861">
        <ele>92.4</ele>
        <time>2018-05-21T12:44:51Z</time>
      </trkpt>
      <trkpt lat="41.5698" lon="9.18877">
        <ele>92.4</ele>
        <time>2018-05-21T12:44:53Z</time>
      </trkpt>
      <trkpt lat="41.56987" lon="9.18909">
        <ele>92.4</ele>
        <time>2018-05-21T12:44:57Z</time>
      </trkpt>
      <trkpt lat="41.56997" lon="9.18952">
        <ele>93</ele>
        <time>2018-05-21T12:45:03Z</time>
      </trkpt>
      <trkpt lat="41.57002" lon="9.18966">
        <ele>93.4</ele>
        <time>2018-05-21T12:45:05Z</time>
      </trkpt>
      <trkpt lat="41.57007" lon="9.18982">
        <ele>93</ele>
        <time>2018-05-21T12:45:07Z</time>
      </trkpt>
      <trkpt lat="41.57008" lon="9.1899">
        <ele>92.8</ele>
        <time>2018-05-21T12:45:08Z</time>
      </trkpt>
      <trkpt lat="41.57005" lon="9.19015">
        <ele>92.4</ele>
        <time>2018-05-21T12:45:11Z</time>
      </trkpt>
      <trkpt lat="41.57" lon="9.19047">
        <ele>92.2</ele>
        <time>2018-05-21T12:45:15Z</time>
      </trkpt>
      <trkpt lat="41.57" lon="9.19056">
        <ele>92.2</ele>
        <time>2018-05-21T12:45:16Z</time>
      </trkpt>
      <trkpt lat="41.57007" lon="9.191">
        <ele>91.8</ele>
        <time>2018-05-21T12:45:21Z</time>
      </trkpt>
      <trkpt lat="41.5701" lon="9.19126">
        <ele>91.6</ele>
        <time>2018-05-21T12:45:24Z</time>
      </trkpt>
      <trkpt lat="41.5701" lon="9.19135">
        <ele>91.6</ele>
        <time>2018-05-21T12:45:25Z</time>
      </trkpt>
      <trkpt lat="41.57011" lon="9.19151">
        <ele>91.2</ele>
        <time>2018-05-21T12:45:27Z</time>
      </trkpt>
      <trkpt lat="41.57013" lon="9.19158">
        <ele>91.2</ele>
        <time>2018-05-21T12:45:28Z</time>
      </trkpt>
      <trkpt lat="41.57016" lon="9.19175">
        <ele>91.8</ele>
        <time>2018-05-21T12:45:31Z</time>
      </trkpt>
      <trkpt lat="41.57018" lon="9.19185">
        <ele>92.2</ele>
        <time>2018-05-21T12:45:34Z</time>
      </trkpt>
      <trkpt lat="41.57018" lon="9.19185">
        <ele>92.4</ele>
        <time>2018-05-21T12:45:36Z</time>
      </trkpt>
      <trkpt lat="41.57018" lon="9.19193">
        <ele>93</ele>
        <time>2018-05-21T12:46:10Z</time>
      </trkpt>
      <trkpt lat="41.57018" lon="9.19195">
        <ele>93</ele>
        <time>2018-05-21T12:46:11Z</time>
      </trkpt>
      <trkpt lat="41.57018" lon="9.19204">
        <ele>93.6</ele>
        <time>2018-05-21T12:46:14Z</time>
      </trkpt>
      <trkpt lat="41.5702" lon="9.1921">
        <ele>94.2</ele>
        <time>2018-05-21T12:46:16Z</time>
      </trkpt>
      <trkpt lat="41.57021" lon="9.19213">
        <ele>94.6</ele>
        <time>2018-05-21T12:46:17Z</time>
      </trkpt>
      <trkpt lat="41.57021" lon="9.19228">
        <ele>94.8</ele>
        <time>2018-05-21T12:46:23Z</time>
      </trkpt>
      <trkpt lat="41.57021" lon="9.19234">
        <ele>95.2</ele>
        <time>2018-05-21T12:46:25Z</time>
      </trkpt>
      <trkpt lat="41.57022" lon="9.19247">
        <ele>95.4</ele>
        <time>2018-05-21T12:46:28Z</time>
      </trkpt>
      <trkpt lat="41.57025" lon="9.19274">
        <ele>95.2</ele>
        <time>2018-05-21T12:46:33Z</time>
      </trkpt>
      <trkpt lat="41.57017" lon="9.19309">
        <ele>93.8</ele>
        <time>2018-05-21T12:46:38Z</time>
      </trkpt>
      <trkpt lat="41.57015" lon="9.19316">
        <ele>93.8</ele>
        <time>2018-05-21T12:46:39Z</time>
      </trkpt>
      <trkpt lat="41.57009" lon="9.19337">
        <ele>92.8</ele>
        <time>2018-05-21T12:46:42Z</time>
      </trkpt>
      <trkpt lat="41.57008" lon="9.19344">
        <ele>92.8</ele>
        <time>2018-05-21T12:46:43Z</time>
      </trkpt>
      <trkpt lat="41.57006" lon="9.1935">
        <ele>92.8</ele>
        <time>2018-05-21T12:46:44Z</time>
      </trkpt>
      <trkpt lat="41.57006" lon="9.19357">
        <ele>92.8</ele>
        <time>2018-05-21T12:46:45Z</time>
      </trkpt>
      <trkpt lat="41.57004" lon="9.19376">
        <ele>93</ele>
        <time>2018-05-21T12:46:48Z</time>
      </trkpt>
      <trkpt lat="41.57002" lon="9.19385">
        <ele>93</ele>
        <time>2018-05-21T12:46:49Z</time>
      </trkpt>
      <trkpt lat="41.56999" lon="9.19403">
        <ele>91.2</ele>
        <time>2018-05-21T12:46:51Z</time>
      </trkpt>
      <trkpt lat="41.56997" lon="9.19411">
        <ele>90.2</ele>
        <time>2018-05-21T12:46:52Z</time>
      </trkpt>
      <trkpt lat="41.56995" lon="9.19427">
        <ele>88.4</ele>
        <time>2018-05-21T12:46:54Z</time>
      </trkpt>
      <trkpt lat="41.56993" lon="9.19434">
        <ele>87</ele>
        <time>2018-05-21T12:46:55Z</time>
      </trkpt>
      <trkpt lat="41.5699" lon="9.1944">
        <ele>86</ele>
        <time>2018-05-21T12:46:56Z</time>
      </trkpt>
      <trkpt lat="41.56989" lon="9.19446">
        <ele>85.2</ele>
        <time>2018-05-21T12:46:57Z</time>
      </trkpt>
      <trkpt lat="41.5699" lon="9.19451">
        <ele>84</ele>
        <time>2018-05-21T12:46:58Z</time>
      </trkpt>
      <trkpt lat="41.56991" lon="9.19461">
        <ele>82.6</ele>
        <time>2018-05-21T12:47:00Z</time>
      </trkpt>
      <trkpt lat="41.56993" lon="9.19467">
        <ele>82</ele>
        <time>2018-05-21T12:47:01Z</time>
      </trkpt>
      <trkpt lat="41.56994" lon="9.19474">
        <ele>81.4</ele>
        <time>2018-05-21T12:47:02Z</time>
      </trkpt>
      <trkpt lat="41.56996" lon="9.19489">
        <ele>80</ele>
        <time>2018-05-21T12:47:04Z</time>
      </trkpt>
      <trkpt lat="41.56997" lon="9.19497">
        <ele>79.4</ele>
        <time>2018-05-21T12:47:05Z</time>
      </trkpt>
      <trkpt lat="41.56999" lon="9.19505">
        <ele>78.6</ele>
        <time>2018-05-21T12:47:06Z</time>
      </trkpt>
      <trkpt lat="41.57006" lon="9.19537">
        <ele>77.6</ele>
        <time>2018-05-21T12:47:10Z</time>
      </trkpt>
      <trkpt lat="41.57009" lon="9.19542">
        <ele>77.4</ele>
        <time>2018-05-21T12:47:11Z</time>
      </trkpt>
      <trkpt lat="41.57014" lon="9.19553">
        <ele>77.2</ele>
        <time>2018-05-21T12:47:14Z</time>
      </trkpt>
      <trkpt lat="41.57016" lon="9.1956">
        <ele>77.2</ele>
        <time>2018-05-21T12:47:16Z</time>
      </trkpt>
      <trkpt lat="41.57015" lon="9.19564">
        <ele>77.6</ele>
        <time>2018-05-21T12:47:17Z</time>
      </trkpt>
      <trkpt lat="41.57008" lon="9.19574">
        <ele>78.2</ele>
        <time>2018-05-21T12:47:21Z</time>
      </trkpt>
      <trkpt lat="41.57006" lon="9.19577">
        <ele>78.2</ele>
        <time>2018-05-21T12:47:23Z</time>
      </trkpt>
      <trkpt lat="41.57005" lon="9.19581">
        <ele>78</ele>
        <time>2018-05-21T12:47:25Z</time>
      </trkpt>
      <trkpt lat="41.57006" lon="9.19581">
        <ele>77.6</ele>
        <time>2018-05-21T12:47:27Z</time>
      </trkpt>
      <trkpt lat="41.57005" lon="9.19588">
        <ele>77.4</ele>
        <time>2018-05-21T12:47:36Z</time>
      </trkpt>
      <trkpt lat="41.57004" lon="9.19592">
        <ele>77.4</ele>
        <time>2018-05-21T12:47:37Z</time>
      </trkpt>
      <trkpt lat="41.57003" lon="9.19603">
        <ele>77.4</ele>
        <time>2018-05-21T12:47:40Z</time>
      </trkpt>
      <trkpt lat="41.57005" lon="9.19606">
        <ele>77.2</ele>
        <time>2018-05-21T12:47:41Z</time>
      </trkpt>
      <trkpt lat="41.57012" lon="9.1962">
        <ele>76.6</ele>
        <time>2018-05-21T12:47:45Z</time>
      </trkpt>
      <trkpt lat="41.57012" lon="9.19626">
        <ele>76.4</ele>
        <time>2018-05-21T12:47:46Z</time>
      </trkpt>
      <trkpt lat="41.57018" lon="9.19639">
        <ele>75.6</ele>
        <time>2018-05-21T12:47:49Z</time>
      </trkpt>
      <trkpt lat="41.57019" lon="9.19646">
        <ele>75.4</ele>
        <time>2018-05-21T12:47:50Z</time>
      </trkpt>
      <trkpt lat="41.57019" lon="9.19652">
        <ele>75.4</ele>
        <time>2018-05-21T12:47:51Z</time>
      </trkpt>
      <trkpt lat="41.57019" lon="9.19659">
        <ele>75.2</ele>
        <time>2018-05-21T12:47:52Z</time>
      </trkpt>
      <trkpt lat="41.57018" lon="9.19671">
        <ele>75.2</ele>
        <time>2018-05-21T12:47:54Z</time>
      </trkpt>
      <trkpt lat="41.57014" lon="9.19682">
        <ele>75.4</ele>
        <time>2018-05-21T12:47:56Z</time>
      </trkpt>
      <trkpt lat="41.5701" lon="9.19698">
        <ele>75.6</ele>
        <time>2018-05-21T12:47:59Z</time>
      </trkpt>
      <trkpt lat="41.57009" lon="9.19703">
        <ele>75.6</ele>
        <time>2018-05-21T12:48:00Z</time>
      </trkpt>
      <trkpt lat="41.57008" lon="9.19718">
        <ele>76</ele>
        <time>2018-05-21T12:48:03Z</time>
      </trkpt>
      <trkpt lat="41.57008" lon="9.19724">
        <ele>76.2</ele>
        <time>2018-05-21T12:48:04Z</time>
      </trkpt>
      <trkpt lat="41.57007" lon="9.19729">
        <ele>76.4</ele>
        <time>2018-05-21T12:48:05Z</time>
      </trkpt>
      <trkpt lat="41.57006" lon="9.19735">
        <ele>76.6</ele>
        <time>2018-05-21T12:48:06Z</time>
      </trkpt>
      <trkpt lat="41.57005" lon="9.19748">
        <ele>77.2</ele>
        <time>2018-05-21T12:48:08Z</time>
      </trkpt>
      <trkpt lat="41.57005" lon="9.19754">
        <ele>77.6</ele>
        <time>2018-05-21T12:48:09Z</time>
      </trkpt>
      <trkpt lat="41.57007" lon="9.19775">
        <ele>78.8</ele>
        <time>2018-05-21T12:48:12Z</time>
      </trkpt>
      <trkpt lat="41.57007" lon="9.19782">
        <ele>79.4</ele>
        <time>2018-05-21T12:48:13Z</time>
      </trkpt>
      <trkpt lat="41.57007" lon="9.19789">
        <ele>80</ele>
        <time>2018-05-21T12:48:14Z</time>
      </trkpt>
      <trkpt lat="41.57008" lon="9.198">
        <ele>81</ele>
        <time>2018-05-21T12:48:16Z</time>
      </trkpt>
      <trkpt lat="41.57009" lon="9.19808">
        <ele>81.8</ele>
        <time>2018-05-21T12:48:17Z</time>
      </trkpt>
      <trkpt lat="41.57009" lon="9.19815">
        <ele>82.8</ele>
        <time>2018-05-21T12:48:18Z</time>
      </trkpt>
      <trkpt lat="41.5701" lon="9.19822">
        <ele>83.2</ele>
        <time>2018-05-21T12:48:19Z</time>
      </trkpt>
      <trkpt lat="41.57011" lon="9.19834">
        <ele>83.8</ele>
        <time>2018-05-21T12:48:21Z</time>
      </trkpt>
      <trkpt lat="41.57012" lon="9.19842">
        <ele>84.8</ele>
        <time>2018-05-21T12:48:23Z</time>
      </trkpt>
      <trkpt lat="41.57012" lon="9.19846">
        <ele>85.4</ele>
        <time>2018-05-21T12:48:24Z</time>
      </trkpt>
      <trkpt lat="41.57013" lon="9.19859">
        <ele>86.2</ele>
        <time>2018-05-21T12:48:29Z</time>
      </trkpt>
      <trkpt lat="41.57013" lon="9.19861">
        <ele>86.4</ele>
        <time>2018-05-21T12:48:30Z</time>
      </trkpt>
      <trkpt lat="41.57015" lon="9.19868">
        <ele>86.6</ele>
        <time>2018-05-21T12:48:35Z</time>
      </trkpt>
      <trkpt lat="41.57015" lon="9.19868">
        <ele>86.6</ele>
        <time>2018-05-21T12:48:37Z</time>
      </trkpt>
      <trkpt lat="41.57018" lon="9.19874">
        <ele>86.6</ele>
        <time>2018-05-21T12:49:15Z</time>
      </trkpt>
      <trkpt lat="41.5702" lon="9.19877">
        <ele>86.6</ele>
        <time>2018-05-21T12:49:16Z</time>
      </trkpt>
      <trkpt lat="41.57027" lon="9.19888">
        <ele>86.4</ele>
        <time>2018-05-21T12:49:20Z</time>
      </trkpt>
      <trkpt lat="41.57027" lon="9.19891">
        <ele>86.4</ele>
        <time>2018-05-21T12:49:21Z</time>
      </trkpt>
      <trkpt lat="41.57027" lon="9.19899">
        <ele>86.8</ele>
        <time>2018-05-21T12:49:24Z</time>
      </trkpt>
      <trkpt lat="41.57027" lon="9.19902">
        <ele>86.8</ele>
        <time>2018-05-21T12:49:26Z</time>
      </trkpt>
      <trkpt lat="41.57031" lon="9.19908">
        <ele>86.8</ele>
        <time>2018-05-21T12:49:29Z</time>
      </trkpt>
      <trkpt lat="41.57042" lon="9.1992">
        <ele>86.6</ele>
        <time>2018-05-21T12:49:34Z</time>
      </trkpt>
      <trkpt lat="41.57056" lon="9.19937">
        <ele>86</ele>
        <time>2018-05-21T12:49:39Z</time>
      </trkpt>
      <trkpt lat="41.57062" lon="9.19947">
        <ele>85.6</ele>
        <time>2018-05-21T12:49:41Z</time>
      </trkpt>
      <trkpt lat="41.57064" lon="9.19958">
        <ele>84.6</ele>
        <time>2018-05-21T12:49:43Z</time>
      </trkpt>
      <trkpt lat="41.57065" lon="9.19963">
        <ele>84.2</ele>
        <time>2018-05-21T12:49:44Z</time>
      </trkpt>
      <trkpt lat="41.57068" lon="9.19973">
        <ele>83.2</ele>
        <time>2018-05-21T12:49:46Z</time>
      </trkpt>
      <trkpt lat="41.57072" lon="9.19979">
        <ele>83.2</ele>
        <time>2018-05-21T12:49:47Z</time>
      </trkpt>
      <trkpt lat="41.57088" lon="9.19997">
        <ele>81.8</ele>
        <time>2018-05-21T12:49:51Z</time>
      </trkpt>
      <trkpt lat="41.5709" lon="9.20003">
        <ele>81.2</ele>
        <time>2018-05-21T12:49:52Z</time>
      </trkpt>
      <trkpt lat="41.57092" lon="9.2001">
        <ele>80.4</ele>
        <time>2018-05-21T12:49:53Z</time>
      </trkpt>
      <trkpt lat="41.57094" lon="9.20026">
        <ele>78.6</ele>
        <time>2018-05-21T12:49:55Z</time>
      </trkpt>
      <trkpt lat="41.57094" lon="9.20036">
        <ele>77.2</ele>
        <time>2018-05-21T12:49:56Z</time>
      </trkpt>
      <trkpt lat="41.57094" lon="9.20046">
        <ele>76</ele>
        <time>2018-05-21T12:49:57Z</time>
      </trkpt>
      <trkpt lat="41.57092" lon="9.20057">
        <ele>75.2</ele>
        <time>2018-05-21T12:49:58Z</time>
      </trkpt>
      <trkpt lat="41.57091" lon="9.20068">
        <ele>74.6</ele>
        <time>2018-05-21T12:49:59Z</time>
      </trkpt>
      <trkpt lat="41.57091" lon="9.20079">
        <ele>73.8</ele>
        <time>2018-05-21T12:50:00Z</time>
      </trkpt>
      <trkpt lat="41.5709" lon="9.2009">
        <ele>73.2</ele>
        <time>2018-05-21T12:50:01Z</time>
      </trkpt>
      <trkpt lat="41.5709" lon="9.20101">
        <ele>71.6</ele>
        <time>2018-05-21T12:50:02Z</time>
      </trkpt>
      <trkpt lat="41.57091" lon="9.20116">
        <ele>69.6</ele>
        <time>2018-05-21T12:50:04Z</time>
      </trkpt>
      <trkpt lat="41.57094" lon="9.20119">
        <ele>68.6</ele>
        <time>2018-05-21T12:50:05Z</time>
      </trkpt>
      <trkpt lat="41.57096" lon="9.20121">
        <ele>67.4</ele>
        <time>2018-05-21T12:50:06Z</time>
      </trkpt>
      <trkpt lat="41.57098" lon="9.20122">
        <ele>66.8</ele>
        <time>2018-05-21T12:50:07Z</time>
      </trkpt>
      <trkpt lat="41.57106" lon="9.20124">
        <ele>66.4</ele>
        <time>2018-05-21T12:50:10Z</time>
      </trkpt>
      <trkpt lat="41.57109" lon="9.20124">
        <ele>66.4</ele>
        <time>2018-05-21T12:50:11Z</time>
      </trkpt>
      <trkpt lat="41.57119" lon="9.20124">
        <ele>66.2</ele>
        <time>2018-05-21T12:50:13Z</time>
      </trkpt>
      <trkpt lat="41.57129" lon="9.20129">
        <ele>65.8</ele>
        <time>2018-05-21T12:50:15Z</time>
      </trkpt>
      <trkpt lat="41.57137" lon="9.20129">
        <ele>65.4</ele>
        <time>2018-05-21T12:50:17Z</time>
      </trkpt>
      <trkpt lat="41.5714" lon="9.20128">
        <ele>65</ele>
        <time>2018-05-21T12:50:18Z</time>
      </trkpt>
      <trkpt lat="41.57144" lon="9.20128">
        <ele>64.6</ele>
        <time>2018-05-21T12:50:19Z</time>
      </trkpt>
      <trkpt lat="41.57153" lon="9.20129">
        <ele>64.4</ele>
        <time>2018-05-21T12:50:21Z</time>
      </trkpt>
      <trkpt lat="41.57157" lon="9.20128">
        <ele>64.2</ele>
        <time>2018-05-21T12:50:22Z</time>
      </trkpt>
      <trkpt lat="41.57165" lon="9.20126">
        <ele>64.4</ele>
        <time>2018-05-21T12:50:24Z</time>
      </trkpt>
      <trkpt lat="41.57177" lon="9.20115">
        <ele>63.2</ele>
        <time>2018-05-21T12:50:28Z</time>
      </trkpt>
      <trkpt lat="41.57185" lon="9.2012">
        <ele>62.2</ele>
        <time>2018-05-21T12:50:31Z</time>
      </trkpt>
      <trkpt lat="41.57193" lon="9.2012">
        <ele>62.2</ele>
        <time>2018-05-21T12:50:34Z</time>
      </trkpt>
      <trkpt lat="41.57199" lon="9.20118">
        <ele>62</ele>
        <time>2018-05-21T12:50:36Z</time>
      </trkpt>
      <trkpt lat="41.57208" lon="9.20116">
        <ele>61.8</ele>
        <time>2018-05-21T12:50:39Z</time>
      </trkpt>
      <trkpt lat="41.57219" lon="9.20119">
        <ele>60.8</ele>
        <time>2018-05-21T12:50:42Z</time>
      </trkpt>
      <trkpt lat="41.57222" lon="9.2012">
        <ele>60.6</ele>
        <time>2018-05-21T12:50:43Z</time>
      </trkpt>
      <trkpt lat="41.57226" lon="9.20118">
        <ele>59.4</ele>
        <time>2018-05-21T12:50:45Z</time>
      </trkpt>
      <trkpt lat="41.57228" lon="9.20116">
        <ele>59.6</ele>
        <time>2018-05-21T12:50:46Z</time>
      </trkpt>
      <trkpt lat="41.57233" lon="9.20116">
        <ele>59.2</ele>
        <time>2018-05-21T12:50:48Z</time>
      </trkpt>
      <trkpt lat="41.57234" lon="9.20115">
        <ele>59.2</ele>
        <time>2018-05-21T12:50:49Z</time>
      </trkpt>
      <trkpt lat="41.57236" lon="9.20115">
        <ele>59</ele>
        <time>2018-05-21T12:50:50Z</time>
      </trkpt>
      <trkpt lat="41.57236" lon="9.20114">
        <ele>58.6</ele>
        <time>2018-05-21T12:50:52Z</time>
      </trkpt>
      <trkpt lat="41.5725" lon="9.20115">
        <ele>57.6</ele>
        <time>2018-05-21T12:51:23Z</time>
      </trkpt>
      <trkpt lat="41.57255" lon="9.20115">
        <ele>57.2</ele>
        <time>2018-05-21T12:51:25Z</time>
      </trkpt>
      <trkpt lat="41.57265" lon="9.20114">
        <ele>56.4</ele>
        <time>2018-05-21T12:51:29Z</time>
      </trkpt>
      <trkpt lat="41.57272" lon="9.20115">
        <ele>55.8</ele>
        <time>2018-05-21T12:51:31Z</time>
      </trkpt>
      <trkpt lat="41.57276" lon="9.20119">
        <ele>55.4</ele>
        <time>2018-05-21T12:51:33Z</time>
      </trkpt>
      <trkpt lat="41.57283" lon="9.20128">
        <ele>54.6</ele>
        <time>2018-05-21T12:51:38Z</time>
      </trkpt>
      <trkpt lat="41.57287" lon="9.20134">
        <ele>54.4</ele>
        <time>2018-05-21T12:51:40Z</time>
      </trkpt>
      <trkpt lat="41.57292" lon="9.20138">
        <ele>54.4</ele>
        <time>2018-05-21T12:51:42Z</time>
      </trkpt>
      <trkpt lat="41.57296" lon="9.20146">
        <ele>53.8</ele>
        <time>2018-05-21T12:51:45Z</time>
      </trkpt>
      <trkpt lat="41.57296" lon="9.20151">
        <ele>53.6</ele>
        <time>2018-05-21T12:51:47Z</time>
      </trkpt>
      <trkpt lat="41.57296" lon="9.20167">
        <ele>53.4</ele>
        <time>2018-05-21T12:51:52Z</time>
      </trkpt>
      <trkpt lat="41.57296" lon="9.2017">
        <ele>53.4</ele>
        <time>2018-05-21T12:51:53Z</time>
      </trkpt>
      <trkpt lat="41.57292" lon="9.20184">
        <ele>52.6</ele>
        <time>2018-05-21T12:51:57Z</time>
      </trkpt>
      <trkpt lat="41.57286" lon="9.20198">
        <ele>52.2</ele>
        <time>2018-05-21T12:52:01Z</time>
      </trkpt>
      <trkpt lat="41.57283" lon="9.20207">
        <ele>52.2</ele>
        <time>2018-05-21T12:52:03Z</time>
      </trkpt>
      <trkpt lat="41.57274" lon="9.20223">
        <ele>51.6</ele>
        <time>2018-05-21T12:52:07Z</time>
      </trkpt>
      <trkpt lat="41.57266" lon="9.20236">
        <ele>51.2</ele>
        <time>2018-05-21T12:52:11Z</time>
      </trkpt>
      <trkpt lat="41.57263" lon="9.20239">
        <ele>51.2</ele>
        <time>2018-05-21T12:52:12Z</time>
      </trkpt>
      <trkpt lat="41.57252" lon="9.20247">
        <ele>51.4</ele>
        <time>2018-05-21T12:52:16Z</time>
      </trkpt>
      <trkpt lat="41.57251" lon="9.20249">
        <ele>51.6</ele>
        <time>2018-05-21T12:52:17Z</time>
      </trkpt>
      <trkpt lat="41.57247" lon="9.20259">
        <ele>52.2</ele>
        <time>2018-05-21T12:52:20Z</time>
      </trkpt>
      <trkpt lat="41.57239" lon="9.20276">
        <ele>51.6</ele>
        <time>2018-05-21T12:52:24Z</time>
      </trkpt>
      <trkpt lat="41.57237" lon="9.20281">
        <ele>51.6</ele>
        <time>2018-05-21T12:52:25Z</time>
      </trkpt>
      <trkpt lat="41.57225" lon="9.20299">
        <ele>51</ele>
        <time>2018-05-21T12:52:29Z</time>
      </trkpt>
      <trkpt lat="41.57211" lon="9.20317">
        <ele>49.8</ele>
        <time>2018-05-21T12:52:34Z</time>
      </trkpt>
      <trkpt lat="41.57207" lon="9.20322">
        <ele>49.6</ele>
        <time>2018-05-21T12:52:35Z</time>
      </trkpt>
      <trkpt lat="41.57197" lon="9.20335">
        <ele>49.4</ele>
        <time>2018-05-21T12:52:38Z</time>
      </trkpt>
      <trkpt lat="41.57191" lon="9.2035">
        <ele>49.2</ele>
        <time>2018-05-21T12:52:41Z</time>
      </trkpt>
      <trkpt lat="41.5719" lon="9.20363">
        <ele>49.2</ele>
        <time>2018-05-21T12:52:43Z</time>
      </trkpt>
      <trkpt lat="41.57186" lon="9.20376">
        <ele>48.8</ele>
        <time>2018-05-21T12:52:45Z</time>
      </trkpt>
      <trkpt lat="41.57184" lon="9.20383">
        <ele>48.6</ele>
        <time>2018-05-21T12:52:46Z</time>
      </trkpt>
      <trkpt lat="41.57181" lon="9.20389">
        <ele>48.4</ele>
        <time>2018-05-21T12:52:47Z</time>
      </trkpt>
      <trkpt lat="41.57174" lon="9.20405">
        <ele>48</ele>
        <time>2018-05-21T12:52:50Z</time>
      </trkpt>
      <trkpt lat="41.57172" lon="9.20411">
        <ele>47.8</ele>
        <time>2018-05-21T12:52:51Z</time>
      </trkpt>
      <trkpt lat="41.57169" lon="9.20416">
        <ele>47.8</ele>
        <time>2018-05-21T12:52:52Z</time>
      </trkpt>
      <trkpt lat="41.57159" lon="9.2043">
        <ele>47.2</ele>
        <time>2018-05-21T12:52:55Z</time>
      </trkpt>
      <trkpt lat="41.57152" lon="9.20439">
        <ele>47.2</ele>
        <time>2018-05-21T12:52:57Z</time>
      </trkpt>
      <trkpt lat="41.57143" lon="9.20451">
        <ele>47</ele>
        <time>2018-05-21T12:53:00Z</time>
      </trkpt>
      <trkpt lat="41.57133" lon="9.20464">
        <ele>46.2</ele>
        <time>2018-05-21T12:53:03Z</time>
      </trkpt>
      <trkpt lat="41.57124" lon="9.20477">
        <ele>45.4</ele>
        <time>2018-05-21T12:53:06Z</time>
      </trkpt>
      <trkpt lat="41.57103" lon="9.20504">
        <ele>45.2</ele>
        <time>2018-05-21T12:53:13Z</time>
      </trkpt>
      <trkpt lat="41.57083" lon="9.20514">
        <ele>44.8</ele>
        <time>2018-05-21T12:53:18Z</time>
      </trkpt>
      <trkpt lat="41.5707" lon="9.20519">
        <ele>44.8</ele>
        <time>2018-05-21T12:53:21Z</time>
      </trkpt>
      <trkpt lat="41.57062" lon="9.20522">
        <ele>44.6</ele>
        <time>2018-05-21T12:53:23Z</time>
      </trkpt>
      <trkpt lat="41.57047" lon="9.20528">
        <ele>44</ele>
        <time>2018-05-21T12:53:26Z</time>
      </trkpt>
      <trkpt lat="41.57037" lon="9.2053">
        <ele>43.8</ele>
        <time>2018-05-21T12:53:28Z</time>
      </trkpt>
      <trkpt lat="41.57019" lon="9.20533">
        <ele>43.8</ele>
        <time>2018-05-21T12:53:32Z</time>
      </trkpt>
      <trkpt lat="41.57015" lon="9.20534">
        <ele>43.8</ele>
        <time>2018-05-21T12:53:33Z</time>
      </trkpt>
      <trkpt lat="41.57002" lon="9.20535">
        <ele>43.4</ele>
        <time>2018-05-21T12:53:36Z</time>
      </trkpt>
      <trkpt lat="41.56993" lon="9.20533">
        <ele>43.4</ele>
        <time>2018-05-21T12:53:38Z</time>
      </trkpt>
      <trkpt lat="41.56974" lon="9.20534">
        <ele>43</ele>
        <time>2018-05-21T12:53:43Z</time>
      </trkpt>
      <trkpt lat="41.56972" lon="9.20548">
        <ele>42.6</ele>
        <time>2018-05-21T12:53:47Z</time>
      </trkpt>
      <trkpt lat="41.56971" lon="9.20559">
        <ele>42</ele>
        <time>2018-05-21T12:53:49Z</time>
      </trkpt>
      <trkpt lat="41.56968" lon="9.20576">
        <ele>41.6</ele>
        <time>2018-05-21T12:53:52Z</time>
      </trkpt>
      <trkpt lat="41.56966" lon="9.20595">
        <ele>41.6</ele>
        <time>2018-05-21T12:53:55Z</time>
      </trkpt>
      <trkpt lat="41.56965" lon="9.20612">
        <ele>41.4</ele>
        <time>2018-05-21T12:53:58Z</time>
      </trkpt>
      <trkpt lat="41.56962" lon="9.20637">
        <ele>41.4</ele>
        <time>2018-05-21T12:54:03Z</time>
      </trkpt>
      <trkpt lat="41.56963" lon="9.20642">
        <ele>41</ele>
        <time>2018-05-21T12:54:07Z</time>
      </trkpt>
      <trkpt lat="41.56964" lon="9.20649">
        <ele>40.8</ele>
        <time>2018-05-21T12:54:23Z</time>
      </trkpt>
      <trkpt lat="41.56965" lon="9.20656">
        <ele>41</ele>
        <time>2018-05-21T12:54:25Z</time>
      </trkpt>
      <trkpt lat="41.56966" lon="9.20684">
        <ele>40.8</ele>
        <time>2018-05-21T12:54:31Z</time>
      </trkpt>
      <trkpt lat="41.56967" lon="9.20701">
        <ele>40.4</ele>
        <time>2018-05-21T12:54:34Z</time>
      </trkpt>
      <trkpt lat="41.56968" lon="9.20721">
        <ele>40</ele>
        <time>2018-05-21T12:54:38Z</time>
      </trkpt>
      <trkpt lat="41.56968" lon="9.20729">
        <ele>40</ele>
        <time>2018-05-21T12:54:42Z</time>
      </trkpt>
      <trkpt lat="41.56968" lon="9.20736">
        <ele>40</ele>
        <time>2018-05-21T12:56:14Z</time>
      </trkpt>
      <trkpt lat="41.56967" lon="9.20741">
        <ele>40</ele>
        <time>2018-05-21T12:56:16Z</time>
      </trkpt>
      <trkpt lat="41.56967" lon="9.20757">
        <ele>40.2</ele>
        <time>2018-05-21T12:56:21Z</time>
      </trkpt>
      <trkpt lat="41.56965" lon="9.20777">
        <ele>40</ele>
        <time>2018-05-21T12:56:26Z</time>
      </trkpt>
      <trkpt lat="41.56964" lon="9.208">
        <ele>39.8</ele>
        <time>2018-05-21T12:56:31Z</time>
      </trkpt>
      <trkpt lat="41.56964" lon="9.20819">
        <ele>39.4</ele>
        <time>2018-05-21T12:56:35Z</time>
      </trkpt>
      <trkpt lat="41.56962" lon="9.20841">
        <ele>39</ele>
        <time>2018-05-21T12:56:39Z</time>
      </trkpt>
      <trkpt lat="41.56962" lon="9.20868">
        <ele>38.6</ele>
        <time>2018-05-21T12:56:43Z</time>
      </trkpt>
      <trkpt lat="41.56962" lon="9.20881">
        <ele>38.2</ele>
        <time>2018-05-21T12:56:45Z</time>
      </trkpt>
      <trkpt lat="41.56963" lon="9.20901">
        <ele>38</ele>
        <time>2018-05-21T12:56:48Z</time>
      </trkpt>
      <trkpt lat="41.56963" lon="9.20907">
        <ele>37.8</ele>
        <time>2018-05-21T12:56:49Z</time>
      </trkpt>
      <trkpt lat="41.56963" lon="9.20914">
        <ele>37.8</ele>
        <time>2018-05-21T12:56:50Z</time>
      </trkpt>
      <trkpt lat="41.56963" lon="9.2092">
        <ele>37.8</ele>
        <time>2018-05-21T12:56:51Z</time>
      </trkpt>
      <trkpt lat="41.56963" lon="9.20933">
        <ele>37.4</ele>
        <time>2018-05-21T12:56:53Z</time>
      </trkpt>
      <trkpt lat="41.56962" lon="9.20946">
        <ele>37.4</ele>
        <time>2018-05-21T12:56:55Z</time>
      </trkpt>
      <trkpt lat="41.56962" lon="9.20964">
        <ele>37.2</ele>
        <time>2018-05-21T12:56:58Z</time>
      </trkpt>
      <trkpt lat="41.56965" lon="9.20986">
        <ele>36.6</ele>
        <time>2018-05-21T12:57:01Z</time>
      </trkpt>
      <trkpt lat="41.56965" lon="9.20993">
        <ele>36.6</ele>
        <time>2018-05-21T12:57:02Z</time>
      </trkpt>
      <trkpt lat="41.56966" lon="9.21009">
        <ele>36.4</ele>
        <time>2018-05-21T12:57:04Z</time>
      </trkpt>
      <trkpt lat="41.56966" lon="9.21016">
        <ele>36.4</ele>
        <time>2018-05-21T12:57:05Z</time>
      </trkpt>
      <trkpt lat="41.56966" lon="9.21038">
        <ele>36.2</ele>
        <time>2018-05-21T12:57:08Z</time>
      </trkpt>
      <trkpt lat="41.56966" lon="9.21046">
        <ele>36</ele>
        <time>2018-05-21T12:57:09Z</time>
      </trkpt>
      <trkpt lat="41.56967" lon="9.21053">
        <ele>36</ele>
        <time>2018-05-21T12:57:10Z</time>
      </trkpt>
      <trkpt lat="41.5697" lon="9.21075">
        <ele>35.6</ele>
        <time>2018-05-21T12:57:13Z</time>
      </trkpt>
      <trkpt lat="41.56973" lon="9.21098">
        <ele>35.4</ele>
        <time>2018-05-21T12:57:16Z</time>
      </trkpt>
      <trkpt lat="41.56974" lon="9.21105">
        <ele>35.4</ele>
        <time>2018-05-21T12:57:17Z</time>
      </trkpt>
      <trkpt lat="41.56977" lon="9.2112">
        <ele>35</ele>
        <time>2018-05-21T12:57:19Z</time>
      </trkpt>
      <trkpt lat="41.56981" lon="9.2115">
        <ele>34.6</ele>
        <time>2018-05-21T12:57:23Z</time>
      </trkpt>
      <trkpt lat="41.56993" lon="9.21174">
        <ele>34.2</ele>
        <time>2018-05-21T12:57:27Z</time>
      </trkpt>
      <trkpt lat="41.57022" lon="9.21212">
        <ele>34.2</ele>
        <time>2018-05-21T12:57:35Z</time>
      </trkpt>
      <trkpt lat="41.57038" lon="9.21232">
        <ele>33.6</ele>
        <time>2018-05-21T12:57:39Z</time>
      </trkpt>
      <trkpt lat="41.57047" lon="9.21239">
        <ele>33.4</ele>
        <time>2018-05-21T12:57:41Z</time>
      </trkpt>
      <trkpt lat="41.5706" lon="9.21246">
        <ele>33.2</ele>
        <time>2018-05-21T12:57:44Z</time>
      </trkpt>
      <trkpt lat="41.57062" lon="9.21251">
        <ele>33</ele>
        <time>2018-05-21T12:57:45Z</time>
      </trkpt>
      <trkpt lat="41.57065" lon="9.21255">
        <ele>33</ele>
        <time>2018-05-21T12:57:46Z</time>
      </trkpt>
      <trkpt lat="41.57074" lon="9.21268">
        <ele>33.2</ele>
        <time>2018-05-21T12:57:49Z</time>
      </trkpt>
      <trkpt lat="41.57087" lon="9.21282">
        <ele>33.6</ele>
        <time>2018-05-21T12:57:53Z</time>
      </trkpt>
      <trkpt lat="41.57105" lon="9.21282">
        <ele>33.8</ele>
        <time>2018-05-21T12:57:57Z</time>
      </trkpt>
      <trkpt lat="41.57113" lon="9.21279">
        <ele>34</ele>
        <time>2018-05-21T12:57:59Z</time>
      </trkpt>
      <trkpt lat="41.57118" lon="9.21277">
        <ele>34</ele>
        <time>2018-05-21T12:58:00Z</time>
      </trkpt>
      <trkpt lat="41.57122" lon="9.21278">
        <ele>34</ele>
        <time>2018-05-21T12:58:01Z</time>
      </trkpt>
      <trkpt lat="41.5713" lon="9.2129">
        <ele>34.2</ele>
        <time>2018-05-21T12:58:04Z</time>
      </trkpt>
      <trkpt lat="41.57134" lon="9.21301">
        <ele>34.2</ele>
        <time>2018-05-21T12:58:06Z</time>
      </trkpt>
      <trkpt lat="41.57136" lon="9.21311">
        <ele>34.6</ele>
        <time>2018-05-21T12:58:08Z</time>
      </trkpt>
      <trkpt lat="41.57143" lon="9.21323">
        <ele>35.6</ele>
        <time>2018-05-21T12:58:11Z</time>
      </trkpt>
      <trkpt lat="41.57145" lon="9.21326">
        <ele>35.8</ele>
        <time>2018-05-21T12:58:12Z</time>
      </trkpt>
      <trkpt lat="41.57152" lon="9.21336">
        <ele>36.8</ele>
        <time>2018-05-21T12:58:15Z</time>
      </trkpt>
      <trkpt lat="41.57153" lon="9.2134">
        <ele>37.2</ele>
        <time>2018-05-21T12:58:16Z</time>
      </trkpt>
      <trkpt lat="41.5716" lon="9.21355">
        <ele>38.2</ele>
        <time>2018-05-21T12:58:20Z</time>
      </trkpt>
      <trkpt lat="41.57164" lon="9.21367">
        <ele>38.6</ele>
        <time>2018-05-21T12:58:23Z</time>
      </trkpt>
      <trkpt lat="41.57168" lon="9.21374">
        <ele>38.8</ele>
        <time>2018-05-21T12:58:25Z</time>
      </trkpt>
      <trkpt lat="41.57174" lon="9.21377">
        <ele>38.8</ele>
        <time>2018-05-21T12:58:27Z</time>
      </trkpt>
      <trkpt lat="41.57191" lon="9.21391">
        <ele>37.8</ele>
        <time>2018-05-21T12:58:32Z</time>
      </trkpt>
      <trkpt lat="41.57199" lon="9.21404">
        <ele>37</ele>
        <time>2018-05-21T12:58:36Z</time>
      </trkpt>
      <trkpt lat="41.572" lon="9.21407">
        <ele>36.4</ele>
        <time>2018-05-21T12:58:39Z</time>
      </trkpt>
      <trkpt lat="41.57151" lon="9.21452">
        <ele>37.6</ele>
      </trkpt>
      <trkpt lat="41.57081" lon="9.21483">
        <ele>35.6</ele>
      </trkpt>
      <trkpt lat="41.57035" lon="9.21468">
        <ele>34.6</ele>
      </trkpt>
      <trkpt lat="41.57013" lon="9.21531">
        <ele>31.3</ele>
      </trkpt>
      <trkpt lat="41.5699" lon="9.21592">
        <ele>28.4</ele>
      </trkpt>
      <trkpt lat="41.56942" lon="9.21634">
        <ele>27.7</ele>
      </trkpt>
      <trkpt lat="41.56792" lon="9.21601">
        <ele>27.1</ele>
      </trkpt>
      <trkpt lat="41.56767" lon="9.21619">
        <ele>27.2</ele>
      </trkpt>
      <trkpt lat="41.56826" lon="9.21741">
        <ele>24.9</ele>
      </trkpt>
      <trkpt lat="41.56888" lon="9.21911">
        <ele>29.7</ele>
      </trkpt>
      <trkpt lat="41.56974" lon="9.22178">
        <ele>24.8</ele>
      </trkpt>
      <trkpt lat="41.5704" lon="9.2232">
        <ele>24.1</ele>
      </trkpt>
      <trkpt lat="41.57196" lon="9.22612">
        <ele>18.9</ele>
      </trkpt>
      <trkpt lat="41.57271" lon="9.22763">
        <ele>16.4</ele>
      </trkpt>
      <trkpt lat="41.57492" lon="9.231">
        <ele>18.7</ele>
      </trkpt>
      <trkpt lat="41.57616" lon="9.23282">
        <ele>20.2</ele>
      </trkpt>
      <trkpt lat="41.57698" lon="9.23683">
        <ele>15.4</ele>
      </trkpt>
      <trkpt lat="41.57769" lon="9.24071">
        <ele>15.3</ele>
      </trkpt>
      <trkpt lat="41.57837" lon="9.24211">
        <ele>14.7</ele>
      </trkpt>
      <trkpt lat="41.57857" lon="9.24284">
        <ele>14.5</ele>
      </trkpt>
      <trkpt lat="41.57857" lon="9.24405">
        <ele>13.7</ele>
      </trkpt>
      <trkpt lat="41.57859" lon="9.24526">
        <ele>12.7</ele>
      </trkpt>
      <trkpt lat="41.57891" lon="9.24654">
        <ele>14.1</ele>
      </trkpt>
      <trkpt lat="41.57984" lon="9.2517">
        <ele>19.7</ele>
      </trkpt>
      <trkpt lat="41.58086" lon="9.25807">
        <ele>15.6</ele>
      </trkpt>
      <trkpt lat="41.5815" lon="9.26138">
        <ele>14.9</ele>
      </trkpt>
      <trkpt lat="41.5822" lon="9.26226">
        <ele>15.4</ele>
      </trkpt>
      <trkpt lat="41.58272" lon="9.26408">
        <ele>19.7</ele>
      </trkpt>
      <trkpt lat="41.58275" lon="9.26459">
        <ele>20.3</ele>
      </trkpt>
    </trkseg>
  </trk>
  <trk>
    <name><![CDATA[Arca Pianelli Muratello Borivoli_2]]></name>
    <trkseg>
      <trkpt lat="41.572" lon="9.21407">
        <ele>36.4</ele>
        <time>2018-05-21T12:58:39Z</time>
      </trkpt>
      <trkpt lat="41.572" lon="9.21407">
        <ele>36.4</ele>
        <time>2018-05-21T12:58:39Z</time>
      </trkpt>
      <trkpt lat="41.57203" lon="9.21413">
        <ele>36.2</ele>
        <time>2018-05-21T12:59:12Z</time>
      </trkpt>
      <trkpt lat="41.57218" lon="9.21421">
        <ele>36.2</ele>
        <time>2018-05-21T12:59:17Z</time>
      </trkpt>
      <trkpt lat="41.57242" lon="9.21425">
        <ele>36.4</ele>
        <time>2018-05-21T12:59:24Z</time>
      </trkpt>
      <trkpt lat="41.57263" lon="9.21422">
        <ele>36.6</ele>
        <time>2018-05-21T12:59:30Z</time>
      </trkpt>
      <trkpt lat="41.57294" lon="9.21401">
        <ele>37.2</ele>
        <time>2018-05-21T12:59:39Z</time>
      </trkpt>
      <trkpt lat="41.5732" lon="9.21383">
        <ele>37.8</ele>
        <time>2018-05-21T12:59:47Z</time>
      </trkpt>
      <trkpt lat="41.57341" lon="9.21366">
        <ele>39</ele>
        <time>2018-05-21T12:59:54Z</time>
      </trkpt>
      <trkpt lat="41.57353" lon="9.21345">
        <ele>39</ele>
        <time>2018-05-21T12:59:59Z</time>
      </trkpt>
      <trkpt lat="41.57355" lon="9.2134">
        <ele>39</ele>
        <time>2018-05-21T13:00:00Z</time>
      </trkpt>
      <trkpt lat="41.57357" lon="9.21335">
        <ele>38.8</ele>
        <time>2018-05-21T13:00:01Z</time>
      </trkpt>
      <trkpt lat="41.57368" lon="9.21313">
        <ele>38.2</ele>
        <time>2018-05-21T13:00:05Z</time>
      </trkpt>
      <trkpt lat="41.57385" lon="9.21283">
        <ele>38.2</ele>
        <time>2018-05-21T13:00:11Z</time>
      </trkpt>
      <trkpt lat="41.5739" lon="9.21273">
        <ele>38.4</ele>
        <time>2018-05-21T13:00:13Z</time>
      </trkpt>
      <trkpt lat="41.57392" lon="9.21268">
        <ele>38.6</ele>
        <time>2018-05-21T13:00:14Z</time>
      </trkpt>
      <trkpt lat="41.574" lon="9.21241">
        <ele>39.4</ele>
        <time>2018-05-21T13:00:19Z</time>
      </trkpt>
      <trkpt lat="41.57406" lon="9.21218">
        <ele>40</ele>
        <time>2018-05-21T13:00:23Z</time>
      </trkpt>
      <trkpt lat="41.57414" lon="9.21195">
        <ele>40.2</ele>
        <time>2018-05-21T13:00:27Z</time>
      </trkpt>
      <trkpt lat="41.57433" lon="9.21153">
        <ele>40.8</ele>
        <time>2018-05-21T13:00:35Z</time>
      </trkpt>
      <trkpt lat="41.57441" lon="9.21137">
        <ele>41.2</ele>
        <time>2018-05-21T13:00:38Z</time>
      </trkpt>
      <trkpt lat="41.57458" lon="9.21107">
        <ele>41.6</ele>
        <time>2018-05-21T13:00:44Z</time>
      </trkpt>
      <trkpt lat="41.57476" lon="9.2108">
        <ele>42</ele>
        <time>2018-05-21T13:00:50Z</time>
      </trkpt>
      <trkpt lat="41.57479" lon="9.21076">
        <ele>42.2</ele>
        <time>2018-05-21T13:00:51Z</time>
      </trkpt>
      <trkpt lat="41.57482" lon="9.21071">
        <ele>42.2</ele>
        <time>2018-05-21T13:00:52Z</time>
      </trkpt>
      <trkpt lat="41.57499" lon="9.21039">
        <ele>42.4</ele>
        <time>2018-05-21T13:00:58Z</time>
      </trkpt>
      <trkpt lat="41.57514" lon="9.21">
        <ele>43.2</ele>
        <time>2018-05-21T13:01:05Z</time>
      </trkpt>
      <trkpt lat="41.57515" lon="9.20994">
        <ele>43.2</ele>
        <time>2018-05-21T13:01:06Z</time>
      </trkpt>
      <trkpt lat="41.5752" lon="9.20978">
        <ele>43.6</ele>
        <time>2018-05-21T13:01:09Z</time>
      </trkpt>
      <trkpt lat="41.57522" lon="9.20972">
        <ele>43.8</ele>
        <time>2018-05-21T13:01:10Z</time>
      </trkpt>
      <trkpt lat="41.5753" lon="9.20952">
        <ele>44.2</ele>
        <time>2018-05-21T13:01:14Z</time>
      </trkpt>
      <trkpt lat="41.57542" lon="9.20933">
        <ele>44.8</ele>
        <time>2018-05-21T13:01:18Z</time>
      </trkpt>
      <trkpt lat="41.57545" lon="9.20929">
        <ele>44.8</ele>
        <time>2018-05-21T13:01:19Z</time>
      </trkpt>
      <trkpt lat="41.5756" lon="9.20915">
        <ele>45.4</ele>
        <time>2018-05-21T13:01:23Z</time>
      </trkpt>
      <trkpt lat="41.57565" lon="9.20912">
        <ele>45.4</ele>
        <time>2018-05-21T13:01:24Z</time>
      </trkpt>
      <trkpt lat="41.576" lon="9.20891">
        <ele>45.8</ele>
        <time>2018-05-21T13:01:32Z</time>
      </trkpt>
      <trkpt lat="41.57617" lon="9.20883">
        <ele>45.8</ele>
        <time>2018-05-21T13:01:36Z</time>
      </trkpt>
      <trkpt lat="41.57623" lon="9.20875">
        <ele>46</ele>
        <time>2018-05-21T13:01:38Z</time>
      </trkpt>
      <trkpt lat="41.57627" lon="9.20859">
        <ele>46.2</ele>
        <time>2018-05-21T13:01:41Z</time>
      </trkpt>
      <trkpt lat="41.57627" lon="9.20854">
        <ele>46.2</ele>
        <time>2018-05-21T13:01:42Z</time>
      </trkpt>
      <trkpt lat="41.57624" lon="9.20837">
        <ele>46.2</ele>
        <time>2018-05-21T13:01:45Z</time>
      </trkpt>
      <trkpt lat="41.57625" lon="9.20829">
        <ele>46.2</ele>
        <time>2018-05-21T13:01:47Z</time>
      </trkpt>
      <trkpt lat="41.57634" lon="9.20826">
        <ele>46</ele>
        <time>2018-05-21T13:01:51Z</time>
      </trkpt>
      <trkpt lat="41.57653" lon="9.20822">
        <ele>46.2</ele>
        <time>2018-05-21T13:01:58Z</time>
      </trkpt>
      <trkpt lat="41.57669" lon="9.20816">
        <ele>47</ele>
        <time>2018-05-21T13:02:05Z</time>
      </trkpt>
      <trkpt lat="41.57671" lon="9.20816">
        <ele>47.2</ele>
        <time>2018-05-21T13:02:06Z</time>
      </trkpt>
      <trkpt lat="41.57677" lon="9.20815">
        <ele>47.8</ele>
        <time>2018-05-21T13:02:09Z</time>
      </trkpt>
      <trkpt lat="41.57683" lon="9.20812">
        <ele>48.2</ele>
        <time>2018-05-21T13:02:12Z</time>
      </trkpt>
      <trkpt lat="41.57688" lon="9.20811">
        <ele>48.4</ele>
        <time>2018-05-21T13:02:14Z</time>
      </trkpt>
      <trkpt lat="41.57703" lon="9.2081">
        <ele>49.2</ele>
        <time>2018-05-21T13:02:20Z</time>
      </trkpt>
      <trkpt lat="41.57705" lon="9.2081">
        <ele>49.4</ele>
        <time>2018-05-21T13:02:21Z</time>
      </trkpt>
      <trkpt lat="41.57713" lon="9.20806">
        <ele>50</ele>
        <time>2018-05-21T13:02:25Z</time>
      </trkpt>
      <trkpt lat="41.5772" lon="9.20803">
        <ele>50.4</ele>
        <time>2018-05-21T13:02:28Z</time>
      </trkpt>
      <trkpt lat="41.57726" lon="9.20801">
        <ele>50.6</ele>
        <time>2018-05-21T13:02:31Z</time>
      </trkpt>
      <trkpt lat="41.57733" lon="9.208">
        <ele>50.4</ele>
        <time>2018-05-21T13:02:35Z</time>
      </trkpt>
      <trkpt lat="41.57734" lon="9.20801">
        <ele>50.2</ele>
        <time>2018-05-21T13:02:36Z</time>
      </trkpt>
      <trkpt lat="41.5774" lon="9.20807">
        <ele>49.8</ele>
        <time>2018-05-21T13:02:40Z</time>
      </trkpt>
      <trkpt lat="41.5775" lon="9.20813">
        <ele>49.4</ele>
        <time>2018-05-21T13:02:44Z</time>
      </trkpt>
      <trkpt lat="41.57752" lon="9.20816">
        <ele>49.2</ele>
        <time>2018-05-21T13:02:45Z</time>
      </trkpt>
      <trkpt lat="41.57761" lon="9.20823">
        <ele>48.8</ele>
        <time>2018-05-21T13:02:49Z</time>
      </trkpt>
      <trkpt lat="41.57764" lon="9.20823">
        <ele>48.4</ele>
        <time>2018-05-21T13:02:50Z</time>
      </trkpt>
      <trkpt lat="41.57766" lon="9.20823">
        <ele>48.2</ele>
        <time>2018-05-21T13:02:51Z</time>
      </trkpt>
      <trkpt lat="41.57774" lon="9.20823">
        <ele>47.6</ele>
        <time>2018-05-21T13:02:53Z</time>
      </trkpt>
      <trkpt lat="41.57782" lon="9.20824">
        <ele>46.8</ele>
        <time>2018-05-21T13:02:55Z</time>
      </trkpt>
      <trkpt lat="41.57794" lon="9.20825">
        <ele>46.2</ele>
        <time>2018-05-21T13:02:57Z</time>
      </trkpt>
      <trkpt lat="41.578" lon="9.20826">
        <ele>45.4</ele>
        <time>2018-05-21T13:02:58Z</time>
      </trkpt>
      <trkpt lat="41.5781" lon="9.20826">
        <ele>44.4</ele>
        <time>2018-05-21T13:03:00Z</time>
      </trkpt>
      <trkpt lat="41.57815" lon="9.20827">
        <ele>43.6</ele>
        <time>2018-05-21T13:03:01Z</time>
      </trkpt>
      <trkpt lat="41.57822" lon="9.20826">
        <ele>42</ele>
        <time>2018-05-21T13:03:03Z</time>
      </trkpt>
      <trkpt lat="41.57827" lon="9.20825">
        <ele>41.4</ele>
        <time>2018-05-21T13:03:04Z</time>
      </trkpt>
      <trkpt lat="41.57831" lon="9.20824">
        <ele>40.8</ele>
        <time>2018-05-21T13:03:05Z</time>
      </trkpt>
      <trkpt lat="41.57838" lon="9.20818">
        <ele>39.4</ele>
        <time>2018-05-21T13:03:08Z</time>
      </trkpt>
      <trkpt lat="41.57845" lon="9.20811">
        <ele>39.2</ele>
        <time>2018-05-21T13:03:13Z</time>
      </trkpt>
      <trkpt lat="41.57846" lon="9.2081">
        <ele>39.2</ele>
        <time>2018-05-21T13:03:14Z</time>
      </trkpt>
      <trkpt lat="41.57873" lon="9.2077">
        <ele>41.6</ele>
        <time>2018-05-21T13:04:21Z</time>
      </trkpt>
      <trkpt lat="41.57876" lon="9.20767">
        <ele>41.8</ele>
        <time>2018-05-21T13:04:23Z</time>
      </trkpt>
      <trkpt lat="41.5788" lon="9.20764">
        <ele>42.6</ele>
        <time>2018-05-21T13:04:26Z</time>
      </trkpt>
      <trkpt lat="41.57881" lon="9.20761">
        <ele>43.2</ele>
        <time>2018-05-21T13:04:27Z</time>
      </trkpt>
      <trkpt lat="41.57883" lon="9.20754">
        <ele>43.6</ele>
        <time>2018-05-21T13:04:30Z</time>
      </trkpt>
      <trkpt lat="41.57885" lon="9.20752">
        <ele>43.8</ele>
        <time>2018-05-21T13:04:31Z</time>
      </trkpt>
      <trkpt lat="41.57889" lon="9.20749">
        <ele>44.4</ele>
        <time>2018-05-21T13:04:34Z</time>
      </trkpt>
      <trkpt lat="41.57891" lon="9.20748">
        <ele>44.8</ele>
        <time>2018-05-21T13:04:35Z</time>
      </trkpt>
      <trkpt lat="41.57895" lon="9.20742">
        <ele>45.8</ele>
        <time>2018-05-21T13:04:39Z</time>
      </trkpt>
      <trkpt lat="41.57897" lon="9.20739">
        <ele>47</ele>
        <time>2018-05-21T13:04:43Z</time>
      </trkpt>
      <trkpt lat="41.5792" lon="9.20708">
        <ele>49.4</ele>
        <time>2018-05-21T13:07:00Z</time>
      </trkpt>
      <trkpt lat="41.57922" lon="9.20706">
        <ele>49.8</ele>
        <time>2018-05-21T13:07:01Z</time>
      </trkpt>
      <trkpt lat="41.5793" lon="9.20698">
        <ele>50.6</ele>
        <time>2018-05-21T13:07:06Z</time>
      </trkpt>
      <trkpt lat="41.57932" lon="9.20698">
        <ele>50.8</ele>
        <time>2018-05-21T13:07:07Z</time>
      </trkpt>
      <trkpt lat="41.57934" lon="9.20696">
        <ele>50.8</ele>
        <time>2018-05-21T13:07:08Z</time>
      </trkpt>
      <trkpt lat="41.57936" lon="9.20689">
        <ele>51.4</ele>
        <time>2018-05-21T13:07:12Z</time>
      </trkpt>
      <trkpt lat="41.57937" lon="9.20687">
        <ele>51.8</ele>
        <time>2018-05-21T13:07:13Z</time>
      </trkpt>
      <trkpt lat="41.5794" lon="9.2068">
        <ele>52.8</ele>
        <time>2018-05-21T13:07:16Z</time>
      </trkpt>
      <trkpt lat="41.57944" lon="9.20673">
        <ele>53.8</ele>
        <time>2018-05-21T13:07:21Z</time>
      </trkpt>
      <trkpt lat="41.57945" lon="9.20672">
        <ele>53.8</ele>
        <time>2018-05-21T13:07:22Z</time>
      </trkpt>
      <trkpt lat="41.57949" lon="9.20661">
        <ele>54</ele>
        <time>2018-05-21T13:07:29Z</time>
      </trkpt>
      <trkpt lat="41.57949" lon="9.20651">
        <ele>53.6</ele>
        <time>2018-05-21T13:07:32Z</time>
      </trkpt>
      <trkpt lat="41.57952" lon="9.20644">
        <ele>52.6</ele>
        <time>2018-05-21T13:07:34Z</time>
      </trkpt>
      <trkpt lat="41.57954" lon="9.20637">
        <ele>51.6</ele>
        <time>2018-05-21T13:07:36Z</time>
      </trkpt>
      <trkpt lat="41.57958" lon="9.20627">
        <ele>51</ele>
        <time>2018-05-21T13:07:39Z</time>
      </trkpt>
      <trkpt lat="41.57959" lon="9.20624">
        <ele>50.8</ele>
        <time>2018-05-21T13:07:40Z</time>
      </trkpt>
      <trkpt lat="41.57962" lon="9.20616">
        <ele>50.6</ele>
        <time>2018-05-21T13:07:42Z</time>
      </trkpt>
      <trkpt lat="41.57966" lon="9.20605">
        <ele>50.6</ele>
        <time>2018-05-21T13:07:45Z</time>
      </trkpt>
      <trkpt lat="41.57971" lon="9.20596">
        <ele>51.2</ele>
        <time>2018-05-21T13:07:48Z</time>
      </trkpt>
      <trkpt lat="41.57972" lon="9.20594">
        <ele>51.2</ele>
        <time>2018-05-21T13:07:49Z</time>
      </trkpt>
      <trkpt lat="41.57981" lon="9.20575">
        <ele>51.6</ele>
        <time>2018-05-21T13:07:54Z</time>
      </trkpt>
      <trkpt lat="41.57982" lon="9.20573">
        <ele>51.8</ele>
        <time>2018-05-21T13:07:55Z</time>
      </trkpt>
      <trkpt lat="41.57987" lon="9.20565">
        <ele>52.2</ele>
        <time>2018-05-21T13:07:58Z</time>
      </trkpt>
      <trkpt lat="41.57997" lon="9.20546">
        <ele>51.8</ele>
        <time>2018-05-21T13:08:04Z</time>
      </trkpt>
      <trkpt lat="41.58005" lon="9.20536">
        <ele>51.2</ele>
        <time>2018-05-21T13:08:08Z</time>
      </trkpt>
      <trkpt lat="41.58009" lon="9.20529">
        <ele>50.8</ele>
        <time>2018-05-21T13:08:10Z</time>
      </trkpt>
      <trkpt lat="41.58014" lon="9.20515">
        <ele>50.4</ele>
        <time>2018-05-21T13:08:13Z</time>
      </trkpt>
      <trkpt lat="41.58024" lon="9.2049">
        <ele>49.8</ele>
        <time>2018-05-21T13:08:19Z</time>
      </trkpt>
      <trkpt lat="41.58036" lon="9.20467">
        <ele>50</ele>
        <time>2018-05-21T13:08:25Z</time>
      </trkpt>
      <trkpt lat="41.58043" lon="9.20451">
        <ele>50.8</ele>
        <time>2018-05-21T13:08:30Z</time>
      </trkpt>
      <trkpt lat="41.58044" lon="9.20448">
        <ele>51</ele>
        <time>2018-05-21T13:08:31Z</time>
      </trkpt>
      <trkpt lat="41.58049" lon="9.2044">
        <ele>51.4</ele>
        <time>2018-05-21T13:08:34Z</time>
      </trkpt>
      <trkpt lat="41.5805" lon="9.20437">
        <ele>51.8</ele>
        <time>2018-05-21T13:08:35Z</time>
      </trkpt>
      <trkpt lat="41.58054" lon="9.2043">
        <ele>52.6</ele>
        <time>2018-05-21T13:08:38Z</time>
      </trkpt>
      <trkpt lat="41.58055" lon="9.20428">
        <ele>53</ele>
        <time>2018-05-21T13:08:39Z</time>
      </trkpt>
      <trkpt lat="41.58059" lon="9.20423">
        <ele>53.4</ele>
        <time>2018-05-21T13:08:41Z</time>
      </trkpt>
      <trkpt lat="41.58063" lon="9.20415">
        <ele>54.2</ele>
        <time>2018-05-21T13:08:44Z</time>
      </trkpt>
      <trkpt lat="41.58071" lon="9.20399">
        <ele>55.2</ele>
        <time>2018-05-21T13:08:49Z</time>
      </trkpt>
      <trkpt lat="41.58073" lon="9.20396">
        <ele>55.6</ele>
        <time>2018-05-21T13:08:50Z</time>
      </trkpt>
      <trkpt lat="41.58076" lon="9.20389">
        <ele>56.4</ele>
        <time>2018-05-21T13:08:52Z</time>
      </trkpt>
      <trkpt lat="41.58081" lon="9.20381">
        <ele>57.6</ele>
        <time>2018-05-21T13:08:55Z</time>
      </trkpt>
      <trkpt lat="41.58084" lon="9.20376">
        <ele>58.8</ele>
        <time>2018-05-21T13:08:58Z</time>
      </trkpt>
      <trkpt lat="41.58089" lon="9.20371">
        <ele>59.2</ele>
        <time>2018-05-21T13:09:02Z</time>
      </trkpt>
      <trkpt lat="41.5809" lon="9.20367">
        <ele>59.2</ele>
        <time>2018-05-21T13:09:04Z</time>
      </trkpt>
      <trkpt lat="41.58089" lon="9.20365">
        <ele>59.4</ele>
        <time>2018-05-21T13:09:06Z</time>
      </trkpt>
      <trkpt lat="41.58089" lon="9.20368">
        <ele>59.4</ele>
        <time>2018-05-21T13:09:08Z</time>
      </trkpt>
      <trkpt lat="41.5809" lon="9.20374">
        <ele>59.4</ele>
        <time>2018-05-21T13:09:12Z</time>
      </trkpt>
      <trkpt lat="41.58092" lon="9.20376">
        <ele>59.4</ele>
        <time>2018-05-21T13:09:16Z</time>
      </trkpt>
      <trkpt lat="41.58091" lon="9.20372">
        <ele>59</ele>
        <time>2018-05-21T13:10:06Z</time>
      </trkpt>
      <trkpt lat="41.58086" lon="9.20371">
        <ele>59.2</ele>
        <time>2018-05-21T13:10:10Z</time>
      </trkpt>
      <trkpt lat="41.58084" lon="9.20373">
        <ele>59</ele>
        <time>2018-05-21T13:10:14Z</time>
      </trkpt>
      <trkpt lat="41.58095" lon="9.20384">
        <ele>58.8</ele>
        <time>2018-05-21T13:11:58Z</time>
      </trkpt>
      <trkpt lat="41.58097" lon="9.20396">
        <ele>58.6</ele>
        <time>2018-05-21T13:12:02Z</time>
      </trkpt>
      <trkpt lat="41.58097" lon="9.204">
        <ele>58.4</ele>
        <time>2018-05-21T13:12:03Z</time>
      </trkpt>
      <trkpt lat="41.58102" lon="9.2043">
        <ele>57.4</ele>
        <time>2018-05-21T13:12:10Z</time>
      </trkpt>
      <trkpt lat="41.58107" lon="9.20456">
        <ele>56.2</ele>
        <time>2018-05-21T13:12:15Z</time>
      </trkpt>
      <trkpt lat="41.58108" lon="9.2046">
        <ele>55.8</ele>
        <time>2018-05-21T13:12:16Z</time>
      </trkpt>
      <trkpt lat="41.58111" lon="9.20468">
        <ele>54.8</ele>
        <time>2018-05-21T13:12:18Z</time>
      </trkpt>
      <trkpt lat="41.58113" lon="9.20477">
        <ele>53.8</ele>
        <time>2018-05-21T13:12:20Z</time>
      </trkpt>
      <trkpt lat="41.58115" lon="9.20487">
        <ele>52.6</ele>
        <time>2018-05-21T13:12:22Z</time>
      </trkpt>
      <trkpt lat="41.58118" lon="9.20497">
        <ele>51.2</ele>
        <time>2018-05-21T13:12:24Z</time>
      </trkpt>
      <trkpt lat="41.58121" lon="9.20508">
        <ele>49.6</ele>
        <time>2018-05-21T13:12:26Z</time>
      </trkpt>
      <trkpt lat="41.58123" lon="9.20512">
        <ele>48</ele>
        <time>2018-05-21T13:12:27Z</time>
      </trkpt>
      <trkpt lat="41.58125" lon="9.20515">
        <ele>46.8</ele>
        <time>2018-05-21T13:12:28Z</time>
      </trkpt>
      <trkpt lat="41.58128" lon="9.20518">
        <ele>45.4</ele>
        <time>2018-05-21T13:12:29Z</time>
      </trkpt>
      <trkpt lat="41.5813" lon="9.20519">
        <ele>44.2</ele>
        <time>2018-05-21T13:12:30Z</time>
      </trkpt>
      <trkpt lat="41.58132" lon="9.20521">
        <ele>43.4</ele>
        <time>2018-05-21T13:12:31Z</time>
      </trkpt>
      <trkpt lat="41.58134" lon="9.20522">
        <ele>42.6</ele>
        <time>2018-05-21T13:12:32Z</time>
      </trkpt>
      <trkpt lat="41.58136" lon="9.20526">
        <ele>41.4</ele>
        <time>2018-05-21T13:12:34Z</time>
      </trkpt>
      <trkpt lat="41.58138" lon="9.20532">
        <ele>40.6</ele>
        <time>2018-05-21T13:12:37Z</time>
      </trkpt>
      <trkpt lat="41.58138" lon="9.20534">
        <ele>40.4</ele>
        <time>2018-05-21T13:12:38Z</time>
      </trkpt>
      <trkpt lat="41.58139" lon="9.20535">
        <ele>39.8</ele>
        <time>2018-05-21T13:12:40Z</time>
      </trkpt>
      <trkpt lat="41.58153" lon="9.20558">
        <ele>40.4</ele>
        <time>2018-05-21T13:13:29Z</time>
      </trkpt>
      <trkpt lat="41.58153" lon="9.2056">
        <ele>40.4</ele>
        <time>2018-05-21T13:13:30Z</time>
      </trkpt>
      <trkpt lat="41.58156" lon="9.20579">
        <ele>40.2</ele>
        <time>2018-05-21T13:13:37Z</time>
      </trkpt>
      <trkpt lat="41.58155" lon="9.20583">
        <ele>40.2</ele>
        <time>2018-05-21T13:13:39Z</time>
      </trkpt>
      <trkpt lat="41.58155" lon="9.20589">
        <ele>40.2</ele>
        <time>2018-05-21T13:13:41Z</time>
      </trkpt>
      <trkpt lat="41.58155" lon="9.20604">
        <ele>39.8</ele>
        <time>2018-05-21T13:13:46Z</time>
      </trkpt>
      <trkpt lat="41.58154" lon="9.2062">
        <ele>39.8</ele>
        <time>2018-05-21T13:13:51Z</time>
      </trkpt>
      <trkpt lat="41.58154" lon="9.20635">
        <ele>39.6</ele>
        <time>2018-05-21T13:13:56Z</time>
      </trkpt>
      <trkpt lat="41.58154" lon="9.20647">
        <ele>39.2</ele>
        <time>2018-05-21T13:14:02Z</time>
      </trkpt>
      <trkpt lat="41.58154" lon="9.20649">
        <ele>39.2</ele>
        <time>2018-05-21T13:14:03Z</time>
      </trkpt>
      <trkpt lat="41.58152" lon="9.20658">
        <ele>39</ele>
        <time>2018-05-21T13:14:08Z</time>
      </trkpt>
      <trkpt lat="41.58151" lon="9.20661">
        <ele>39.2</ele>
        <time>2018-05-21T13:14:10Z</time>
      </trkpt>
      <trkpt lat="41.5815" lon="9.20666">
        <ele>39.8</ele>
        <time>2018-05-21T13:14:13Z</time>
      </trkpt>
      <trkpt lat="41.5815" lon="9.20671">
        <ele>40.2</ele>
        <time>2018-05-21T13:14:15Z</time>
      </trkpt>
      <trkpt lat="41.58151" lon="9.20679">
        <ele>40.8</ele>
        <time>2018-05-21T13:14:18Z</time>
      </trkpt>
      <trkpt lat="41.58152" lon="9.20682">
        <ele>41.2</ele>
        <time>2018-05-21T13:14:19Z</time>
      </trkpt>
      <trkpt lat="41.58152" lon="9.20691">
        <ele>42.2</ele>
        <time>2018-05-21T13:14:22Z</time>
      </trkpt>
      <trkpt lat="41.58152" lon="9.20693">
        <ele>42.8</ele>
        <time>2018-05-21T13:14:23Z</time>
      </trkpt>
      <trkpt lat="41.58152" lon="9.20694">
        <ele>43.4</ele>
        <time>2018-05-21T13:14:24Z</time>
      </trkpt>
      <trkpt lat="41.58155" lon="9.20703">
        <ele>44.4</ele>
        <time>2018-05-21T13:14:30Z</time>
      </trkpt>
      <trkpt lat="41.58157" lon="9.20713">
        <ele>45.4</ele>
        <time>2018-05-21T13:14:36Z</time>
      </trkpt>
      <trkpt lat="41.58157" lon="9.20715">
        <ele>45.6</ele>
        <time>2018-05-21T13:14:37Z</time>
      </trkpt>
      <trkpt lat="41.58157" lon="9.20721">
        <ele>46.6</ele>
        <time>2018-05-21T13:14:42Z</time>
      </trkpt>
      <trkpt lat="41.58157" lon="9.20722">
        <ele>46.6</ele>
        <time>2018-05-21T13:14:43Z</time>
      </trkpt>
      <trkpt lat="41.58156" lon="9.20731">
        <ele>46.8</ele>
        <time>2018-05-21T13:14:46Z</time>
      </trkpt>
      <trkpt lat="41.58157" lon="9.20739">
        <ele>47.6</ele>
        <time>2018-05-21T13:14:50Z</time>
      </trkpt>
      <trkpt lat="41.58157" lon="9.2074">
        <ele>48</ele>
        <time>2018-05-21T13:14:51Z</time>
      </trkpt>
      <trkpt lat="41.5816" lon="9.20751">
        <ele>48.6</ele>
        <time>2018-05-21T13:14:56Z</time>
      </trkpt>
      <trkpt lat="41.58161" lon="9.20754">
        <ele>48.8</ele>
        <time>2018-05-21T13:14:57Z</time>
      </trkpt>
      <trkpt lat="41.58162" lon="9.20765">
        <ele>49.6</ele>
        <time>2018-05-21T13:15:01Z</time>
      </trkpt>
      <trkpt lat="41.58162" lon="9.20768">
        <ele>49.8</ele>
        <time>2018-05-21T13:15:02Z</time>
      </trkpt>
      <trkpt lat="41.58161" lon="9.20777">
        <ele>50.4</ele>
        <time>2018-05-21T13:15:05Z</time>
      </trkpt>
      <trkpt lat="41.58161" lon="9.20779">
        <ele>50.6</ele>
        <time>2018-05-21T13:15:06Z</time>
      </trkpt>
      <trkpt lat="41.58161" lon="9.20781">
        <ele>50.8</ele>
        <time>2018-05-21T13:15:07Z</time>
      </trkpt>
      <trkpt lat="41.58163" lon="9.20789">
        <ele>51</ele>
        <time>2018-05-21T13:15:10Z</time>
      </trkpt>
      <trkpt lat="41.58163" lon="9.20793">
        <ele>51.2</ele>
        <time>2018-05-21T13:15:11Z</time>
      </trkpt>
      <trkpt lat="41.58162" lon="9.20804">
        <ele>51.2</ele>
        <time>2018-05-21T13:15:15Z</time>
      </trkpt>
      <trkpt lat="41.58169" lon="9.2082">
        <ele>51.2</ele>
        <time>2018-05-21T13:15:19Z</time>
      </trkpt>
      <trkpt lat="41.58167" lon="9.20834">
        <ele>50.4</ele>
        <time>2018-05-21T13:15:22Z</time>
      </trkpt>
      <trkpt lat="41.58166" lon="9.20851">
        <ele>50.4</ele>
        <time>2018-05-21T13:15:26Z</time>
      </trkpt>
      <trkpt lat="41.58171" lon="9.20887">
        <ele>50</ele>
        <time>2018-05-21T13:15:32Z</time>
      </trkpt>
      <trkpt lat="41.58175" lon="9.209">
        <ele>49.6</ele>
        <time>2018-05-21T13:15:34Z</time>
      </trkpt>
      <trkpt lat="41.58177" lon="9.20911">
        <ele>48.6</ele>
        <time>2018-05-21T13:15:36Z</time>
      </trkpt>
      <trkpt lat="41.58182" lon="9.20933">
        <ele>47.4</ele>
        <time>2018-05-21T13:15:40Z</time>
      </trkpt>
      <trkpt lat="41.58183" lon="9.20938">
        <ele>47.2</ele>
        <time>2018-05-21T13:15:41Z</time>
      </trkpt>
      <trkpt lat="41.58186" lon="9.20954">
        <ele>46.2</ele>
        <time>2018-05-21T13:15:44Z</time>
      </trkpt>
      <trkpt lat="41.58189" lon="9.20962">
        <ele>45.8</ele>
        <time>2018-05-21T13:15:46Z</time>
      </trkpt>
      <trkpt lat="41.58196" lon="9.20986">
        <ele>45.4</ele>
        <time>2018-05-21T13:15:51Z</time>
      </trkpt>
      <trkpt lat="41.58205" lon="9.21007">
        <ele>45.6</ele>
        <time>2018-05-21T13:15:55Z</time>
      </trkpt>
      <trkpt lat="41.58211" lon="9.21024">
        <ele>47</ele>
        <time>2018-05-21T13:16:00Z</time>
      </trkpt>
      <trkpt lat="41.58212" lon="9.21027">
        <ele>47.4</ele>
        <time>2018-05-21T13:16:01Z</time>
      </trkpt>
      <trkpt lat="41.58218" lon="9.2104">
        <ele>48.2</ele>
        <time>2018-05-21T13:16:05Z</time>
      </trkpt>
      <trkpt lat="41.58219" lon="9.21048">
        <ele>48.6</ele>
        <time>2018-05-21T13:16:07Z</time>
      </trkpt>
      <trkpt lat="41.5822" lon="9.21056">
        <ele>49.2</ele>
        <time>2018-05-21T13:16:09Z</time>
      </trkpt>
      <trkpt lat="41.5822" lon="9.21063">
        <ele>50.4</ele>
        <time>2018-05-21T13:16:11Z</time>
      </trkpt>
      <trkpt lat="41.5822" lon="9.21074">
        <ele>51.4</ele>
        <time>2018-05-21T13:16:14Z</time>
      </trkpt>
      <trkpt lat="41.5822" lon="9.21086">
        <ele>51.8</ele>
        <time>2018-05-21T13:16:17Z</time>
      </trkpt>
      <trkpt lat="41.58221" lon="9.21094">
        <ele>52.6</ele>
        <time>2018-05-21T13:16:20Z</time>
      </trkpt>
      <trkpt lat="41.58222" lon="9.21104">
        <ele>53</ele>
        <time>2018-05-21T13:16:23Z</time>
      </trkpt>
      <trkpt lat="41.58227" lon="9.21119">
        <ele>52.8</ele>
        <time>2018-05-21T13:16:28Z</time>
      </trkpt>
      <trkpt lat="41.58237" lon="9.21145">
        <ele>52.8</ele>
        <time>2018-05-21T13:16:35Z</time>
      </trkpt>
      <trkpt lat="41.58238" lon="9.2115">
        <ele>52.8</ele>
        <time>2018-05-21T13:16:36Z</time>
      </trkpt>
      <trkpt lat="41.58239" lon="9.2117">
        <ele>52</ele>
        <time>2018-05-21T13:16:39Z</time>
      </trkpt>
      <trkpt lat="41.58241" lon="9.21177">
        <ele>51.6</ele>
        <time>2018-05-21T13:16:40Z</time>
      </trkpt>
      <trkpt lat="41.58247" lon="9.21186">
        <ele>51</ele>
        <time>2018-05-21T13:16:42Z</time>
      </trkpt>
      <trkpt lat="41.5826" lon="9.21176">
        <ele>50.4</ele>
        <time>2018-05-21T13:16:45Z</time>
      </trkpt>
      <trkpt lat="41.58264" lon="9.2117">
        <ele>50</ele>
        <time>2018-05-21T13:16:46Z</time>
      </trkpt>
      <trkpt lat="41.58269" lon="9.21165">
        <ele>49.6</ele>
        <time>2018-05-21T13:16:47Z</time>
      </trkpt>
      <trkpt lat="41.58282" lon="9.2115">
        <ele>49.2</ele>
        <time>2018-05-21T13:16:50Z</time>
      </trkpt>
      <trkpt lat="41.58294" lon="9.21136">
        <ele>49</ele>
        <time>2018-05-21T13:16:53Z</time>
      </trkpt>
      <trkpt lat="41.58299" lon="9.21133">
        <ele>49</ele>
        <time>2018-05-21T13:16:54Z</time>
      </trkpt>
      <trkpt lat="41.5831" lon="9.21125">
        <ele>48.8</ele>
        <time>2018-05-21T13:16:56Z</time>
      </trkpt>
      <trkpt lat="41.58319" lon="9.21113">
        <ele>48.2</ele>
        <time>2018-05-21T13:16:58Z</time>
      </trkpt>
      <trkpt lat="41.58322" lon="9.21107">
        <ele>47.2</ele>
        <time>2018-05-21T13:16:59Z</time>
      </trkpt>
      <trkpt lat="41.58326" lon="9.21104">
        <ele>46.2</ele>
        <time>2018-05-21T13:17:00Z</time>
      </trkpt>
      <trkpt lat="41.58331" lon="9.21104">
        <ele>45.2</ele>
        <time>2018-05-21T13:17:01Z</time>
      </trkpt>
      <trkpt lat="41.58335" lon="9.21116">
        <ele>43.8</ele>
        <time>2018-05-21T13:17:03Z</time>
      </trkpt>
      <trkpt lat="41.58336" lon="9.21124">
        <ele>43.2</ele>
        <time>2018-05-21T13:17:04Z</time>
      </trkpt>
      <trkpt lat="41.58338" lon="9.21132">
        <ele>42.6</ele>
        <time>2018-05-21T13:17:05Z</time>
      </trkpt>
      <trkpt lat="41.58342" lon="9.21151">
        <ele>41.2</ele>
        <time>2018-05-21T13:17:07Z</time>
      </trkpt>
      <trkpt lat="41.58343" lon="9.21169">
        <ele>39.8</ele>
        <time>2018-05-21T13:17:09Z</time>
      </trkpt>
      <trkpt lat="41.58344" lon="9.21177">
        <ele>39.6</ele>
        <time>2018-05-21T13:17:10Z</time>
      </trkpt>
      <trkpt lat="41.58346" lon="9.21185">
        <ele>39.4</ele>
        <time>2018-05-21T13:17:11Z</time>
      </trkpt>
      <trkpt lat="41.58356" lon="9.21199">
        <ele>39.4</ele>
        <time>2018-05-21T13:17:14Z</time>
      </trkpt>
      <trkpt lat="41.58358" lon="9.21202">
        <ele>39.4</ele>
        <time>2018-05-21T13:17:15Z</time>
      </trkpt>
      <trkpt lat="41.58362" lon="9.21208">
        <ele>39.4</ele>
        <time>2018-05-21T13:17:18Z</time>
      </trkpt>
      <trkpt lat="41.58363" lon="9.21208">
        <ele>39.4</ele>
        <time>2018-05-21T13:17:20Z</time>
      </trkpt>
      <trkpt lat="41.5836" lon="9.21205">
        <ele>39.4</ele>
        <time>2018-05-21T13:17:59Z</time>
      </trkpt>
      <trkpt lat="41.58359" lon="9.21206">
        <ele>39.4</ele>
        <time>2018-05-21T13:18:00Z</time>
      </trkpt>
      <trkpt lat="41.58358" lon="9.21207">
        <ele>39</ele>
        <time>2018-05-21T13:18:02Z</time>
      </trkpt>
      <trkpt lat="41.58364" lon="9.21206">
        <ele>39.2</ele>
        <time>2018-05-21T13:19:11Z</time>
      </trkpt>
      <trkpt lat="41.58366" lon="9.21207">
        <ele>39.4</ele>
        <time>2018-05-21T13:19:12Z</time>
      </trkpt>
      <trkpt lat="41.58381" lon="9.21209">
        <ele>40.2</ele>
        <time>2018-05-21T13:19:18Z</time>
      </trkpt>
      <trkpt lat="41.58389" lon="9.21206">
        <ele>40.6</ele>
        <time>2018-05-21T13:19:22Z</time>
      </trkpt>
      <trkpt lat="41.58394" lon="9.21206">
        <ele>41.2</ele>
        <time>2018-05-21T13:19:24Z</time>
      </trkpt>
      <trkpt lat="41.58399" lon="9.21206">
        <ele>41.8</ele>
        <time>2018-05-21T13:19:26Z</time>
      </trkpt>
      <trkpt lat="41.58406" lon="9.21204">
        <ele>42.4</ele>
        <time>2018-05-21T13:19:29Z</time>
      </trkpt>
      <trkpt lat="41.58411" lon="9.21203">
        <ele>42.8</ele>
        <time>2018-05-21T13:19:31Z</time>
      </trkpt>
      <trkpt lat="41.58425" lon="9.21202">
        <ele>43.2</ele>
        <time>2018-05-21T13:19:35Z</time>
      </trkpt>
      <trkpt lat="41.58439" lon="9.21205">
        <ele>43.2</ele>
        <time>2018-05-21T13:19:39Z</time>
      </trkpt>
      <trkpt lat="41.58444" lon="9.21207">
        <ele>43.2</ele>
        <time>2018-05-21T13:19:40Z</time>
      </trkpt>
      <trkpt lat="41.58463" lon="9.21207">
        <ele>42.8</ele>
        <time>2018-05-21T13:19:44Z</time>
      </trkpt>
      <trkpt lat="41.58473" lon="9.21207">
        <ele>42.6</ele>
        <time>2018-05-21T13:19:46Z</time>
      </trkpt>
      <trkpt lat="41.58483" lon="9.21208">
        <ele>42</ele>
        <time>2018-05-21T13:19:48Z</time>
      </trkpt>
      <trkpt lat="41.58488" lon="9.21209">
        <ele>41.8</ele>
        <time>2018-05-21T13:19:49Z</time>
      </trkpt>
      <trkpt lat="41.58503" lon="9.21208">
        <ele>41.6</ele>
        <time>2018-05-21T13:19:52Z</time>
      </trkpt>
      <trkpt lat="41.58515" lon="9.21201">
        <ele>41.4</ele>
        <time>2018-05-21T13:19:55Z</time>
      </trkpt>
      <trkpt lat="41.5852" lon="9.21185">
        <ele>41.2</ele>
        <time>2018-05-21T13:19:58Z</time>
      </trkpt>
      <trkpt lat="41.58522" lon="9.21179">
        <ele>41.2</ele>
        <time>2018-05-21T13:19:59Z</time>
      </trkpt>
      <trkpt lat="41.58531" lon="9.21151">
        <ele>41.6</ele>
        <time>2018-05-21T13:20:04Z</time>
      </trkpt>
      <trkpt lat="41.58533" lon="9.21145">
        <ele>41.8</ele>
        <time>2018-05-21T13:20:05Z</time>
      </trkpt>
      <trkpt lat="41.58539" lon="9.21135">
        <ele>42.2</ele>
        <time>2018-05-21T13:20:07Z</time>
      </trkpt>
      <trkpt lat="41.58551" lon="9.21118">
        <ele>42.6</ele>
        <time>2018-05-21T13:20:11Z</time>
      </trkpt>
      <trkpt lat="41.58558" lon="9.21111">
        <ele>42.8</ele>
        <time>2018-05-21T13:20:13Z</time>
      </trkpt>
      <trkpt lat="41.5857" lon="9.21102">
        <ele>43.4</ele>
        <time>2018-05-21T13:20:16Z</time>
      </trkpt>
      <trkpt lat="41.58573" lon="9.211">
        <ele>43.6</ele>
        <time>2018-05-21T13:20:17Z</time>
      </trkpt>
      <trkpt lat="41.58585" lon="9.21098">
        <ele>44.8</ele>
        <time>2018-05-21T13:20:20Z</time>
      </trkpt>
      <trkpt lat="41.58596" lon="9.21099">
        <ele>46</ele>
        <time>2018-05-21T13:20:23Z</time>
      </trkpt>
      <trkpt lat="41.58599" lon="9.21097">
        <ele>46</ele>
        <time>2018-05-21T13:20:24Z</time>
      </trkpt>
      <trkpt lat="41.58602" lon="9.21095">
        <ele>46.2</ele>
        <time>2018-05-21T13:20:25Z</time>
      </trkpt>
      <trkpt lat="41.58612" lon="9.21086">
        <ele>46.4</ele>
        <time>2018-05-21T13:20:28Z</time>
      </trkpt>
      <trkpt lat="41.58616" lon="9.21084">
        <ele>46.4</ele>
        <time>2018-05-21T13:20:29Z</time>
      </trkpt>
      <trkpt lat="41.58631" lon="9.21079">
        <ele>45.8</ele>
        <time>2018-05-21T13:20:32Z</time>
      </trkpt>
      <trkpt lat="41.58641" lon="9.21078">
        <ele>45.4</ele>
        <time>2018-05-21T13:20:34Z</time>
      </trkpt>
      <trkpt lat="41.58655" lon="9.21078">
        <ele>45.6</ele>
        <time>2018-05-21T13:20:37Z</time>
      </trkpt>
      <trkpt lat="41.58665" lon="9.21076">
        <ele>46</ele>
        <time>2018-05-21T13:20:39Z</time>
      </trkpt>
      <trkpt lat="41.58697" lon="9.21072">
        <ele>45.8</ele>
        <time>2018-05-21T13:20:46Z</time>
      </trkpt>
      <trkpt lat="41.58701" lon="9.21071">
        <ele>45.8</ele>
        <time>2018-05-21T13:20:47Z</time>
      </trkpt>
      <trkpt lat="41.58719" lon="9.21068">
        <ele>45.8</ele>
        <time>2018-05-21T13:20:51Z</time>
      </trkpt>
      <trkpt lat="41.58741" lon="9.21068">
        <ele>46</ele>
        <time>2018-05-21T13:20:56Z</time>
      </trkpt>
      <trkpt lat="41.58749" lon="9.21066">
        <ele>46.4</ele>
        <time>2018-05-21T13:20:58Z</time>
      </trkpt>
      <trkpt lat="41.58762" lon="9.21062">
        <ele>46.6</ele>
        <time>2018-05-21T13:21:01Z</time>
      </trkpt>
      <trkpt lat="41.58775" lon="9.21057">
        <ele>46.6</ele>
        <time>2018-05-21T13:21:04Z</time>
      </trkpt>
      <trkpt lat="41.58784" lon="9.21053">
        <ele>46.8</ele>
        <time>2018-05-21T13:21:06Z</time>
      </trkpt>
      <trkpt lat="41.58794" lon="9.21049">
        <ele>46.8</ele>
        <time>2018-05-21T13:21:08Z</time>
      </trkpt>
      <trkpt lat="41.58829" lon="9.2103">
        <ele>47.8</ele>
        <time>2018-05-21T13:21:16Z</time>
      </trkpt>
      <trkpt lat="41.58833" lon="9.21028">
        <ele>47.8</ele>
        <time>2018-05-21T13:21:17Z</time>
      </trkpt>
      <trkpt lat="41.58837" lon="9.21026">
        <ele>48</ele>
        <time>2018-05-21T13:21:18Z</time>
      </trkpt>
      <trkpt lat="41.5885" lon="9.21021">
        <ele>48.6</ele>
        <time>2018-05-21T13:21:21Z</time>
      </trkpt>
      <trkpt lat="41.58859" lon="9.21017">
        <ele>48.8</ele>
        <time>2018-05-21T13:21:23Z</time>
      </trkpt>
      <trkpt lat="41.5888" lon="9.21009">
        <ele>49.6</ele>
        <time>2018-05-21T13:21:28Z</time>
      </trkpt>
      <trkpt lat="41.58893" lon="9.21002">
        <ele>50.2</ele>
        <time>2018-05-21T13:21:31Z</time>
      </trkpt>
      <trkpt lat="41.58914" lon="9.2099">
        <ele>50.4</ele>
        <time>2018-05-21T13:21:36Z</time>
      </trkpt>
      <trkpt lat="41.5893" lon="9.20981">
        <ele>51</ele>
        <time>2018-05-21T13:21:40Z</time>
      </trkpt>
      <trkpt lat="41.58937" lon="9.20977">
        <ele>51.6</ele>
        <time>2018-05-21T13:21:42Z</time>
      </trkpt>
      <trkpt lat="41.58945" lon="9.20974">
        <ele>52</ele>
        <time>2018-05-21T13:21:44Z</time>
      </trkpt>
      <trkpt lat="41.58949" lon="9.20972">
        <ele>52.2</ele>
        <time>2018-05-21T13:21:45Z</time>
      </trkpt>
      <trkpt lat="41.58958" lon="9.2097">
        <ele>52.4</ele>
        <time>2018-05-21T13:21:47Z</time>
      </trkpt>
      <trkpt lat="41.58981" lon="9.20964">
        <ele>52.8</ele>
        <time>2018-05-21T13:21:53Z</time>
      </trkpt>
      <trkpt lat="41.5899" lon="9.20961">
        <ele>53.2</ele>
        <time>2018-05-21T13:21:56Z</time>
      </trkpt>
      <trkpt lat="41.59001" lon="9.2096">
        <ele>53.6</ele>
        <time>2018-05-21T13:21:59Z</time>
      </trkpt>
      <trkpt lat="41.59023" lon="9.20966">
        <ele>53.8</ele>
        <time>2018-05-21T13:22:05Z</time>
      </trkpt>
      <trkpt lat="41.59032" lon="9.20966">
        <ele>54</ele>
        <time>2018-05-21T13:22:07Z</time>
      </trkpt>
      <trkpt lat="41.5904" lon="9.20963">
        <ele>53.8</ele>
        <time>2018-05-21T13:22:09Z</time>
      </trkpt>
      <trkpt lat="41.59048" lon="9.20959">
        <ele>54.2</ele>
        <time>2018-05-21T13:22:11Z</time>
      </trkpt>
      <trkpt lat="41.59031" lon="9.20843">
        <ele>62.8</ele>
      </trkpt>
      <trkpt lat="41.59008" lon="9.20777">
        <ele>66.8</ele>
      </trkpt>
      <trkpt lat="41.58999" lon="9.207">
        <ele>66</ele>
      </trkpt>
      <trkpt lat="41.58982" lon="9.20651">
        <ele>65</ele>
      </trkpt>
      <trkpt lat="41.59027" lon="9.20622">
        <ele>66.1</ele>
      </trkpt>
      <trkpt lat="41.59057" lon="9.20536">
        <ele>63.1</ele>
      </trkpt>
      <trkpt lat="41.59068" lon="9.20482">
        <ele>61.3</ele>
      </trkpt>
      <trkpt lat="41.59019" lon="9.20387">
        <ele>60.1</ele>
        <time>2018-05-21T10:34:20Z</time>
      </trkpt>
    </trkseg>
  </trk>
</gpx>